<?xml version="1.0" encoding="UTF-8" standalone="no" ?>
<gpx xmlns="http://www.topografix.com/GPX/1/1" xmlns:xsi="http://www.w3.org/2001/XMLSchema-instance" xsi:schemaLocation="http://www.topografix.com/GPX/1/1 http://www.topografix.com/GPX/1/1/gpx.xsd" version="1.1" creator="VisuGPX - https://www.visugpx.com">
  <metadata>
    <name>Rocher des vierges </name>
  </metadata>
  <trk>
    <name><![CDATA[Rocher des vierges ]]></name>
    <extensions>
      <line xmlns="http://www.topografix.com/GPX/gpx_style/0/2">
        <color>0000FF</color>
        <width>4</width>
      </line>
    </extensions>
    <trkseg>
      <trkpt lat="43.65092" lon="3.50229">
        <ele>73.1</ele>
        <time>2022-08-07T05:52:53Z</time>
      </trkpt>
      <trkpt lat="43.65164" lon="3.50179">
        <ele>69.2</ele>
        <time>2022-08-07T05:53:03Z</time>
      </trkpt>
      <trkpt lat="43.65198" lon="3.50159">
        <ele>69.1</ele>
        <time>2022-08-07T05:53:13Z</time>
      </trkpt>
      <trkpt lat="43.65235" lon="3.50145">
        <ele>69.3</ele>
        <time>2022-08-07T05:53:23Z</time>
      </trkpt>
      <trkpt lat="43.65273" lon="3.50118">
        <ele>69.5</ele>
        <time>2022-08-07T05:53:33Z</time>
      </trkpt>
      <trkpt lat="43.65278" lon="3.50128">
        <ele>69.3</ele>
        <time>2022-08-07T05:54:13Z</time>
      </trkpt>
      <trkpt lat="43.65292" lon="3.50181">
        <ele>68.3</ele>
        <time>2022-08-07T05:54:23Z</time>
      </trkpt>
      <trkpt lat="43.65308" lon="3.50238">
        <ele>69.4</ele>
        <time>2022-08-07T05:54:33Z</time>
      </trkpt>
      <trkpt lat="43.6533" lon="3.50287">
        <ele>69.6</ele>
        <time>2022-08-07T05:54:43Z</time>
      </trkpt>
      <trkpt lat="43.65359" lon="3.50313">
        <ele>69.2</ele>
        <time>2022-08-07T05:54:53Z</time>
      </trkpt>
      <trkpt lat="43.65394" lon="3.50349">
        <ele>69</ele>
        <time>2022-08-07T05:55:03Z</time>
      </trkpt>
      <trkpt lat="43.65438" lon="3.50342">
        <ele>69.6</ele>
        <time>2022-08-07T05:55:13Z</time>
      </trkpt>
      <trkpt lat="43.65469" lon="3.50344">
        <ele>70.4</ele>
        <time>2022-08-07T05:55:23Z</time>
      </trkpt>
      <trkpt lat="43.65483" lon="3.50375">
        <ele>71.4</ele>
        <time>2022-08-07T05:55:33Z</time>
      </trkpt>
      <trkpt lat="43.65497" lon="3.50412">
        <ele>72.7</ele>
        <time>2022-08-07T05:55:43Z</time>
      </trkpt>
      <trkpt lat="43.65503" lon="3.50451">
        <ele>73.4</ele>
        <time>2022-08-07T05:55:53Z</time>
      </trkpt>
      <trkpt lat="43.65529" lon="3.50474">
        <ele>73.7</ele>
        <time>2022-08-07T05:56:03Z</time>
      </trkpt>
      <trkpt lat="43.65574" lon="3.50512">
        <ele>73.8</ele>
        <time>2022-08-07T05:56:13Z</time>
      </trkpt>
      <trkpt lat="43.65599" lon="3.50579">
        <ele>72.9</ele>
        <time>2022-08-07T05:56:23Z</time>
      </trkpt>
      <trkpt lat="43.65642" lon="3.50585">
        <ele>72.3</ele>
        <time>2022-08-07T05:56:33Z</time>
      </trkpt>
      <trkpt lat="43.65692" lon="3.50576">
        <ele>72.2</ele>
        <time>2022-08-07T05:56:43Z</time>
      </trkpt>
      <trkpt lat="43.6574" lon="3.506">
        <ele>72.5</ele>
        <time>2022-08-07T05:56:53Z</time>
      </trkpt>
      <trkpt lat="43.65789" lon="3.50612">
        <ele>74.1</ele>
        <time>2022-08-07T05:57:03Z</time>
      </trkpt>
      <trkpt lat="43.65837" lon="3.5061">
        <ele>75.4</ele>
        <time>2022-08-07T05:57:13Z</time>
      </trkpt>
      <trkpt lat="43.65884" lon="3.50615">
        <ele>76.5</ele>
        <time>2022-08-07T05:57:23Z</time>
      </trkpt>
      <trkpt lat="43.65928" lon="3.50604">
        <ele>77</ele>
        <time>2022-08-07T05:57:33Z</time>
      </trkpt>
      <trkpt lat="43.65937" lon="3.50534">
        <ele>75.3</ele>
        <time>2022-08-07T05:57:43Z</time>
      </trkpt>
      <trkpt lat="43.6598" lon="3.50493">
        <ele>75.5</ele>
        <time>2022-08-07T05:57:53Z</time>
      </trkpt>
      <trkpt lat="43.66017" lon="3.50529">
        <ele>77</ele>
        <time>2022-08-07T05:58:03Z</time>
      </trkpt>
      <trkpt lat="43.6602" lon="3.50586">
        <ele>78.1</ele>
        <time>2022-08-07T05:58:13Z</time>
      </trkpt>
      <trkpt lat="43.66033" lon="3.50637">
        <ele>79.3</ele>
        <time>2022-08-07T05:58:23Z</time>
      </trkpt>
      <trkpt lat="43.6607" lon="3.50649">
        <ele>79.6</ele>
        <time>2022-08-07T05:58:33Z</time>
      </trkpt>
      <trkpt lat="43.6609" lon="3.50655">
        <ele>79.8</ele>
        <time>2022-08-07T05:58:43Z</time>
      </trkpt>
      <trkpt lat="43.66126" lon="3.50667">
        <ele>80.5</ele>
        <time>2022-08-07T05:59:03Z</time>
      </trkpt>
      <trkpt lat="43.66171" lon="3.50673">
        <ele>81.2</ele>
        <time>2022-08-07T05:59:13Z</time>
      </trkpt>
      <trkpt lat="43.66217" lon="3.50668">
        <ele>82.8</ele>
        <time>2022-08-07T05:59:23Z</time>
      </trkpt>
      <trkpt lat="43.66265" lon="3.50677">
        <ele>84</ele>
        <time>2022-08-07T05:59:33Z</time>
      </trkpt>
      <trkpt lat="43.66306" lon="3.50709">
        <ele>84.3</ele>
        <time>2022-08-07T05:59:43Z</time>
      </trkpt>
      <trkpt lat="43.66345" lon="3.50737">
        <ele>85</ele>
        <time>2022-08-07T05:59:53Z</time>
      </trkpt>
      <trkpt lat="43.66393" lon="3.50758">
        <ele>85.7</ele>
        <time>2022-08-07T06:00:03Z</time>
      </trkpt>
      <trkpt lat="43.66442" lon="3.5077">
        <ele>85.4</ele>
        <time>2022-08-07T06:00:13Z</time>
      </trkpt>
      <trkpt lat="43.66479" lon="3.50732">
        <ele>85.5</ele>
        <time>2022-08-07T06:00:23Z</time>
      </trkpt>
      <trkpt lat="43.66519" lon="3.50693">
        <ele>86.4</ele>
        <time>2022-08-07T06:00:33Z</time>
      </trkpt>
      <trkpt lat="43.66563" lon="3.50666">
        <ele>87</ele>
        <time>2022-08-07T06:00:43Z</time>
      </trkpt>
      <trkpt lat="43.66609" lon="3.50655">
        <ele>87.4</ele>
        <time>2022-08-07T06:00:53Z</time>
      </trkpt>
      <trkpt lat="43.66652" lon="3.50649">
        <ele>87.9</ele>
        <time>2022-08-07T06:01:03Z</time>
      </trkpt>
      <trkpt lat="43.6669" lon="3.50627">
        <ele>88.8</ele>
        <time>2022-08-07T06:01:13Z</time>
      </trkpt>
      <trkpt lat="43.66725" lon="3.50588">
        <ele>90.1</ele>
        <time>2022-08-07T06:01:23Z</time>
      </trkpt>
      <trkpt lat="43.66768" lon="3.5059">
        <ele>91.4</ele>
        <time>2022-08-07T06:01:33Z</time>
      </trkpt>
      <trkpt lat="43.66811" lon="3.506">
        <ele>92.2</ele>
        <time>2022-08-07T06:01:43Z</time>
      </trkpt>
      <trkpt lat="43.6685" lon="3.50615">
        <ele>92.5</ele>
        <time>2022-08-07T06:01:53Z</time>
      </trkpt>
      <trkpt lat="43.66888" lon="3.50597">
        <ele>93.4</ele>
        <time>2022-08-07T06:02:13Z</time>
      </trkpt>
      <trkpt lat="43.66934" lon="3.50571">
        <ele>94.1</ele>
        <time>2022-08-07T06:02:33Z</time>
      </trkpt>
      <trkpt lat="43.66977" lon="3.50549">
        <ele>94.6</ele>
        <time>2022-08-07T06:02:43Z</time>
      </trkpt>
      <trkpt lat="43.6702" lon="3.50538">
        <ele>95</ele>
        <time>2022-08-07T06:02:53Z</time>
      </trkpt>
      <trkpt lat="43.67064" lon="3.50509">
        <ele>95.7</ele>
        <time>2022-08-07T06:03:03Z</time>
      </trkpt>
      <trkpt lat="43.67105" lon="3.50476">
        <ele>96.8</ele>
        <time>2022-08-07T06:03:13Z</time>
      </trkpt>
      <trkpt lat="43.67148" lon="3.50474">
        <ele>97.4</ele>
        <time>2022-08-07T06:03:23Z</time>
      </trkpt>
      <trkpt lat="43.67196" lon="3.50453">
        <ele>98.1</ele>
        <time>2022-08-07T06:03:33Z</time>
      </trkpt>
      <trkpt lat="43.67241" lon="3.50423">
        <ele>98.8</ele>
        <time>2022-08-07T06:03:43Z</time>
      </trkpt>
      <trkpt lat="43.6727" lon="3.50389">
        <ele>98.8</ele>
        <time>2022-08-07T06:03:53Z</time>
      </trkpt>
      <trkpt lat="43.67283" lon="3.50337">
        <ele>98.8</ele>
        <time>2022-08-07T06:04:03Z</time>
      </trkpt>
      <trkpt lat="43.67247" lon="3.5032">
        <ele>98.3</ele>
        <time>2022-08-07T06:04:13Z</time>
      </trkpt>
      <trkpt lat="43.67204" lon="3.50294">
        <ele>97.6</ele>
        <time>2022-08-07T06:04:23Z</time>
      </trkpt>
      <trkpt lat="43.67157" lon="3.50267">
        <ele>96.1</ele>
        <time>2022-08-07T06:04:33Z</time>
      </trkpt>
      <trkpt lat="43.67116" lon="3.50225">
        <ele>95.6</ele>
        <time>2022-08-07T06:04:43Z</time>
      </trkpt>
      <trkpt lat="43.67104" lon="3.50184">
        <ele>95.8</ele>
        <time>2022-08-07T06:04:53Z</time>
      </trkpt>
      <trkpt lat="43.6715" lon="3.50179">
        <ele>96</ele>
        <time>2022-08-07T06:05:03Z</time>
      </trkpt>
      <trkpt lat="43.67197" lon="3.50172">
        <ele>97.1</ele>
        <time>2022-08-07T06:05:13Z</time>
      </trkpt>
      <trkpt lat="43.67238" lon="3.50158">
        <ele>98.8</ele>
        <time>2022-08-07T06:05:23Z</time>
      </trkpt>
      <trkpt lat="43.67271" lon="3.50127">
        <ele>100.3</ele>
        <time>2022-08-07T06:05:33Z</time>
      </trkpt>
      <trkpt lat="43.67306" lon="3.50094">
        <ele>101.5</ele>
        <time>2022-08-07T06:05:43Z</time>
      </trkpt>
      <trkpt lat="43.67341" lon="3.50061">
        <ele>101.5</ele>
        <time>2022-08-07T06:05:53Z</time>
      </trkpt>
      <trkpt lat="43.67363" lon="3.50079">
        <ele>102</ele>
        <time>2022-08-07T06:06:03Z</time>
      </trkpt>
      <trkpt lat="43.67383" lon="3.5012">
        <ele>101.8</ele>
        <time>2022-08-07T06:06:13Z</time>
      </trkpt>
      <trkpt lat="43.67415" lon="3.5011">
        <ele>102</ele>
        <time>2022-08-07T06:06:23Z</time>
      </trkpt>
      <trkpt lat="43.67453" lon="3.50083">
        <ele>102.9</ele>
        <time>2022-08-07T06:06:33Z</time>
      </trkpt>
      <trkpt lat="43.67488" lon="3.50052">
        <ele>104.4</ele>
        <time>2022-08-07T06:06:43Z</time>
      </trkpt>
      <trkpt lat="43.67524" lon="3.50015">
        <ele>106.2</ele>
        <time>2022-08-07T06:06:53Z</time>
      </trkpt>
      <trkpt lat="43.67558" lon="3.4998">
        <ele>107.7</ele>
        <time>2022-08-07T06:07:03Z</time>
      </trkpt>
      <trkpt lat="43.67591" lon="3.49944">
        <ele>108.7</ele>
        <time>2022-08-07T06:07:13Z</time>
      </trkpt>
      <trkpt lat="43.67627" lon="3.49927">
        <ele>109.3</ele>
        <time>2022-08-07T06:07:23Z</time>
      </trkpt>
      <trkpt lat="43.67661" lon="3.49893">
        <ele>109.9</ele>
        <time>2022-08-07T06:07:33Z</time>
      </trkpt>
      <trkpt lat="43.67699" lon="3.49884">
        <ele>110.4</ele>
        <time>2022-08-07T06:07:43Z</time>
      </trkpt>
      <trkpt lat="43.67742" lon="3.49873">
        <ele>110.9</ele>
        <time>2022-08-07T06:07:53Z</time>
      </trkpt>
      <trkpt lat="43.67775" lon="3.49835">
        <ele>111</ele>
        <time>2022-08-07T06:08:03Z</time>
      </trkpt>
      <trkpt lat="43.6778" lon="3.49785">
        <ele>110.6</ele>
        <time>2022-08-07T06:08:13Z</time>
      </trkpt>
      <trkpt lat="43.6777" lon="3.49723">
        <ele>110.9</ele>
        <time>2022-08-07T06:08:23Z</time>
      </trkpt>
      <trkpt lat="43.6776" lon="3.49656">
        <ele>112.1</ele>
        <time>2022-08-07T06:08:33Z</time>
      </trkpt>
      <trkpt lat="43.67749" lon="3.49588">
        <ele>112</ele>
        <time>2022-08-07T06:08:43Z</time>
      </trkpt>
      <trkpt lat="43.67729" lon="3.49524">
        <ele>112.2</ele>
        <time>2022-08-07T06:08:53Z</time>
      </trkpt>
      <trkpt lat="43.67722" lon="3.49471">
        <ele>112.2</ele>
        <time>2022-08-07T06:09:03Z</time>
      </trkpt>
      <trkpt lat="43.67765" lon="3.49478">
        <ele>113.4</ele>
        <time>2022-08-07T06:09:13Z</time>
      </trkpt>
      <trkpt lat="43.67812" lon="3.49486">
        <ele>114.6</ele>
        <time>2022-08-07T06:09:23Z</time>
      </trkpt>
      <trkpt lat="43.6786" lon="3.49488">
        <ele>114.9</ele>
        <time>2022-08-07T06:09:33Z</time>
      </trkpt>
      <trkpt lat="43.67904" lon="3.49483">
        <ele>114.5</ele>
        <time>2022-08-07T06:09:43Z</time>
      </trkpt>
      <trkpt lat="43.67938" lon="3.49472">
        <ele>115</ele>
        <time>2022-08-07T06:11:03Z</time>
      </trkpt>
      <trkpt lat="43.67981" lon="3.49456">
        <ele>115.8</ele>
        <time>2022-08-07T06:11:23Z</time>
      </trkpt>
      <trkpt lat="43.68023" lon="3.4944">
        <ele>116.8</ele>
        <time>2022-08-07T06:11:33Z</time>
      </trkpt>
      <trkpt lat="43.68064" lon="3.49425">
        <ele>118.2</ele>
        <time>2022-08-07T06:11:43Z</time>
      </trkpt>
      <trkpt lat="43.68108" lon="3.49412">
        <ele>119</ele>
        <time>2022-08-07T06:11:53Z</time>
      </trkpt>
      <trkpt lat="43.68153" lon="3.49399">
        <ele>119</ele>
        <time>2022-08-07T06:12:03Z</time>
      </trkpt>
      <trkpt lat="43.68194" lon="3.4937">
        <ele>119.2</ele>
        <time>2022-08-07T06:12:13Z</time>
      </trkpt>
      <trkpt lat="43.68232" lon="3.49334">
        <ele>120.5</ele>
        <time>2022-08-07T06:12:23Z</time>
      </trkpt>
      <trkpt lat="43.6827" lon="3.49297">
        <ele>121.9</ele>
        <time>2022-08-07T06:12:33Z</time>
      </trkpt>
      <trkpt lat="43.68306" lon="3.49276">
        <ele>122.4</ele>
        <time>2022-08-07T06:12:43Z</time>
      </trkpt>
      <trkpt lat="43.68292" lon="3.49232">
        <ele>123.3</ele>
        <time>2022-08-07T06:12:53Z</time>
      </trkpt>
      <trkpt lat="43.68276" lon="3.49174">
        <ele>123.9</ele>
        <time>2022-08-07T06:13:03Z</time>
      </trkpt>
      <trkpt lat="43.68308" lon="3.49125">
        <ele>124.9</ele>
        <time>2022-08-07T06:13:13Z</time>
      </trkpt>
      <trkpt lat="43.6834" lon="3.49076">
        <ele>125.3</ele>
        <time>2022-08-07T06:13:23Z</time>
      </trkpt>
      <trkpt lat="43.68369" lon="3.49025">
        <ele>126.7</ele>
        <time>2022-08-07T06:13:33Z</time>
      </trkpt>
      <trkpt lat="43.68398" lon="3.48979">
        <ele>126.9</ele>
        <time>2022-08-07T06:13:43Z</time>
      </trkpt>
      <trkpt lat="43.68427" lon="3.48931">
        <ele>127.4</ele>
        <time>2022-08-07T06:13:53Z</time>
      </trkpt>
      <trkpt lat="43.68457" lon="3.48891">
        <ele>128.8</ele>
        <time>2022-08-07T06:14:03Z</time>
      </trkpt>
      <trkpt lat="43.68492" lon="3.48875">
        <ele>129.8</ele>
        <time>2022-08-07T06:14:13Z</time>
      </trkpt>
      <trkpt lat="43.6853" lon="3.48855">
        <ele>130.6</ele>
        <time>2022-08-07T06:14:23Z</time>
      </trkpt>
      <trkpt lat="43.68566" lon="3.48833">
        <ele>131.6</ele>
        <time>2022-08-07T06:14:33Z</time>
      </trkpt>
      <trkpt lat="43.686" lon="3.4881">
        <ele>132</ele>
        <time>2022-08-07T06:14:43Z</time>
      </trkpt>
      <trkpt lat="43.68635" lon="3.48785">
        <ele>132.5</ele>
        <time>2022-08-07T06:14:53Z</time>
      </trkpt>
      <trkpt lat="43.68671" lon="3.4876">
        <ele>133.6</ele>
        <time>2022-08-07T06:15:03Z</time>
      </trkpt>
      <trkpt lat="43.68703" lon="3.48728">
        <ele>133.9</ele>
        <time>2022-08-07T06:15:13Z</time>
      </trkpt>
      <trkpt lat="43.689" lon="3.48617">
        <ele>137.3</ele>
        <time>2022-08-07T06:19:03Z</time>
      </trkpt>
      <trkpt lat="43.68942" lon="3.48706">
        <ele>137.7</ele>
        <time>2022-08-07T06:19:13Z</time>
      </trkpt>
      <trkpt lat="43.68966" lon="3.48689">
        <ele>137.9</ele>
        <time>2022-08-07T06:19:23Z</time>
      </trkpt>
      <trkpt lat="43.69001" lon="3.48662">
        <ele>138.1</ele>
        <time>2022-08-07T06:19:33Z</time>
      </trkpt>
      <trkpt lat="43.69037" lon="3.48635">
        <ele>140.1</ele>
        <time>2022-08-07T06:19:43Z</time>
      </trkpt>
      <trkpt lat="43.69072" lon="3.48605">
        <ele>142.1</ele>
        <time>2022-08-07T06:19:53Z</time>
      </trkpt>
      <trkpt lat="43.69109" lon="3.48578">
        <ele>143.3</ele>
        <time>2022-08-07T06:20:03Z</time>
      </trkpt>
      <trkpt lat="43.69145" lon="3.48549">
        <ele>143.6</ele>
        <time>2022-08-07T06:20:13Z</time>
      </trkpt>
      <trkpt lat="43.69178" lon="3.4852">
        <ele>144.1</ele>
        <time>2022-08-07T06:20:23Z</time>
      </trkpt>
      <trkpt lat="43.6921" lon="3.48524">
        <ele>144.4</ele>
        <time>2022-08-07T06:20:33Z</time>
      </trkpt>
      <trkpt lat="43.69234" lon="3.48564">
        <ele>144.2</ele>
        <time>2022-08-07T06:20:43Z</time>
      </trkpt>
      <trkpt lat="43.69265" lon="3.48535">
        <ele>144.7</ele>
        <time>2022-08-07T06:20:53Z</time>
      </trkpt>
      <trkpt lat="43.693" lon="3.48509">
        <ele>146.4</ele>
        <time>2022-08-07T06:21:03Z</time>
      </trkpt>
      <trkpt lat="43.69341" lon="3.48497">
        <ele>147.9</ele>
        <time>2022-08-07T06:21:13Z</time>
      </trkpt>
      <trkpt lat="43.6938" lon="3.48476">
        <ele>147.7</ele>
        <time>2022-08-07T06:21:23Z</time>
      </trkpt>
      <trkpt lat="43.69418" lon="3.4845">
        <ele>148.4</ele>
        <time>2022-08-07T06:21:33Z</time>
      </trkpt>
      <trkpt lat="43.69457" lon="3.48424">
        <ele>150.6</ele>
        <time>2022-08-07T06:21:43Z</time>
      </trkpt>
      <trkpt lat="43.69498" lon="3.48404">
        <ele>152</ele>
        <time>2022-08-07T06:21:53Z</time>
      </trkpt>
      <trkpt lat="43.69539" lon="3.48382">
        <ele>152.4</ele>
        <time>2022-08-07T06:22:03Z</time>
      </trkpt>
      <trkpt lat="43.69579" lon="3.48364">
        <ele>153.2</ele>
        <time>2022-08-07T06:22:13Z</time>
      </trkpt>
      <trkpt lat="43.69621" lon="3.48348">
        <ele>154.2</ele>
        <time>2022-08-07T06:22:23Z</time>
      </trkpt>
      <trkpt lat="43.69661" lon="3.48328">
        <ele>155.9</ele>
        <time>2022-08-07T06:22:33Z</time>
      </trkpt>
      <trkpt lat="43.69699" lon="3.48299">
        <ele>156.8</ele>
        <time>2022-08-07T06:22:43Z</time>
      </trkpt>
      <trkpt lat="43.69738" lon="3.48266">
        <ele>157.7</ele>
        <time>2022-08-07T06:22:53Z</time>
      </trkpt>
      <trkpt lat="43.69779" lon="3.4823">
        <ele>158.9</ele>
        <time>2022-08-07T06:23:03Z</time>
      </trkpt>
      <trkpt lat="43.6982" lon="3.48202">
        <ele>159.8</ele>
        <time>2022-08-07T06:23:13Z</time>
      </trkpt>
      <trkpt lat="43.69859" lon="3.48174">
        <ele>160.3</ele>
        <time>2022-08-07T06:23:23Z</time>
      </trkpt>
      <trkpt lat="43.69896" lon="3.48143">
        <ele>161.7</ele>
        <time>2022-08-07T06:23:33Z</time>
      </trkpt>
      <trkpt lat="43.69932" lon="3.48125">
        <ele>163.1</ele>
        <time>2022-08-07T06:23:43Z</time>
      </trkpt>
      <trkpt lat="43.69966" lon="3.48113">
        <ele>163.8</ele>
        <time>2022-08-07T06:23:53Z</time>
      </trkpt>
      <trkpt lat="43.69998" lon="3.481">
        <ele>164.4</ele>
        <time>2022-08-07T06:24:03Z</time>
      </trkpt>
      <trkpt lat="43.7003" lon="3.48084">
        <ele>166.1</ele>
        <time>2022-08-07T06:24:13Z</time>
      </trkpt>
      <trkpt lat="43.70062" lon="3.48067">
        <ele>167.3</ele>
        <time>2022-08-07T06:24:23Z</time>
      </trkpt>
      <trkpt lat="43.70096" lon="3.48052">
        <ele>168.6</ele>
        <time>2022-08-07T06:24:33Z</time>
      </trkpt>
      <trkpt lat="43.7013" lon="3.48047">
        <ele>170.2</ele>
        <time>2022-08-07T06:24:43Z</time>
      </trkpt>
      <trkpt lat="43.70164" lon="3.48033">
        <ele>172.1</ele>
        <time>2022-08-07T06:24:53Z</time>
      </trkpt>
      <trkpt lat="43.70198" lon="3.48017">
        <ele>173.4</ele>
        <time>2022-08-07T06:25:03Z</time>
      </trkpt>
      <trkpt lat="43.70232" lon="3.48">
        <ele>174.6</ele>
        <time>2022-08-07T06:25:13Z</time>
      </trkpt>
      <trkpt lat="43.70264" lon="3.47994">
        <ele>175.3</ele>
        <time>2022-08-07T06:25:23Z</time>
      </trkpt>
      <trkpt lat="43.7027" lon="3.48053">
        <ele>175</ele>
        <time>2022-08-07T06:25:33Z</time>
      </trkpt>
      <trkpt lat="43.70332" lon="3.48057">
        <ele>177</ele>
        <time>2022-08-07T06:25:43Z</time>
      </trkpt>
      <trkpt lat="43.70395" lon="3.48035">
        <ele>171.7</ele>
        <time>2022-08-07T06:25:53Z</time>
      </trkpt>
      <trkpt lat="43.70464" lon="3.48107">
        <ele>162.6</ele>
        <time>2022-08-07T06:26:03Z</time>
      </trkpt>
      <trkpt lat="43.70506" lon="3.48176">
        <ele>161.6</ele>
        <time>2022-08-07T06:26:13Z</time>
      </trkpt>
      <trkpt lat="43.70539" lon="3.48207">
        <ele>165.4</ele>
        <time>2022-08-07T06:26:23Z</time>
      </trkpt>
      <trkpt lat="43.70517" lon="3.4822">
        <ele>164.4</ele>
        <time>2022-08-07T06:26:33Z</time>
      </trkpt>
      <trkpt lat="43.70492" lon="3.48222">
        <ele>162.6</ele>
        <time>2022-08-07T06:26:43Z</time>
      </trkpt>
      <trkpt lat="43.70515" lon="3.4823">
        <ele>164.8</ele>
        <time>2022-08-07T06:26:53Z</time>
      </trkpt>
      <trkpt lat="43.70528" lon="3.48249">
        <ele>167.3</ele>
        <time>2022-08-07T06:27:03Z</time>
      </trkpt>
      <trkpt lat="43.7054" lon="3.48261">
        <ele>169.5</ele>
        <time>2022-08-07T06:27:13Z</time>
      </trkpt>
      <trkpt lat="43.70552" lon="3.48272">
        <ele>171.4</ele>
        <time>2022-08-07T06:27:23Z</time>
      </trkpt>
      <trkpt lat="43.70563" lon="3.48282">
        <ele>173.1</ele>
        <time>2022-08-07T06:27:33Z</time>
      </trkpt>
      <trkpt lat="43.70575" lon="3.48294">
        <ele>174.8</ele>
        <time>2022-08-07T06:27:43Z</time>
      </trkpt>
      <trkpt lat="43.70583" lon="3.48313">
        <ele>176.2</ele>
        <time>2022-08-07T06:27:53Z</time>
      </trkpt>
      <trkpt lat="43.70592" lon="3.48331">
        <ele>177.5</ele>
        <time>2022-08-07T06:28:03Z</time>
      </trkpt>
      <trkpt lat="43.70608" lon="3.48343">
        <ele>179.2</ele>
        <time>2022-08-07T06:28:13Z</time>
      </trkpt>
      <trkpt lat="43.70623" lon="3.48356">
        <ele>180.8</ele>
        <time>2022-08-07T06:28:23Z</time>
      </trkpt>
      <trkpt lat="43.70638" lon="3.48373">
        <ele>182.5</ele>
        <time>2022-08-07T06:28:33Z</time>
      </trkpt>
      <trkpt lat="43.70654" lon="3.48394">
        <ele>184.4</ele>
        <time>2022-08-07T06:28:43Z</time>
      </trkpt>
      <trkpt lat="43.7067" lon="3.48416">
        <ele>186</ele>
        <time>2022-08-07T06:28:53Z</time>
      </trkpt>
      <trkpt lat="43.70691" lon="3.48416">
        <ele>186.3</ele>
        <time>2022-08-07T06:29:03Z</time>
      </trkpt>
      <trkpt lat="43.70716" lon="3.48424">
        <ele>186.7</ele>
        <time>2022-08-07T06:29:13Z</time>
      </trkpt>
      <trkpt lat="43.70743" lon="3.48435">
        <ele>187.1</ele>
        <time>2022-08-07T06:29:23Z</time>
      </trkpt>
      <trkpt lat="43.70769" lon="3.48436">
        <ele>188.3</ele>
        <time>2022-08-07T06:29:33Z</time>
      </trkpt>
      <trkpt lat="43.70794" lon="3.48436">
        <ele>189.6</ele>
        <time>2022-08-07T06:29:43Z</time>
      </trkpt>
      <trkpt lat="43.70817" lon="3.48436">
        <ele>190.9</ele>
        <time>2022-08-07T06:29:53Z</time>
      </trkpt>
      <trkpt lat="43.70839" lon="3.48437">
        <ele>192.1</ele>
        <time>2022-08-07T06:30:03Z</time>
      </trkpt>
      <trkpt lat="43.7086" lon="3.4844">
        <ele>193.6</ele>
        <time>2022-08-07T06:30:13Z</time>
      </trkpt>
      <trkpt lat="43.70879" lon="3.48445">
        <ele>194.8</ele>
        <time>2022-08-07T06:30:23Z</time>
      </trkpt>
      <trkpt lat="43.70895" lon="3.48453">
        <ele>195.7</ele>
        <time>2022-08-07T06:30:33Z</time>
      </trkpt>
      <trkpt lat="43.70911" lon="3.4846">
        <ele>196.6</ele>
        <time>2022-08-07T06:30:43Z</time>
      </trkpt>
      <trkpt lat="43.70925" lon="3.48464">
        <ele>197.7</ele>
        <time>2022-08-07T06:30:53Z</time>
      </trkpt>
      <trkpt lat="43.70938" lon="3.48467">
        <ele>199</ele>
        <time>2022-08-07T06:31:03Z</time>
      </trkpt>
      <trkpt lat="43.7095" lon="3.48468">
        <ele>200.2</ele>
        <time>2022-08-07T06:31:13Z</time>
      </trkpt>
      <trkpt lat="43.70962" lon="3.48471">
        <ele>201.4</ele>
        <time>2022-08-07T06:31:23Z</time>
      </trkpt>
      <trkpt lat="43.70972" lon="3.48477">
        <ele>202.3</ele>
        <time>2022-08-07T06:31:33Z</time>
      </trkpt>
      <trkpt lat="43.70983" lon="3.48477">
        <ele>203.5</ele>
        <time>2022-08-07T06:31:43Z</time>
      </trkpt>
      <trkpt lat="43.70992" lon="3.48473">
        <ele>204.5</ele>
        <time>2022-08-07T06:31:53Z</time>
      </trkpt>
      <trkpt lat="43.70996" lon="3.48457">
        <ele>205.1</ele>
        <time>2022-08-07T06:32:03Z</time>
      </trkpt>
      <trkpt lat="43.71005" lon="3.48446">
        <ele>206.7</ele>
        <time>2022-08-07T06:32:13Z</time>
      </trkpt>
      <trkpt lat="43.71017" lon="3.48444">
        <ele>209.2</ele>
        <time>2022-08-07T06:32:23Z</time>
      </trkpt>
      <trkpt lat="43.71028" lon="3.48442">
        <ele>211.5</ele>
        <time>2022-08-07T06:32:33Z</time>
      </trkpt>
      <trkpt lat="43.71037" lon="3.48446">
        <ele>213.4</ele>
        <time>2022-08-07T06:32:43Z</time>
      </trkpt>
      <trkpt lat="43.71042" lon="3.48461">
        <ele>214.3</ele>
        <time>2022-08-07T06:32:53Z</time>
      </trkpt>
      <trkpt lat="43.71049" lon="3.48475">
        <ele>215.7</ele>
        <time>2022-08-07T06:33:03Z</time>
      </trkpt>
      <trkpt lat="43.71059" lon="3.4848">
        <ele>217.8</ele>
        <time>2022-08-07T06:33:13Z</time>
      </trkpt>
      <trkpt lat="43.71067" lon="3.48476">
        <ele>219.5</ele>
        <time>2022-08-07T06:33:23Z</time>
      </trkpt>
      <trkpt lat="43.71091" lon="3.48491">
        <ele>225.1</ele>
        <time>2022-08-07T06:33:43Z</time>
      </trkpt>
      <trkpt lat="43.71093" lon="3.48455">
        <ele>225.7</ele>
        <time>2022-08-07T06:34:13Z</time>
      </trkpt>
      <trkpt lat="43.71092" lon="3.48434">
        <ele>225.5</ele>
        <time>2022-08-07T06:34:33Z</time>
      </trkpt>
      <trkpt lat="43.71092" lon="3.48418">
        <ele>225.5</ele>
        <time>2022-08-07T06:34:43Z</time>
      </trkpt>
      <trkpt lat="43.71094" lon="3.48394">
        <ele>226.3</ele>
        <time>2022-08-07T06:35:03Z</time>
      </trkpt>
      <trkpt lat="43.71097" lon="3.48369">
        <ele>227.5</ele>
        <time>2022-08-07T06:35:13Z</time>
      </trkpt>
      <trkpt lat="43.71101" lon="3.48348">
        <ele>228.9</ele>
        <time>2022-08-07T06:35:23Z</time>
      </trkpt>
      <trkpt lat="43.71101" lon="3.48327">
        <ele>229.2</ele>
        <time>2022-08-07T06:35:33Z</time>
      </trkpt>
      <trkpt lat="43.711" lon="3.48308">
        <ele>229.3</ele>
        <time>2022-08-07T06:35:43Z</time>
      </trkpt>
      <trkpt lat="43.71097" lon="3.48276">
        <ele>229.2</ele>
        <time>2022-08-07T06:35:53Z</time>
      </trkpt>
      <trkpt lat="43.71095" lon="3.4823">
        <ele>229.2</ele>
        <time>2022-08-07T06:36:13Z</time>
      </trkpt>
      <trkpt lat="43.71096" lon="3.48155">
        <ele>229.1</ele>
        <time>2022-08-07T06:36:23Z</time>
      </trkpt>
      <trkpt lat="43.7108" lon="3.48065">
        <ele>222.6</ele>
        <time>2022-08-07T06:36:33Z</time>
      </trkpt>
      <trkpt lat="43.71074" lon="3.47981">
        <ele>217.3</ele>
        <time>2022-08-07T06:36:43Z</time>
      </trkpt>
      <trkpt lat="43.71088" lon="3.47905">
        <ele>216.1</ele>
        <time>2022-08-07T06:36:53Z</time>
      </trkpt>
      <trkpt lat="43.71098" lon="3.47844">
        <ele>212.3</ele>
        <time>2022-08-07T06:37:03Z</time>
      </trkpt>
      <trkpt lat="43.71113" lon="3.47799">
        <ele>211.8</ele>
        <time>2022-08-07T06:37:13Z</time>
      </trkpt>
      <trkpt lat="43.71149" lon="3.4776">
        <ele>219.2</ele>
        <time>2022-08-07T06:37:23Z</time>
      </trkpt>
      <trkpt lat="43.71161" lon="3.47699">
        <ele>214.3</ele>
        <time>2022-08-07T06:37:33Z</time>
      </trkpt>
      <trkpt lat="43.71195" lon="3.47663">
        <ele>217.9</ele>
        <time>2022-08-07T06:37:43Z</time>
      </trkpt>
      <trkpt lat="43.71228" lon="3.47622">
        <ele>219.8</ele>
        <time>2022-08-07T06:37:53Z</time>
      </trkpt>
      <trkpt lat="43.71265" lon="3.47589">
        <ele>219.2</ele>
        <time>2022-08-07T06:38:03Z</time>
      </trkpt>
      <trkpt lat="43.71297" lon="3.47552">
        <ele>222.1</ele>
        <time>2022-08-07T06:38:13Z</time>
      </trkpt>
      <trkpt lat="43.71333" lon="3.47529">
        <ele>223.9</ele>
        <time>2022-08-07T06:38:23Z</time>
      </trkpt>
      <trkpt lat="43.71365" lon="3.47505">
        <ele>223.4</ele>
        <time>2022-08-07T06:38:33Z</time>
      </trkpt>
      <trkpt lat="43.71377" lon="3.47486">
        <ele>223.4</ele>
        <time>2022-08-07T06:40:53Z</time>
      </trkpt>
      <trkpt lat="43.71412" lon="3.47448">
        <ele>223.8</ele>
        <time>2022-08-07T06:41:13Z</time>
      </trkpt>
      <trkpt lat="43.71454" lon="3.47419">
        <ele>226.3</ele>
        <time>2022-08-07T06:41:23Z</time>
      </trkpt>
      <trkpt lat="43.71448" lon="3.47376">
        <ele>226.2</ele>
        <time>2022-08-07T06:41:33Z</time>
      </trkpt>
      <trkpt lat="43.71443" lon="3.47347">
        <ele>226.9</ele>
        <time>2022-08-07T06:41:43Z</time>
      </trkpt>
      <trkpt lat="43.71457" lon="3.47328">
        <ele>228.4</ele>
        <time>2022-08-07T06:41:53Z</time>
      </trkpt>
      <trkpt lat="43.71473" lon="3.47313">
        <ele>230.2</ele>
        <time>2022-08-07T06:42:03Z</time>
      </trkpt>
      <trkpt lat="43.71491" lon="3.47296">
        <ele>230.7</ele>
        <time>2022-08-07T06:42:13Z</time>
      </trkpt>
      <trkpt lat="43.71506" lon="3.47278">
        <ele>231.5</ele>
        <time>2022-08-07T06:42:23Z</time>
      </trkpt>
      <trkpt lat="43.7152" lon="3.47258">
        <ele>233.6</ele>
        <time>2022-08-07T06:42:33Z</time>
      </trkpt>
      <trkpt lat="43.71536" lon="3.47232">
        <ele>236.1</ele>
        <time>2022-08-07T06:42:43Z</time>
      </trkpt>
      <trkpt lat="43.7156" lon="3.47214">
        <ele>236.7</ele>
        <time>2022-08-07T06:42:53Z</time>
      </trkpt>
      <trkpt lat="43.71582" lon="3.472">
        <ele>235.5</ele>
        <time>2022-08-07T06:43:03Z</time>
      </trkpt>
      <trkpt lat="43.71602" lon="3.47194">
        <ele>237.8</ele>
        <time>2022-08-07T06:43:13Z</time>
      </trkpt>
      <trkpt lat="43.71626" lon="3.47189">
        <ele>240.6</ele>
        <time>2022-08-07T06:43:23Z</time>
      </trkpt>
      <trkpt lat="43.71647" lon="3.47189">
        <ele>243.6</ele>
        <time>2022-08-07T06:43:33Z</time>
      </trkpt>
      <trkpt lat="43.71661" lon="3.47166">
        <ele>240.4</ele>
        <time>2022-08-07T06:43:43Z</time>
      </trkpt>
      <trkpt lat="43.71672" lon="3.47135">
        <ele>239.4</ele>
        <time>2022-08-07T06:43:53Z</time>
      </trkpt>
      <trkpt lat="43.71692" lon="3.4711">
        <ele>239.7</ele>
        <time>2022-08-07T06:44:03Z</time>
      </trkpt>
      <trkpt lat="43.71719" lon="3.47083">
        <ele>240.1</ele>
        <time>2022-08-07T06:44:13Z</time>
      </trkpt>
      <trkpt lat="43.71741" lon="3.47061">
        <ele>242.9</ele>
        <time>2022-08-07T06:44:23Z</time>
      </trkpt>
      <trkpt lat="43.71761" lon="3.47039">
        <ele>245.2</ele>
        <time>2022-08-07T06:44:33Z</time>
      </trkpt>
      <trkpt lat="43.7178" lon="3.47022">
        <ele>247</ele>
        <time>2022-08-07T06:44:43Z</time>
      </trkpt>
      <trkpt lat="43.71795" lon="3.47006">
        <ele>246.8</ele>
        <time>2022-08-07T06:44:53Z</time>
      </trkpt>
      <trkpt lat="43.71808" lon="3.46994">
        <ele>247.1</ele>
        <time>2022-08-07T06:45:03Z</time>
      </trkpt>
      <trkpt lat="43.71821" lon="3.46983">
        <ele>247.8</ele>
        <time>2022-08-07T06:45:13Z</time>
      </trkpt>
      <trkpt lat="43.71833" lon="3.46971">
        <ele>247.7</ele>
        <time>2022-08-07T06:45:23Z</time>
      </trkpt>
      <trkpt lat="43.71841" lon="3.46957">
        <ele>249.4</ele>
        <time>2022-08-07T06:45:33Z</time>
      </trkpt>
      <trkpt lat="43.71847" lon="3.46938">
        <ele>250.3</ele>
        <time>2022-08-07T06:45:43Z</time>
      </trkpt>
      <trkpt lat="43.71852" lon="3.46916">
        <ele>250.6</ele>
        <time>2022-08-07T06:45:53Z</time>
      </trkpt>
      <trkpt lat="43.71864" lon="3.46901">
        <ele>253.4</ele>
        <time>2022-08-07T06:46:03Z</time>
      </trkpt>
      <trkpt lat="43.7188" lon="3.46888">
        <ele>255.5</ele>
        <time>2022-08-07T06:46:13Z</time>
      </trkpt>
      <trkpt lat="43.71896" lon="3.46877">
        <ele>256.6</ele>
        <time>2022-08-07T06:46:23Z</time>
      </trkpt>
      <trkpt lat="43.71913" lon="3.46868">
        <ele>257</ele>
        <time>2022-08-07T06:46:33Z</time>
      </trkpt>
      <trkpt lat="43.7193" lon="3.46859">
        <ele>259.3</ele>
        <time>2022-08-07T06:46:43Z</time>
      </trkpt>
      <trkpt lat="43.71948" lon="3.46848">
        <ele>261.9</ele>
        <time>2022-08-07T06:46:53Z</time>
      </trkpt>
      <trkpt lat="43.71965" lon="3.46836">
        <ele>263.4</ele>
        <time>2022-08-07T06:47:03Z</time>
      </trkpt>
      <trkpt lat="43.71978" lon="3.46816">
        <ele>262.5</ele>
        <time>2022-08-07T06:47:13Z</time>
      </trkpt>
      <trkpt lat="43.71986" lon="3.46793">
        <ele>259.5</ele>
        <time>2022-08-07T06:47:23Z</time>
      </trkpt>
      <trkpt lat="43.72" lon="3.46779">
        <ele>258.3</ele>
        <time>2022-08-07T06:47:33Z</time>
      </trkpt>
      <trkpt lat="43.72017" lon="3.46763">
        <ele>259.6</ele>
        <time>2022-08-07T06:47:43Z</time>
      </trkpt>
      <trkpt lat="43.72034" lon="3.46733">
        <ele>261.6</ele>
        <time>2022-08-07T06:47:53Z</time>
      </trkpt>
      <trkpt lat="43.72052" lon="3.46706">
        <ele>264</ele>
        <time>2022-08-07T06:48:03Z</time>
      </trkpt>
      <trkpt lat="43.72078" lon="3.46692">
        <ele>265.7</ele>
        <time>2022-08-07T06:48:13Z</time>
      </trkpt>
      <trkpt lat="43.72123" lon="3.46668">
        <ele>268.9</ele>
        <time>2022-08-07T06:48:23Z</time>
      </trkpt>
      <trkpt lat="43.7215" lon="3.46636">
        <ele>268</ele>
        <time>2022-08-07T06:48:33Z</time>
      </trkpt>
      <trkpt lat="43.72172" lon="3.46599">
        <ele>262.7</ele>
        <time>2022-08-07T06:48:43Z</time>
      </trkpt>
      <trkpt lat="43.72196" lon="3.46568">
        <ele>265.4</ele>
        <time>2022-08-07T06:48:53Z</time>
      </trkpt>
      <trkpt lat="43.72223" lon="3.46531">
        <ele>267.5</ele>
        <time>2022-08-07T06:49:03Z</time>
      </trkpt>
      <trkpt lat="43.72243" lon="3.46488">
        <ele>264.7</ele>
        <time>2022-08-07T06:49:13Z</time>
      </trkpt>
      <trkpt lat="43.72271" lon="3.4644">
        <ele>268.6</ele>
        <time>2022-08-07T06:49:23Z</time>
      </trkpt>
      <trkpt lat="43.72315" lon="3.46415">
        <ele>272.3</ele>
        <time>2022-08-07T06:49:33Z</time>
      </trkpt>
      <trkpt lat="43.72356" lon="3.46394">
        <ele>276.6</ele>
        <time>2022-08-07T06:49:43Z</time>
      </trkpt>
      <trkpt lat="43.72396" lon="3.46358">
        <ele>277.6</ele>
        <time>2022-08-07T06:49:53Z</time>
      </trkpt>
      <trkpt lat="43.72424" lon="3.4632">
        <ele>278</ele>
        <time>2022-08-07T06:50:03Z</time>
      </trkpt>
      <trkpt lat="43.72461" lon="3.46312">
        <ele>282</ele>
        <time>2022-08-07T06:50:13Z</time>
      </trkpt>
      <trkpt lat="43.72487" lon="3.4631">
        <ele>284</ele>
        <time>2022-08-07T06:50:23Z</time>
      </trkpt>
      <trkpt lat="43.72504" lon="3.46288">
        <ele>284.5</ele>
        <time>2022-08-07T06:50:33Z</time>
      </trkpt>
      <trkpt lat="43.72525" lon="3.46276">
        <ele>287</ele>
        <time>2022-08-07T06:50:43Z</time>
      </trkpt>
      <trkpt lat="43.72551" lon="3.46287">
        <ele>292.1</ele>
        <time>2022-08-07T06:50:53Z</time>
      </trkpt>
      <trkpt lat="43.72564" lon="3.46264">
        <ele>291.4</ele>
        <time>2022-08-07T06:51:03Z</time>
      </trkpt>
      <trkpt lat="43.72542" lon="3.46229">
        <ele>288.7</ele>
        <time>2022-08-07T06:51:13Z</time>
      </trkpt>
      <trkpt lat="43.72529" lon="3.46201">
        <ele>290.5</ele>
        <time>2022-08-07T06:51:23Z</time>
      </trkpt>
      <trkpt lat="43.7253" lon="3.46168">
        <ele>293.8</ele>
        <time>2022-08-07T06:51:33Z</time>
      </trkpt>
      <trkpt lat="43.72541" lon="3.46135">
        <ele>297.3</ele>
        <time>2022-08-07T06:51:43Z</time>
      </trkpt>
      <trkpt lat="43.72551" lon="3.4612">
        <ele>298.3</ele>
        <time>2022-08-07T06:51:53Z</time>
      </trkpt>
      <trkpt lat="43.7256" lon="3.46105">
        <ele>298.9</ele>
        <time>2022-08-07T06:52:03Z</time>
      </trkpt>
      <trkpt lat="43.72569" lon="3.46086">
        <ele>299.7</ele>
        <time>2022-08-07T06:52:13Z</time>
      </trkpt>
      <trkpt lat="43.72576" lon="3.46065">
        <ele>300.6</ele>
        <time>2022-08-07T06:52:23Z</time>
      </trkpt>
      <trkpt lat="43.72583" lon="3.46044">
        <ele>301.4</ele>
        <time>2022-08-07T06:52:33Z</time>
      </trkpt>
      <trkpt lat="43.72588" lon="3.46023">
        <ele>303.4</ele>
        <time>2022-08-07T06:52:43Z</time>
      </trkpt>
      <trkpt lat="43.72592" lon="3.46003">
        <ele>305.2</ele>
        <time>2022-08-07T06:52:53Z</time>
      </trkpt>
      <trkpt lat="43.72596" lon="3.45986">
        <ele>307</ele>
        <time>2022-08-07T06:53:03Z</time>
      </trkpt>
      <trkpt lat="43.72601" lon="3.45967">
        <ele>308.7</ele>
        <time>2022-08-07T06:53:13Z</time>
      </trkpt>
      <trkpt lat="43.72606" lon="3.45949">
        <ele>310</ele>
        <time>2022-08-07T06:53:23Z</time>
      </trkpt>
      <trkpt lat="43.7261" lon="3.45932">
        <ele>311</ele>
        <time>2022-08-07T06:53:33Z</time>
      </trkpt>
      <trkpt lat="43.72615" lon="3.45916">
        <ele>311.7</ele>
        <time>2022-08-07T06:53:43Z</time>
      </trkpt>
      <trkpt lat="43.72616" lon="3.45896">
        <ele>314</ele>
        <time>2022-08-07T06:54:23Z</time>
        <extensions>
          <gpxtpx:TrackPointExtension xmlns:gpxtpx="http://www.garmin.com/xmlschemas/TrackPointExtension/v1">
            <gpxtpx:hr>133</gpxtpx:hr>
          </gpxtpx:TrackPointExtension>
        </extensions>
      </trkpt>
      <trkpt lat="43.72622" lon="3.45871">
        <ele>315.8</ele>
        <time>2022-08-07T06:54:43Z</time>
        <extensions>
          <gpxtpx:TrackPointExtension xmlns:gpxtpx="http://www.garmin.com/xmlschemas/TrackPointExtension/v1">
            <gpxtpx:hr>129</gpxtpx:hr>
          </gpxtpx:TrackPointExtension>
        </extensions>
      </trkpt>
      <trkpt lat="43.72633" lon="3.45849">
        <ele>315.4</ele>
        <time>2022-08-07T06:54:53Z</time>
        <extensions>
          <gpxtpx:TrackPointExtension xmlns:gpxtpx="http://www.garmin.com/xmlschemas/TrackPointExtension/v1">
            <gpxtpx:hr>126</gpxtpx:hr>
          </gpxtpx:TrackPointExtension>
        </extensions>
      </trkpt>
      <trkpt lat="43.72645" lon="3.45834">
        <ele>313.2</ele>
        <time>2022-08-07T06:55:03Z</time>
        <extensions>
          <gpxtpx:TrackPointExtension xmlns:gpxtpx="http://www.garmin.com/xmlschemas/TrackPointExtension/v1">
            <gpxtpx:hr>124</gpxtpx:hr>
          </gpxtpx:TrackPointExtension>
        </extensions>
      </trkpt>
      <trkpt lat="43.72658" lon="3.45822">
        <ele>310</ele>
        <time>2022-08-07T06:55:13Z</time>
        <extensions>
          <gpxtpx:TrackPointExtension xmlns:gpxtpx="http://www.garmin.com/xmlschemas/TrackPointExtension/v1">
            <gpxtpx:hr>121</gpxtpx:hr>
          </gpxtpx:TrackPointExtension>
        </extensions>
      </trkpt>
      <trkpt lat="43.72668" lon="3.45808">
        <ele>308.2</ele>
        <time>2022-08-07T06:55:23Z</time>
        <extensions>
          <gpxtpx:TrackPointExtension xmlns:gpxtpx="http://www.garmin.com/xmlschemas/TrackPointExtension/v1">
            <gpxtpx:hr>113</gpxtpx:hr>
          </gpxtpx:TrackPointExtension>
        </extensions>
      </trkpt>
      <trkpt lat="43.72686" lon="3.45789">
        <ele>312.8</ele>
        <time>2022-08-07T06:55:33Z</time>
        <extensions>
          <gpxtpx:TrackPointExtension xmlns:gpxtpx="http://www.garmin.com/xmlschemas/TrackPointExtension/v1">
            <gpxtpx:hr>115</gpxtpx:hr>
          </gpxtpx:TrackPointExtension>
        </extensions>
      </trkpt>
      <trkpt lat="43.727" lon="3.45761">
        <ele>315.1</ele>
        <time>2022-08-07T06:55:43Z</time>
        <extensions>
          <gpxtpx:TrackPointExtension xmlns:gpxtpx="http://www.garmin.com/xmlschemas/TrackPointExtension/v1">
            <gpxtpx:hr>131</gpxtpx:hr>
          </gpxtpx:TrackPointExtension>
        </extensions>
      </trkpt>
      <trkpt lat="43.72704" lon="3.45725">
        <ele>315.8</ele>
        <time>2022-08-07T06:55:53Z</time>
        <extensions>
          <gpxtpx:TrackPointExtension xmlns:gpxtpx="http://www.garmin.com/xmlschemas/TrackPointExtension/v1">
            <gpxtpx:hr>136</gpxtpx:hr>
          </gpxtpx:TrackPointExtension>
        </extensions>
      </trkpt>
      <trkpt lat="43.72714" lon="3.45687">
        <ele>316.2</ele>
        <time>2022-08-07T06:56:03Z</time>
        <extensions>
          <gpxtpx:TrackPointExtension xmlns:gpxtpx="http://www.garmin.com/xmlschemas/TrackPointExtension/v1">
            <gpxtpx:hr>133</gpxtpx:hr>
          </gpxtpx:TrackPointExtension>
        </extensions>
      </trkpt>
      <trkpt lat="43.72726" lon="3.45668">
        <ele>315.1</ele>
        <time>2022-08-07T06:56:13Z</time>
        <extensions>
          <gpxtpx:TrackPointExtension xmlns:gpxtpx="http://www.garmin.com/xmlschemas/TrackPointExtension/v1">
            <gpxtpx:hr>131</gpxtpx:hr>
          </gpxtpx:TrackPointExtension>
        </extensions>
      </trkpt>
      <trkpt lat="43.72741" lon="3.45656">
        <ele>313.8</ele>
        <time>2022-08-07T06:56:23Z</time>
        <extensions>
          <gpxtpx:TrackPointExtension xmlns:gpxtpx="http://www.garmin.com/xmlschemas/TrackPointExtension/v1">
            <gpxtpx:hr>130</gpxtpx:hr>
          </gpxtpx:TrackPointExtension>
        </extensions>
      </trkpt>
      <trkpt lat="43.72759" lon="3.45639">
        <ele>316</ele>
        <time>2022-08-07T06:56:33Z</time>
        <extensions>
          <gpxtpx:TrackPointExtension xmlns:gpxtpx="http://www.garmin.com/xmlschemas/TrackPointExtension/v1">
            <gpxtpx:hr>123</gpxtpx:hr>
          </gpxtpx:TrackPointExtension>
        </extensions>
      </trkpt>
      <trkpt lat="43.72765" lon="3.45615">
        <ele>317.3</ele>
        <time>2022-08-07T06:56:43Z</time>
        <extensions>
          <gpxtpx:TrackPointExtension xmlns:gpxtpx="http://www.garmin.com/xmlschemas/TrackPointExtension/v1">
            <gpxtpx:hr>116</gpxtpx:hr>
          </gpxtpx:TrackPointExtension>
        </extensions>
      </trkpt>
      <trkpt lat="43.72772" lon="3.45594">
        <ele>318.5</ele>
        <time>2022-08-07T06:56:53Z</time>
        <extensions>
          <gpxtpx:TrackPointExtension xmlns:gpxtpx="http://www.garmin.com/xmlschemas/TrackPointExtension/v1">
            <gpxtpx:hr>104</gpxtpx:hr>
          </gpxtpx:TrackPointExtension>
        </extensions>
      </trkpt>
      <trkpt lat="43.72783" lon="3.45574">
        <ele>321.5</ele>
        <time>2022-08-07T06:57:03Z</time>
        <extensions>
          <gpxtpx:TrackPointExtension xmlns:gpxtpx="http://www.garmin.com/xmlschemas/TrackPointExtension/v1">
            <gpxtpx:hr>101</gpxtpx:hr>
          </gpxtpx:TrackPointExtension>
        </extensions>
      </trkpt>
      <trkpt lat="43.72789" lon="3.45564">
        <ele>323.4</ele>
        <time>2022-08-07T06:57:33Z</time>
        <extensions>
          <gpxtpx:TrackPointExtension xmlns:gpxtpx="http://www.garmin.com/xmlschemas/TrackPointExtension/v1">
            <gpxtpx:hr>122</gpxtpx:hr>
          </gpxtpx:TrackPointExtension>
        </extensions>
      </trkpt>
      <trkpt lat="43.72794" lon="3.45565">
        <ele>324.1</ele>
        <time>2022-08-07T06:57:53Z</time>
      </trkpt>
      <trkpt lat="43.72799" lon="3.45559">
        <ele>325</ele>
        <time>2022-08-07T06:58:03Z</time>
        <extensions>
          <gpxtpx:TrackPointExtension xmlns:gpxtpx="http://www.garmin.com/xmlschemas/TrackPointExtension/v1">
            <gpxtpx:hr>82</gpxtpx:hr>
          </gpxtpx:TrackPointExtension>
        </extensions>
      </trkpt>
      <trkpt lat="43.72804" lon="3.45553">
        <ele>325.8</ele>
        <time>2022-08-07T06:58:13Z</time>
        <extensions>
          <gpxtpx:TrackPointExtension xmlns:gpxtpx="http://www.garmin.com/xmlschemas/TrackPointExtension/v1">
            <gpxtpx:hr>65</gpxtpx:hr>
          </gpxtpx:TrackPointExtension>
        </extensions>
      </trkpt>
      <trkpt lat="43.72813" lon="3.45547">
        <ele>326.5</ele>
        <time>2022-08-07T06:58:23Z</time>
        <extensions>
          <gpxtpx:TrackPointExtension xmlns:gpxtpx="http://www.garmin.com/xmlschemas/TrackPointExtension/v1">
            <gpxtpx:hr>60</gpxtpx:hr>
          </gpxtpx:TrackPointExtension>
        </extensions>
      </trkpt>
      <trkpt lat="43.72821" lon="3.45542">
        <ele>326.9</ele>
        <time>2022-08-07T06:58:33Z</time>
        <extensions>
          <gpxtpx:TrackPointExtension xmlns:gpxtpx="http://www.garmin.com/xmlschemas/TrackPointExtension/v1">
            <gpxtpx:hr>63</gpxtpx:hr>
          </gpxtpx:TrackPointExtension>
        </extensions>
      </trkpt>
      <trkpt lat="43.72829" lon="3.45535">
        <ele>326.7</ele>
        <time>2022-08-07T06:58:43Z</time>
        <extensions>
          <gpxtpx:TrackPointExtension xmlns:gpxtpx="http://www.garmin.com/xmlschemas/TrackPointExtension/v1">
            <gpxtpx:hr>69</gpxtpx:hr>
          </gpxtpx:TrackPointExtension>
        </extensions>
      </trkpt>
      <trkpt lat="43.72845" lon="3.45523">
        <ele>328</ele>
        <time>2022-08-07T06:58:53Z</time>
        <extensions>
          <gpxtpx:TrackPointExtension xmlns:gpxtpx="http://www.garmin.com/xmlschemas/TrackPointExtension/v1">
            <gpxtpx:hr>88</gpxtpx:hr>
          </gpxtpx:TrackPointExtension>
        </extensions>
      </trkpt>
      <trkpt lat="43.7286" lon="3.45516">
        <ele>330.2</ele>
        <time>2022-08-07T06:59:13Z</time>
        <extensions>
          <gpxtpx:TrackPointExtension xmlns:gpxtpx="http://www.garmin.com/xmlschemas/TrackPointExtension/v1">
            <gpxtpx:hr>88</gpxtpx:hr>
          </gpxtpx:TrackPointExtension>
        </extensions>
      </trkpt>
      <trkpt lat="43.72874" lon="3.45512">
        <ele>332.4</ele>
        <time>2022-08-07T06:59:23Z</time>
        <extensions>
          <gpxtpx:TrackPointExtension xmlns:gpxtpx="http://www.garmin.com/xmlschemas/TrackPointExtension/v1">
            <gpxtpx:hr>87</gpxtpx:hr>
          </gpxtpx:TrackPointExtension>
        </extensions>
      </trkpt>
      <trkpt lat="43.72887" lon="3.45506">
        <ele>333.8</ele>
        <time>2022-08-07T06:59:33Z</time>
        <extensions>
          <gpxtpx:TrackPointExtension xmlns:gpxtpx="http://www.garmin.com/xmlschemas/TrackPointExtension/v1">
            <gpxtpx:hr>91</gpxtpx:hr>
          </gpxtpx:TrackPointExtension>
        </extensions>
      </trkpt>
      <trkpt lat="43.729" lon="3.45503">
        <ele>335.6</ele>
        <time>2022-08-07T06:59:43Z</time>
        <extensions>
          <gpxtpx:TrackPointExtension xmlns:gpxtpx="http://www.garmin.com/xmlschemas/TrackPointExtension/v1">
            <gpxtpx:hr>91</gpxtpx:hr>
          </gpxtpx:TrackPointExtension>
        </extensions>
      </trkpt>
      <trkpt lat="43.72915" lon="3.45507">
        <ele>339.4</ele>
        <time>2022-08-07T06:59:53Z</time>
        <extensions>
          <gpxtpx:TrackPointExtension xmlns:gpxtpx="http://www.garmin.com/xmlschemas/TrackPointExtension/v1">
            <gpxtpx:hr>89</gpxtpx:hr>
          </gpxtpx:TrackPointExtension>
        </extensions>
      </trkpt>
      <trkpt lat="43.72929" lon="3.45509">
        <ele>342.4</ele>
        <time>2022-08-07T07:00:03Z</time>
        <extensions>
          <gpxtpx:TrackPointExtension xmlns:gpxtpx="http://www.garmin.com/xmlschemas/TrackPointExtension/v1">
            <gpxtpx:hr>90</gpxtpx:hr>
          </gpxtpx:TrackPointExtension>
        </extensions>
      </trkpt>
      <trkpt lat="43.72942" lon="3.45515">
        <ele>346.2</ele>
        <time>2022-08-07T07:00:13Z</time>
        <extensions>
          <gpxtpx:TrackPointExtension xmlns:gpxtpx="http://www.garmin.com/xmlschemas/TrackPointExtension/v1">
            <gpxtpx:hr>94</gpxtpx:hr>
          </gpxtpx:TrackPointExtension>
        </extensions>
      </trkpt>
      <trkpt lat="43.72954" lon="3.45521">
        <ele>349.6</ele>
        <time>2022-08-07T07:00:23Z</time>
        <extensions>
          <gpxtpx:TrackPointExtension xmlns:gpxtpx="http://www.garmin.com/xmlschemas/TrackPointExtension/v1">
            <gpxtpx:hr>94</gpxtpx:hr>
          </gpxtpx:TrackPointExtension>
        </extensions>
      </trkpt>
      <trkpt lat="43.72964" lon="3.45527">
        <ele>352.6</ele>
        <time>2022-08-07T07:00:33Z</time>
        <extensions>
          <gpxtpx:TrackPointExtension xmlns:gpxtpx="http://www.garmin.com/xmlschemas/TrackPointExtension/v1">
            <gpxtpx:hr>90</gpxtpx:hr>
          </gpxtpx:TrackPointExtension>
        </extensions>
      </trkpt>
      <trkpt lat="43.72972" lon="3.45529">
        <ele>354.4</ele>
        <time>2022-08-07T07:00:53Z</time>
        <extensions>
          <gpxtpx:TrackPointExtension xmlns:gpxtpx="http://www.garmin.com/xmlschemas/TrackPointExtension/v1">
            <gpxtpx:hr>90</gpxtpx:hr>
          </gpxtpx:TrackPointExtension>
        </extensions>
      </trkpt>
      <trkpt lat="43.7298" lon="3.45533">
        <ele>356.6</ele>
        <time>2022-08-07T07:01:03Z</time>
        <extensions>
          <gpxtpx:TrackPointExtension xmlns:gpxtpx="http://www.garmin.com/xmlschemas/TrackPointExtension/v1">
            <gpxtpx:hr>80</gpxtpx:hr>
          </gpxtpx:TrackPointExtension>
        </extensions>
      </trkpt>
      <trkpt lat="43.72987" lon="3.45541">
        <ele>359.3</ele>
        <time>2022-08-07T07:01:13Z</time>
        <extensions>
          <gpxtpx:TrackPointExtension xmlns:gpxtpx="http://www.garmin.com/xmlschemas/TrackPointExtension/v1">
            <gpxtpx:hr>68</gpxtpx:hr>
          </gpxtpx:TrackPointExtension>
        </extensions>
      </trkpt>
      <trkpt lat="43.72993" lon="3.45547">
        <ele>361.4</ele>
        <time>2022-08-07T07:01:23Z</time>
        <extensions>
          <gpxtpx:TrackPointExtension xmlns:gpxtpx="http://www.garmin.com/xmlschemas/TrackPointExtension/v1">
            <gpxtpx:hr>55</gpxtpx:hr>
          </gpxtpx:TrackPointExtension>
        </extensions>
      </trkpt>
      <trkpt lat="43.72998" lon="3.45556">
        <ele>363.8</ele>
        <time>2022-08-07T07:01:33Z</time>
        <extensions>
          <gpxtpx:TrackPointExtension xmlns:gpxtpx="http://www.garmin.com/xmlschemas/TrackPointExtension/v1">
            <gpxtpx:hr>50</gpxtpx:hr>
          </gpxtpx:TrackPointExtension>
        </extensions>
      </trkpt>
      <trkpt lat="43.73001" lon="3.45566">
        <ele>365.9</ele>
        <time>2022-08-07T07:01:43Z</time>
        <extensions>
          <gpxtpx:TrackPointExtension xmlns:gpxtpx="http://www.garmin.com/xmlschemas/TrackPointExtension/v1">
            <gpxtpx:hr>50</gpxtpx:hr>
          </gpxtpx:TrackPointExtension>
        </extensions>
      </trkpt>
      <trkpt lat="43.73005" lon="3.45586">
        <ele>369.4</ele>
        <time>2022-08-07T07:02:23Z</time>
        <extensions>
          <gpxtpx:TrackPointExtension xmlns:gpxtpx="http://www.garmin.com/xmlschemas/TrackPointExtension/v1">
            <gpxtpx:hr>96</gpxtpx:hr>
          </gpxtpx:TrackPointExtension>
        </extensions>
      </trkpt>
      <trkpt lat="43.73016" lon="3.45606">
        <ele>371.5</ele>
        <time>2022-08-07T07:02:43Z</time>
        <extensions>
          <gpxtpx:TrackPointExtension xmlns:gpxtpx="http://www.garmin.com/xmlschemas/TrackPointExtension/v1">
            <gpxtpx:hr>98</gpxtpx:hr>
          </gpxtpx:TrackPointExtension>
        </extensions>
      </trkpt>
      <trkpt lat="43.7303" lon="3.45618">
        <ele>373.3</ele>
        <time>2022-08-07T07:02:53Z</time>
        <extensions>
          <gpxtpx:TrackPointExtension xmlns:gpxtpx="http://www.garmin.com/xmlschemas/TrackPointExtension/v1">
            <gpxtpx:hr>96</gpxtpx:hr>
          </gpxtpx:TrackPointExtension>
        </extensions>
      </trkpt>
      <trkpt lat="43.73046" lon="3.45628">
        <ele>375.4</ele>
        <time>2022-08-07T07:03:03Z</time>
        <extensions>
          <gpxtpx:TrackPointExtension xmlns:gpxtpx="http://www.garmin.com/xmlschemas/TrackPointExtension/v1">
            <gpxtpx:hr>94</gpxtpx:hr>
          </gpxtpx:TrackPointExtension>
        </extensions>
      </trkpt>
      <trkpt lat="43.73065" lon="3.45639">
        <ele>378</ele>
        <time>2022-08-07T07:03:13Z</time>
        <extensions>
          <gpxtpx:TrackPointExtension xmlns:gpxtpx="http://www.garmin.com/xmlschemas/TrackPointExtension/v1">
            <gpxtpx:hr>93</gpxtpx:hr>
          </gpxtpx:TrackPointExtension>
        </extensions>
      </trkpt>
      <trkpt lat="43.73086" lon="3.45651">
        <ele>381</ele>
        <time>2022-08-07T07:03:23Z</time>
        <extensions>
          <gpxtpx:TrackPointExtension xmlns:gpxtpx="http://www.garmin.com/xmlschemas/TrackPointExtension/v1">
            <gpxtpx:hr>94</gpxtpx:hr>
          </gpxtpx:TrackPointExtension>
        </extensions>
      </trkpt>
      <trkpt lat="43.73095" lon="3.45627">
        <ele>378.3</ele>
        <time>2022-08-07T07:03:33Z</time>
        <extensions>
          <gpxtpx:TrackPointExtension xmlns:gpxtpx="http://www.garmin.com/xmlschemas/TrackPointExtension/v1">
            <gpxtpx:hr>95</gpxtpx:hr>
          </gpxtpx:TrackPointExtension>
        </extensions>
      </trkpt>
      <trkpt lat="43.731" lon="3.45603">
        <ele>375.9</ele>
        <time>2022-08-07T07:03:43Z</time>
        <extensions>
          <gpxtpx:TrackPointExtension xmlns:gpxtpx="http://www.garmin.com/xmlschemas/TrackPointExtension/v1">
            <gpxtpx:hr>92</gpxtpx:hr>
          </gpxtpx:TrackPointExtension>
        </extensions>
      </trkpt>
      <trkpt lat="43.731" lon="3.45581">
        <ele>373.7</ele>
        <time>2022-08-07T07:03:53Z</time>
        <extensions>
          <gpxtpx:TrackPointExtension xmlns:gpxtpx="http://www.garmin.com/xmlschemas/TrackPointExtension/v1">
            <gpxtpx:hr>80</gpxtpx:hr>
          </gpxtpx:TrackPointExtension>
        </extensions>
      </trkpt>
      <trkpt lat="43.73097" lon="3.4556">
        <ele>372.2</ele>
        <time>2022-08-07T07:04:03Z</time>
        <extensions>
          <gpxtpx:TrackPointExtension xmlns:gpxtpx="http://www.garmin.com/xmlschemas/TrackPointExtension/v1">
            <gpxtpx:hr>70</gpxtpx:hr>
          </gpxtpx:TrackPointExtension>
        </extensions>
      </trkpt>
      <trkpt lat="43.73092" lon="3.4554">
        <ele>370.3</ele>
        <time>2022-08-07T07:04:13Z</time>
        <extensions>
          <gpxtpx:TrackPointExtension xmlns:gpxtpx="http://www.garmin.com/xmlschemas/TrackPointExtension/v1">
            <gpxtpx:hr>70</gpxtpx:hr>
          </gpxtpx:TrackPointExtension>
        </extensions>
      </trkpt>
      <trkpt lat="43.7309" lon="3.45522">
        <ele>368.8</ele>
        <time>2022-08-07T07:04:23Z</time>
        <extensions>
          <gpxtpx:TrackPointExtension xmlns:gpxtpx="http://www.garmin.com/xmlschemas/TrackPointExtension/v1">
            <gpxtpx:hr>69</gpxtpx:hr>
          </gpxtpx:TrackPointExtension>
        </extensions>
      </trkpt>
      <trkpt lat="43.73093" lon="3.45503">
        <ele>368.3</ele>
        <time>2022-08-07T07:04:33Z</time>
        <extensions>
          <gpxtpx:TrackPointExtension xmlns:gpxtpx="http://www.garmin.com/xmlschemas/TrackPointExtension/v1">
            <gpxtpx:hr>71</gpxtpx:hr>
          </gpxtpx:TrackPointExtension>
        </extensions>
      </trkpt>
      <trkpt lat="43.73096" lon="3.45485">
        <ele>369.2</ele>
        <time>2022-08-07T07:04:43Z</time>
        <extensions>
          <gpxtpx:TrackPointExtension xmlns:gpxtpx="http://www.garmin.com/xmlschemas/TrackPointExtension/v1">
            <gpxtpx:hr>72</gpxtpx:hr>
          </gpxtpx:TrackPointExtension>
        </extensions>
      </trkpt>
      <trkpt lat="43.731" lon="3.4547">
        <ele>370.5</ele>
        <time>2022-08-07T07:04:53Z</time>
        <extensions>
          <gpxtpx:TrackPointExtension xmlns:gpxtpx="http://www.garmin.com/xmlschemas/TrackPointExtension/v1">
            <gpxtpx:hr>75</gpxtpx:hr>
          </gpxtpx:TrackPointExtension>
        </extensions>
      </trkpt>
      <trkpt lat="43.73103" lon="3.45454">
        <ele>371.6</ele>
        <time>2022-08-07T07:05:03Z</time>
        <extensions>
          <gpxtpx:TrackPointExtension xmlns:gpxtpx="http://www.garmin.com/xmlschemas/TrackPointExtension/v1">
            <gpxtpx:hr>74</gpxtpx:hr>
          </gpxtpx:TrackPointExtension>
        </extensions>
      </trkpt>
      <trkpt lat="43.73103" lon="3.45436">
        <ele>372.1</ele>
        <time>2022-08-07T07:05:13Z</time>
        <extensions>
          <gpxtpx:TrackPointExtension xmlns:gpxtpx="http://www.garmin.com/xmlschemas/TrackPointExtension/v1">
            <gpxtpx:hr>71</gpxtpx:hr>
          </gpxtpx:TrackPointExtension>
        </extensions>
      </trkpt>
      <trkpt lat="43.73104" lon="3.45419">
        <ele>372.9</ele>
        <time>2022-08-07T07:05:23Z</time>
        <extensions>
          <gpxtpx:TrackPointExtension xmlns:gpxtpx="http://www.garmin.com/xmlschemas/TrackPointExtension/v1">
            <gpxtpx:hr>69</gpxtpx:hr>
          </gpxtpx:TrackPointExtension>
        </extensions>
      </trkpt>
      <trkpt lat="43.73103" lon="3.45402">
        <ele>374.4</ele>
        <time>2022-08-07T07:05:33Z</time>
        <extensions>
          <gpxtpx:TrackPointExtension xmlns:gpxtpx="http://www.garmin.com/xmlschemas/TrackPointExtension/v1">
            <gpxtpx:hr>64</gpxtpx:hr>
          </gpxtpx:TrackPointExtension>
        </extensions>
      </trkpt>
      <trkpt lat="43.73104" lon="3.45384">
        <ele>376.7</ele>
        <time>2022-08-07T07:05:43Z</time>
        <extensions>
          <gpxtpx:TrackPointExtension xmlns:gpxtpx="http://www.garmin.com/xmlschemas/TrackPointExtension/v1">
            <gpxtpx:hr>62</gpxtpx:hr>
          </gpxtpx:TrackPointExtension>
        </extensions>
      </trkpt>
      <trkpt lat="43.73107" lon="3.45367">
        <ele>379.1</ele>
        <time>2022-08-07T07:05:53Z</time>
        <extensions>
          <gpxtpx:TrackPointExtension xmlns:gpxtpx="http://www.garmin.com/xmlschemas/TrackPointExtension/v1">
            <gpxtpx:hr>64</gpxtpx:hr>
          </gpxtpx:TrackPointExtension>
        </extensions>
      </trkpt>
      <trkpt lat="43.73115" lon="3.45337">
        <ele>383.4</ele>
        <time>2022-08-07T07:06:33Z</time>
        <extensions>
          <gpxtpx:TrackPointExtension xmlns:gpxtpx="http://www.garmin.com/xmlschemas/TrackPointExtension/v1">
            <gpxtpx:hr>122</gpxtpx:hr>
          </gpxtpx:TrackPointExtension>
        </extensions>
      </trkpt>
      <trkpt lat="43.73114" lon="3.45288">
        <ele>385.1</ele>
        <time>2022-08-07T07:06:53Z</time>
        <extensions>
          <gpxtpx:TrackPointExtension xmlns:gpxtpx="http://www.garmin.com/xmlschemas/TrackPointExtension/v1">
            <gpxtpx:hr>141</gpxtpx:hr>
          </gpxtpx:TrackPointExtension>
        </extensions>
      </trkpt>
      <trkpt lat="43.73066" lon="3.4521">
        <ele>387.3</ele>
        <time>2022-08-07T07:07:03Z</time>
        <extensions>
          <gpxtpx:TrackPointExtension xmlns:gpxtpx="http://www.garmin.com/xmlschemas/TrackPointExtension/v1">
            <gpxtpx:hr>131</gpxtpx:hr>
          </gpxtpx:TrackPointExtension>
        </extensions>
      </trkpt>
      <trkpt lat="43.73006" lon="3.45215">
        <ele>386.9</ele>
        <time>2022-08-07T07:07:13Z</time>
        <extensions>
          <gpxtpx:TrackPointExtension xmlns:gpxtpx="http://www.garmin.com/xmlschemas/TrackPointExtension/v1">
            <gpxtpx:hr>127</gpxtpx:hr>
          </gpxtpx:TrackPointExtension>
        </extensions>
      </trkpt>
      <trkpt lat="43.72963" lon="3.45232">
        <ele>384.5</ele>
        <time>2022-08-07T07:07:23Z</time>
        <extensions>
          <gpxtpx:TrackPointExtension xmlns:gpxtpx="http://www.garmin.com/xmlschemas/TrackPointExtension/v1">
            <gpxtpx:hr>121</gpxtpx:hr>
          </gpxtpx:TrackPointExtension>
        </extensions>
      </trkpt>
      <trkpt lat="43.72913" lon="3.45246">
        <ele>381.3</ele>
        <time>2022-08-07T07:07:33Z</time>
        <extensions>
          <gpxtpx:TrackPointExtension xmlns:gpxtpx="http://www.garmin.com/xmlschemas/TrackPointExtension/v1">
            <gpxtpx:hr>112</gpxtpx:hr>
          </gpxtpx:TrackPointExtension>
        </extensions>
      </trkpt>
      <trkpt lat="43.72858" lon="3.45251">
        <ele>378.8</ele>
        <time>2022-08-07T07:07:43Z</time>
        <extensions>
          <gpxtpx:TrackPointExtension xmlns:gpxtpx="http://www.garmin.com/xmlschemas/TrackPointExtension/v1">
            <gpxtpx:hr>106</gpxtpx:hr>
          </gpxtpx:TrackPointExtension>
        </extensions>
      </trkpt>
      <trkpt lat="43.72804" lon="3.4525">
        <ele>378</ele>
        <time>2022-08-07T07:07:53Z</time>
        <extensions>
          <gpxtpx:TrackPointExtension xmlns:gpxtpx="http://www.garmin.com/xmlschemas/TrackPointExtension/v1">
            <gpxtpx:hr>105</gpxtpx:hr>
          </gpxtpx:TrackPointExtension>
        </extensions>
      </trkpt>
      <trkpt lat="43.7275" lon="3.45253">
        <ele>377.8</ele>
        <time>2022-08-07T07:08:03Z</time>
        <extensions>
          <gpxtpx:TrackPointExtension xmlns:gpxtpx="http://www.garmin.com/xmlschemas/TrackPointExtension/v1">
            <gpxtpx:hr>65</gpxtpx:hr>
          </gpxtpx:TrackPointExtension>
        </extensions>
      </trkpt>
      <trkpt lat="43.72697" lon="3.45271">
        <ele>375.6</ele>
        <time>2022-08-07T07:08:13Z</time>
        <extensions>
          <gpxtpx:TrackPointExtension xmlns:gpxtpx="http://www.garmin.com/xmlschemas/TrackPointExtension/v1">
            <gpxtpx:hr>83</gpxtpx:hr>
          </gpxtpx:TrackPointExtension>
        </extensions>
      </trkpt>
      <trkpt lat="43.72643" lon="3.45285">
        <ele>375.1</ele>
        <time>2022-08-07T07:08:23Z</time>
        <extensions>
          <gpxtpx:TrackPointExtension xmlns:gpxtpx="http://www.garmin.com/xmlschemas/TrackPointExtension/v1">
            <gpxtpx:hr>102</gpxtpx:hr>
          </gpxtpx:TrackPointExtension>
        </extensions>
      </trkpt>
      <trkpt lat="43.72588" lon="3.4528">
        <ele>378.9</ele>
        <time>2022-08-07T07:08:33Z</time>
        <extensions>
          <gpxtpx:TrackPointExtension xmlns:gpxtpx="http://www.garmin.com/xmlschemas/TrackPointExtension/v1">
            <gpxtpx:hr>108</gpxtpx:hr>
          </gpxtpx:TrackPointExtension>
        </extensions>
      </trkpt>
      <trkpt lat="43.72524" lon="3.45269">
        <ele>393.3</ele>
        <time>2022-08-07T07:08:43Z</time>
        <extensions>
          <gpxtpx:TrackPointExtension xmlns:gpxtpx="http://www.garmin.com/xmlschemas/TrackPointExtension/v1">
            <gpxtpx:hr>105</gpxtpx:hr>
          </gpxtpx:TrackPointExtension>
        </extensions>
      </trkpt>
      <trkpt lat="43.72507" lon="3.45307">
        <ele>396.6</ele>
        <time>2022-08-07T07:08:53Z</time>
        <extensions>
          <gpxtpx:TrackPointExtension xmlns:gpxtpx="http://www.garmin.com/xmlschemas/TrackPointExtension/v1">
            <gpxtpx:hr>102</gpxtpx:hr>
          </gpxtpx:TrackPointExtension>
        </extensions>
      </trkpt>
      <trkpt lat="43.72503" lon="3.45369">
        <ele>397.1</ele>
        <time>2022-08-07T07:09:03Z</time>
        <extensions>
          <gpxtpx:TrackPointExtension xmlns:gpxtpx="http://www.garmin.com/xmlschemas/TrackPointExtension/v1">
            <gpxtpx:hr>101</gpxtpx:hr>
          </gpxtpx:TrackPointExtension>
        </extensions>
      </trkpt>
      <trkpt lat="43.72492" lon="3.45435">
        <ele>399.8</ele>
        <time>2022-08-07T07:09:13Z</time>
        <extensions>
          <gpxtpx:TrackPointExtension xmlns:gpxtpx="http://www.garmin.com/xmlschemas/TrackPointExtension/v1">
            <gpxtpx:hr>106</gpxtpx:hr>
          </gpxtpx:TrackPointExtension>
        </extensions>
      </trkpt>
      <trkpt lat="43.72487" lon="3.4551">
        <ele>397.7</ele>
        <time>2022-08-07T07:09:23Z</time>
        <extensions>
          <gpxtpx:TrackPointExtension xmlns:gpxtpx="http://www.garmin.com/xmlschemas/TrackPointExtension/v1">
            <gpxtpx:hr>105</gpxtpx:hr>
          </gpxtpx:TrackPointExtension>
        </extensions>
      </trkpt>
      <trkpt lat="43.72474" lon="3.45575">
        <ele>396.8</ele>
        <time>2022-08-07T07:09:33Z</time>
        <extensions>
          <gpxtpx:TrackPointExtension xmlns:gpxtpx="http://www.garmin.com/xmlschemas/TrackPointExtension/v1">
            <gpxtpx:hr>109</gpxtpx:hr>
          </gpxtpx:TrackPointExtension>
        </extensions>
      </trkpt>
      <trkpt lat="43.72441" lon="3.45644">
        <ele>393.9</ele>
        <time>2022-08-07T07:09:43Z</time>
        <extensions>
          <gpxtpx:TrackPointExtension xmlns:gpxtpx="http://www.garmin.com/xmlschemas/TrackPointExtension/v1">
            <gpxtpx:hr>114</gpxtpx:hr>
          </gpxtpx:TrackPointExtension>
        </extensions>
      </trkpt>
      <trkpt lat="43.72412" lon="3.45702">
        <ele>388.8</ele>
        <time>2022-08-07T07:09:53Z</time>
        <extensions>
          <gpxtpx:TrackPointExtension xmlns:gpxtpx="http://www.garmin.com/xmlschemas/TrackPointExtension/v1">
            <gpxtpx:hr>114</gpxtpx:hr>
          </gpxtpx:TrackPointExtension>
        </extensions>
      </trkpt>
      <trkpt lat="43.72398" lon="3.45758">
        <ele>380.4</ele>
        <time>2022-08-07T07:10:03Z</time>
        <extensions>
          <gpxtpx:TrackPointExtension xmlns:gpxtpx="http://www.garmin.com/xmlschemas/TrackPointExtension/v1">
            <gpxtpx:hr>115</gpxtpx:hr>
          </gpxtpx:TrackPointExtension>
        </extensions>
      </trkpt>
      <trkpt lat="43.72363" lon="3.45795">
        <ele>379.1</ele>
        <time>2022-08-07T07:10:13Z</time>
        <extensions>
          <gpxtpx:TrackPointExtension xmlns:gpxtpx="http://www.garmin.com/xmlschemas/TrackPointExtension/v1">
            <gpxtpx:hr>115</gpxtpx:hr>
          </gpxtpx:TrackPointExtension>
        </extensions>
      </trkpt>
      <trkpt lat="43.72336" lon="3.45805">
        <ele>380.8</ele>
        <time>2022-08-07T07:10:23Z</time>
        <extensions>
          <gpxtpx:TrackPointExtension xmlns:gpxtpx="http://www.garmin.com/xmlschemas/TrackPointExtension/v1">
            <gpxtpx:hr>114</gpxtpx:hr>
          </gpxtpx:TrackPointExtension>
        </extensions>
      </trkpt>
      <trkpt lat="43.72311" lon="3.45811">
        <ele>386</ele>
        <time>2022-08-07T07:10:33Z</time>
        <extensions>
          <gpxtpx:TrackPointExtension xmlns:gpxtpx="http://www.garmin.com/xmlschemas/TrackPointExtension/v1">
            <gpxtpx:hr>112</gpxtpx:hr>
          </gpxtpx:TrackPointExtension>
        </extensions>
      </trkpt>
      <trkpt lat="43.72282" lon="3.45825">
        <ele>390.5</ele>
        <time>2022-08-07T07:10:43Z</time>
        <extensions>
          <gpxtpx:TrackPointExtension xmlns:gpxtpx="http://www.garmin.com/xmlschemas/TrackPointExtension/v1">
            <gpxtpx:hr>119</gpxtpx:hr>
          </gpxtpx:TrackPointExtension>
        </extensions>
      </trkpt>
      <trkpt lat="43.72247" lon="3.45833">
        <ele>397.6</ele>
        <time>2022-08-07T07:10:53Z</time>
        <extensions>
          <gpxtpx:TrackPointExtension xmlns:gpxtpx="http://www.garmin.com/xmlschemas/TrackPointExtension/v1">
            <gpxtpx:hr>123</gpxtpx:hr>
          </gpxtpx:TrackPointExtension>
        </extensions>
      </trkpt>
      <trkpt lat="43.72222" lon="3.45839">
        <ele>400.4</ele>
        <time>2022-08-07T07:11:03Z</time>
        <extensions>
          <gpxtpx:TrackPointExtension xmlns:gpxtpx="http://www.garmin.com/xmlschemas/TrackPointExtension/v1">
            <gpxtpx:hr>125</gpxtpx:hr>
          </gpxtpx:TrackPointExtension>
        </extensions>
      </trkpt>
      <trkpt lat="43.72206" lon="3.45846">
        <ele>401.3</ele>
        <time>2022-08-07T07:11:13Z</time>
        <extensions>
          <gpxtpx:TrackPointExtension xmlns:gpxtpx="http://www.garmin.com/xmlschemas/TrackPointExtension/v1">
            <gpxtpx:hr>122</gpxtpx:hr>
          </gpxtpx:TrackPointExtension>
        </extensions>
      </trkpt>
      <trkpt lat="43.72189" lon="3.45862">
        <ele>400</ele>
        <time>2022-08-07T07:11:23Z</time>
        <extensions>
          <gpxtpx:TrackPointExtension xmlns:gpxtpx="http://www.garmin.com/xmlschemas/TrackPointExtension/v1">
            <gpxtpx:hr>126</gpxtpx:hr>
          </gpxtpx:TrackPointExtension>
        </extensions>
      </trkpt>
      <trkpt lat="43.7217" lon="3.45875">
        <ele>400.3</ele>
        <time>2022-08-07T07:11:33Z</time>
        <extensions>
          <gpxtpx:TrackPointExtension xmlns:gpxtpx="http://www.garmin.com/xmlschemas/TrackPointExtension/v1">
            <gpxtpx:hr>128</gpxtpx:hr>
          </gpxtpx:TrackPointExtension>
        </extensions>
      </trkpt>
      <trkpt lat="43.72153" lon="3.45887">
        <ele>397.8</ele>
        <time>2022-08-07T07:11:43Z</time>
        <extensions>
          <gpxtpx:TrackPointExtension xmlns:gpxtpx="http://www.garmin.com/xmlschemas/TrackPointExtension/v1">
            <gpxtpx:hr>128</gpxtpx:hr>
          </gpxtpx:TrackPointExtension>
        </extensions>
      </trkpt>
      <trkpt lat="43.72136" lon="3.45896">
        <ele>395.8</ele>
        <time>2022-08-07T07:11:53Z</time>
        <extensions>
          <gpxtpx:TrackPointExtension xmlns:gpxtpx="http://www.garmin.com/xmlschemas/TrackPointExtension/v1">
            <gpxtpx:hr>127</gpxtpx:hr>
          </gpxtpx:TrackPointExtension>
        </extensions>
      </trkpt>
      <trkpt lat="43.72118" lon="3.45903">
        <ele>394.8</ele>
        <time>2022-08-07T07:12:03Z</time>
        <extensions>
          <gpxtpx:TrackPointExtension xmlns:gpxtpx="http://www.garmin.com/xmlschemas/TrackPointExtension/v1">
            <gpxtpx:hr>123</gpxtpx:hr>
          </gpxtpx:TrackPointExtension>
        </extensions>
      </trkpt>
      <trkpt lat="43.721" lon="3.45918">
        <ele>393.1</ele>
        <time>2022-08-07T07:12:13Z</time>
        <extensions>
          <gpxtpx:TrackPointExtension xmlns:gpxtpx="http://www.garmin.com/xmlschemas/TrackPointExtension/v1">
            <gpxtpx:hr>120</gpxtpx:hr>
          </gpxtpx:TrackPointExtension>
        </extensions>
      </trkpt>
      <trkpt lat="43.72083" lon="3.45932">
        <ele>392.9</ele>
        <time>2022-08-07T07:12:23Z</time>
        <extensions>
          <gpxtpx:TrackPointExtension xmlns:gpxtpx="http://www.garmin.com/xmlschemas/TrackPointExtension/v1">
            <gpxtpx:hr>117</gpxtpx:hr>
          </gpxtpx:TrackPointExtension>
        </extensions>
      </trkpt>
      <trkpt lat="43.72071" lon="3.45942">
        <ele>390.7</ele>
        <time>2022-08-07T07:12:33Z</time>
        <extensions>
          <gpxtpx:TrackPointExtension xmlns:gpxtpx="http://www.garmin.com/xmlschemas/TrackPointExtension/v1">
            <gpxtpx:hr>115</gpxtpx:hr>
          </gpxtpx:TrackPointExtension>
        </extensions>
      </trkpt>
      <trkpt lat="43.72059" lon="3.45953">
        <ele>388.3</ele>
        <time>2022-08-07T07:12:43Z</time>
        <extensions>
          <gpxtpx:TrackPointExtension xmlns:gpxtpx="http://www.garmin.com/xmlschemas/TrackPointExtension/v1">
            <gpxtpx:hr>110</gpxtpx:hr>
          </gpxtpx:TrackPointExtension>
        </extensions>
      </trkpt>
      <trkpt lat="43.72047" lon="3.45957">
        <ele>386.3</ele>
        <time>2022-08-07T07:12:53Z</time>
        <extensions>
          <gpxtpx:TrackPointExtension xmlns:gpxtpx="http://www.garmin.com/xmlschemas/TrackPointExtension/v1">
            <gpxtpx:hr>93</gpxtpx:hr>
          </gpxtpx:TrackPointExtension>
        </extensions>
      </trkpt>
      <trkpt lat="43.72035" lon="3.45964">
        <ele>384</ele>
        <time>2022-08-07T07:13:03Z</time>
        <extensions>
          <gpxtpx:TrackPointExtension xmlns:gpxtpx="http://www.garmin.com/xmlschemas/TrackPointExtension/v1">
            <gpxtpx:hr>90</gpxtpx:hr>
          </gpxtpx:TrackPointExtension>
        </extensions>
      </trkpt>
      <trkpt lat="43.7202" lon="3.45963">
        <ele>382</ele>
        <time>2022-08-07T07:13:13Z</time>
        <extensions>
          <gpxtpx:TrackPointExtension xmlns:gpxtpx="http://www.garmin.com/xmlschemas/TrackPointExtension/v1">
            <gpxtpx:hr>87</gpxtpx:hr>
          </gpxtpx:TrackPointExtension>
        </extensions>
      </trkpt>
      <trkpt lat="43.72006" lon="3.45941">
        <ele>383.2</ele>
        <time>2022-08-07T07:13:23Z</time>
        <extensions>
          <gpxtpx:TrackPointExtension xmlns:gpxtpx="http://www.garmin.com/xmlschemas/TrackPointExtension/v1">
            <gpxtpx:hr>87</gpxtpx:hr>
          </gpxtpx:TrackPointExtension>
        </extensions>
      </trkpt>
      <trkpt lat="43.71982" lon="3.45917">
        <ele>387.5</ele>
        <time>2022-08-07T07:13:33Z</time>
        <extensions>
          <gpxtpx:TrackPointExtension xmlns:gpxtpx="http://www.garmin.com/xmlschemas/TrackPointExtension/v1">
            <gpxtpx:hr>87</gpxtpx:hr>
          </gpxtpx:TrackPointExtension>
        </extensions>
      </trkpt>
      <trkpt lat="43.71951" lon="3.45889">
        <ele>395.4</ele>
        <time>2022-08-07T07:13:43Z</time>
        <extensions>
          <gpxtpx:TrackPointExtension xmlns:gpxtpx="http://www.garmin.com/xmlschemas/TrackPointExtension/v1">
            <gpxtpx:hr>86</gpxtpx:hr>
          </gpxtpx:TrackPointExtension>
        </extensions>
      </trkpt>
      <trkpt lat="43.71913" lon="3.45879">
        <ele>400.7</ele>
        <time>2022-08-07T07:13:53Z</time>
        <extensions>
          <gpxtpx:TrackPointExtension xmlns:gpxtpx="http://www.garmin.com/xmlschemas/TrackPointExtension/v1">
            <gpxtpx:hr>84</gpxtpx:hr>
          </gpxtpx:TrackPointExtension>
        </extensions>
      </trkpt>
      <trkpt lat="43.71871" lon="3.45901">
        <ele>400.8</ele>
        <time>2022-08-07T07:14:03Z</time>
        <extensions>
          <gpxtpx:TrackPointExtension xmlns:gpxtpx="http://www.garmin.com/xmlschemas/TrackPointExtension/v1">
            <gpxtpx:hr>80</gpxtpx:hr>
          </gpxtpx:TrackPointExtension>
        </extensions>
      </trkpt>
      <trkpt lat="43.7183" lon="3.45939">
        <ele>398.6</ele>
        <time>2022-08-07T07:14:13Z</time>
        <extensions>
          <gpxtpx:TrackPointExtension xmlns:gpxtpx="http://www.garmin.com/xmlschemas/TrackPointExtension/v1">
            <gpxtpx:hr>74</gpxtpx:hr>
          </gpxtpx:TrackPointExtension>
        </extensions>
      </trkpt>
      <trkpt lat="43.71782" lon="3.4595">
        <ele>413.5</ele>
        <time>2022-08-07T07:14:23Z</time>
        <extensions>
          <gpxtpx:TrackPointExtension xmlns:gpxtpx="http://www.garmin.com/xmlschemas/TrackPointExtension/v1">
            <gpxtpx:hr>65</gpxtpx:hr>
          </gpxtpx:TrackPointExtension>
        </extensions>
      </trkpt>
      <trkpt lat="43.71748" lon="3.45998">
        <ele>422</ele>
        <time>2022-08-07T07:14:33Z</time>
        <extensions>
          <gpxtpx:TrackPointExtension xmlns:gpxtpx="http://www.garmin.com/xmlschemas/TrackPointExtension/v1">
            <gpxtpx:hr>85</gpxtpx:hr>
          </gpxtpx:TrackPointExtension>
        </extensions>
      </trkpt>
      <trkpt lat="43.71717" lon="3.46045">
        <ele>427.4</ele>
        <time>2022-08-07T07:14:43Z</time>
        <extensions>
          <gpxtpx:TrackPointExtension xmlns:gpxtpx="http://www.garmin.com/xmlschemas/TrackPointExtension/v1">
            <gpxtpx:hr>92</gpxtpx:hr>
          </gpxtpx:TrackPointExtension>
        </extensions>
      </trkpt>
      <trkpt lat="43.71696" lon="3.46112">
        <ele>425.5</ele>
        <time>2022-08-07T07:14:53Z</time>
        <extensions>
          <gpxtpx:TrackPointExtension xmlns:gpxtpx="http://www.garmin.com/xmlschemas/TrackPointExtension/v1">
            <gpxtpx:hr>101</gpxtpx:hr>
          </gpxtpx:TrackPointExtension>
        </extensions>
      </trkpt>
      <trkpt lat="43.71665" lon="3.46168">
        <ele>429.7</ele>
        <time>2022-08-07T07:15:03Z</time>
        <extensions>
          <gpxtpx:TrackPointExtension xmlns:gpxtpx="http://www.garmin.com/xmlschemas/TrackPointExtension/v1">
            <gpxtpx:hr>99</gpxtpx:hr>
          </gpxtpx:TrackPointExtension>
        </extensions>
      </trkpt>
      <trkpt lat="43.71649" lon="3.4623">
        <ele>424.9</ele>
        <time>2022-08-07T07:15:13Z</time>
        <extensions>
          <gpxtpx:TrackPointExtension xmlns:gpxtpx="http://www.garmin.com/xmlschemas/TrackPointExtension/v1">
            <gpxtpx:hr>96</gpxtpx:hr>
          </gpxtpx:TrackPointExtension>
        </extensions>
      </trkpt>
      <trkpt lat="43.71635" lon="3.46282">
        <ele>415.8</ele>
        <time>2022-08-07T07:15:23Z</time>
        <extensions>
          <gpxtpx:TrackPointExtension xmlns:gpxtpx="http://www.garmin.com/xmlschemas/TrackPointExtension/v1">
            <gpxtpx:hr>91</gpxtpx:hr>
          </gpxtpx:TrackPointExtension>
        </extensions>
      </trkpt>
      <trkpt lat="43.71609" lon="3.46338">
        <ele>406.6</ele>
        <time>2022-08-07T07:15:33Z</time>
        <extensions>
          <gpxtpx:TrackPointExtension xmlns:gpxtpx="http://www.garmin.com/xmlschemas/TrackPointExtension/v1">
            <gpxtpx:hr>93</gpxtpx:hr>
          </gpxtpx:TrackPointExtension>
        </extensions>
      </trkpt>
      <trkpt lat="43.71576" lon="3.4639">
        <ele>398</ele>
        <time>2022-08-07T07:15:43Z</time>
        <extensions>
          <gpxtpx:TrackPointExtension xmlns:gpxtpx="http://www.garmin.com/xmlschemas/TrackPointExtension/v1">
            <gpxtpx:hr>94</gpxtpx:hr>
          </gpxtpx:TrackPointExtension>
        </extensions>
      </trkpt>
      <trkpt lat="43.71533" lon="3.46423">
        <ele>394.7</ele>
        <time>2022-08-07T07:15:53Z</time>
        <extensions>
          <gpxtpx:TrackPointExtension xmlns:gpxtpx="http://www.garmin.com/xmlschemas/TrackPointExtension/v1">
            <gpxtpx:hr>86</gpxtpx:hr>
          </gpxtpx:TrackPointExtension>
        </extensions>
      </trkpt>
      <trkpt lat="43.71503" lon="3.46478">
        <ele>389.5</ele>
        <time>2022-08-07T07:16:03Z</time>
        <extensions>
          <gpxtpx:TrackPointExtension xmlns:gpxtpx="http://www.garmin.com/xmlschemas/TrackPointExtension/v1">
            <gpxtpx:hr>75</gpxtpx:hr>
          </gpxtpx:TrackPointExtension>
        </extensions>
      </trkpt>
      <trkpt lat="43.71474" lon="3.46522">
        <ele>381.3</ele>
        <time>2022-08-07T07:16:13Z</time>
        <extensions>
          <gpxtpx:TrackPointExtension xmlns:gpxtpx="http://www.garmin.com/xmlschemas/TrackPointExtension/v1">
            <gpxtpx:hr>74</gpxtpx:hr>
          </gpxtpx:TrackPointExtension>
        </extensions>
      </trkpt>
      <trkpt lat="43.71429" lon="3.46537">
        <ele>378.9</ele>
        <time>2022-08-07T07:16:23Z</time>
        <extensions>
          <gpxtpx:TrackPointExtension xmlns:gpxtpx="http://www.garmin.com/xmlschemas/TrackPointExtension/v1">
            <gpxtpx:hr>76</gpxtpx:hr>
          </gpxtpx:TrackPointExtension>
        </extensions>
      </trkpt>
      <trkpt lat="43.71384" lon="3.4655">
        <ele>376.6</ele>
        <time>2022-08-07T07:16:33Z</time>
        <extensions>
          <gpxtpx:TrackPointExtension xmlns:gpxtpx="http://www.garmin.com/xmlschemas/TrackPointExtension/v1">
            <gpxtpx:hr>82</gpxtpx:hr>
          </gpxtpx:TrackPointExtension>
        </extensions>
      </trkpt>
      <trkpt lat="43.71338" lon="3.46553">
        <ele>377.4</ele>
        <time>2022-08-07T07:16:43Z</time>
        <extensions>
          <gpxtpx:TrackPointExtension xmlns:gpxtpx="http://www.garmin.com/xmlschemas/TrackPointExtension/v1">
            <gpxtpx:hr>83</gpxtpx:hr>
          </gpxtpx:TrackPointExtension>
        </extensions>
      </trkpt>
      <trkpt lat="43.71292" lon="3.46557">
        <ele>370.8</ele>
        <time>2022-08-07T07:16:53Z</time>
        <extensions>
          <gpxtpx:TrackPointExtension xmlns:gpxtpx="http://www.garmin.com/xmlschemas/TrackPointExtension/v1">
            <gpxtpx:hr>68</gpxtpx:hr>
          </gpxtpx:TrackPointExtension>
        </extensions>
      </trkpt>
      <trkpt lat="43.71259" lon="3.46568">
        <ele>364.8</ele>
        <time>2022-08-07T07:17:03Z</time>
        <extensions>
          <gpxtpx:TrackPointExtension xmlns:gpxtpx="http://www.garmin.com/xmlschemas/TrackPointExtension/v1">
            <gpxtpx:hr>64</gpxtpx:hr>
          </gpxtpx:TrackPointExtension>
        </extensions>
      </trkpt>
      <trkpt lat="43.71273" lon="3.46548">
        <ele>369.4</ele>
        <time>2022-08-07T07:18:13Z</time>
        <extensions>
          <gpxtpx:TrackPointExtension xmlns:gpxtpx="http://www.garmin.com/xmlschemas/TrackPointExtension/v1">
            <gpxtpx:hr>108</gpxtpx:hr>
          </gpxtpx:TrackPointExtension>
        </extensions>
      </trkpt>
      <trkpt lat="43.71293" lon="3.46542">
        <ele>373.4</ele>
        <time>2022-08-07T07:18:33Z</time>
        <extensions>
          <gpxtpx:TrackPointExtension xmlns:gpxtpx="http://www.garmin.com/xmlschemas/TrackPointExtension/v1">
            <gpxtpx:hr>60</gpxtpx:hr>
          </gpxtpx:TrackPointExtension>
        </extensions>
      </trkpt>
      <trkpt lat="43.71313" lon="3.46537">
        <ele>377.6</ele>
        <time>2022-08-07T07:18:43Z</time>
        <extensions>
          <gpxtpx:TrackPointExtension xmlns:gpxtpx="http://www.garmin.com/xmlschemas/TrackPointExtension/v1">
            <gpxtpx:hr>60</gpxtpx:hr>
          </gpxtpx:TrackPointExtension>
        </extensions>
      </trkpt>
      <trkpt lat="43.7133" lon="3.46532">
        <ele>381.5</ele>
        <time>2022-08-07T07:18:53Z</time>
        <extensions>
          <gpxtpx:TrackPointExtension xmlns:gpxtpx="http://www.garmin.com/xmlschemas/TrackPointExtension/v1">
            <gpxtpx:hr>61</gpxtpx:hr>
          </gpxtpx:TrackPointExtension>
        </extensions>
      </trkpt>
      <trkpt lat="43.71349" lon="3.46528">
        <ele>382.8</ele>
        <time>2022-08-07T07:19:03Z</time>
        <extensions>
          <gpxtpx:TrackPointExtension xmlns:gpxtpx="http://www.garmin.com/xmlschemas/TrackPointExtension/v1">
            <gpxtpx:hr>61</gpxtpx:hr>
          </gpxtpx:TrackPointExtension>
        </extensions>
      </trkpt>
      <trkpt lat="43.71366" lon="3.46522">
        <ele>384</ele>
        <time>2022-08-07T07:19:13Z</time>
        <extensions>
          <gpxtpx:TrackPointExtension xmlns:gpxtpx="http://www.garmin.com/xmlschemas/TrackPointExtension/v1">
            <gpxtpx:hr>61</gpxtpx:hr>
          </gpxtpx:TrackPointExtension>
        </extensions>
      </trkpt>
      <trkpt lat="43.71383" lon="3.46509">
        <ele>387.3</ele>
        <time>2022-08-07T07:19:23Z</time>
        <extensions>
          <gpxtpx:TrackPointExtension xmlns:gpxtpx="http://www.garmin.com/xmlschemas/TrackPointExtension/v1">
            <gpxtpx:hr>60</gpxtpx:hr>
          </gpxtpx:TrackPointExtension>
        </extensions>
      </trkpt>
      <trkpt lat="43.71399" lon="3.46497">
        <ele>390.7</ele>
        <time>2022-08-07T07:19:33Z</time>
        <extensions>
          <gpxtpx:TrackPointExtension xmlns:gpxtpx="http://www.garmin.com/xmlschemas/TrackPointExtension/v1">
            <gpxtpx:hr>60</gpxtpx:hr>
          </gpxtpx:TrackPointExtension>
        </extensions>
      </trkpt>
      <trkpt lat="43.71413" lon="3.46488">
        <ele>393.5</ele>
        <time>2022-08-07T07:19:43Z</time>
        <extensions>
          <gpxtpx:TrackPointExtension xmlns:gpxtpx="http://www.garmin.com/xmlschemas/TrackPointExtension/v1">
            <gpxtpx:hr>60</gpxtpx:hr>
          </gpxtpx:TrackPointExtension>
        </extensions>
      </trkpt>
      <trkpt lat="43.71421" lon="3.46473">
        <ele>397.7</ele>
        <time>2022-08-07T07:19:53Z</time>
        <extensions>
          <gpxtpx:TrackPointExtension xmlns:gpxtpx="http://www.garmin.com/xmlschemas/TrackPointExtension/v1">
            <gpxtpx:hr>61</gpxtpx:hr>
          </gpxtpx:TrackPointExtension>
        </extensions>
      </trkpt>
      <trkpt lat="43.71416" lon="3.46457">
        <ele>402.9</ele>
        <time>2022-08-07T07:20:03Z</time>
        <extensions>
          <gpxtpx:TrackPointExtension xmlns:gpxtpx="http://www.garmin.com/xmlschemas/TrackPointExtension/v1">
            <gpxtpx:hr>60</gpxtpx:hr>
          </gpxtpx:TrackPointExtension>
        </extensions>
      </trkpt>
      <trkpt lat="43.71403" lon="3.46449">
        <ele>404.8</ele>
        <time>2022-08-07T07:20:13Z</time>
        <extensions>
          <gpxtpx:TrackPointExtension xmlns:gpxtpx="http://www.garmin.com/xmlschemas/TrackPointExtension/v1">
            <gpxtpx:hr>60</gpxtpx:hr>
          </gpxtpx:TrackPointExtension>
        </extensions>
      </trkpt>
      <trkpt lat="43.71387" lon="3.46446">
        <ele>405.2</ele>
        <time>2022-08-07T07:20:23Z</time>
        <extensions>
          <gpxtpx:TrackPointExtension xmlns:gpxtpx="http://www.garmin.com/xmlschemas/TrackPointExtension/v1">
            <gpxtpx:hr>61</gpxtpx:hr>
          </gpxtpx:TrackPointExtension>
        </extensions>
      </trkpt>
      <trkpt lat="43.71372" lon="3.46446">
        <ele>404.6</ele>
        <time>2022-08-07T07:20:33Z</time>
        <extensions>
          <gpxtpx:TrackPointExtension xmlns:gpxtpx="http://www.garmin.com/xmlschemas/TrackPointExtension/v1">
            <gpxtpx:hr>60</gpxtpx:hr>
          </gpxtpx:TrackPointExtension>
        </extensions>
      </trkpt>
      <trkpt lat="43.71357" lon="3.46449">
        <ele>403.3</ele>
        <time>2022-08-07T07:20:43Z</time>
        <extensions>
          <gpxtpx:TrackPointExtension xmlns:gpxtpx="http://www.garmin.com/xmlschemas/TrackPointExtension/v1">
            <gpxtpx:hr>60</gpxtpx:hr>
          </gpxtpx:TrackPointExtension>
        </extensions>
      </trkpt>
      <trkpt lat="43.71341" lon="3.4646">
        <ele>399.8</ele>
        <time>2022-08-07T07:20:53Z</time>
        <extensions>
          <gpxtpx:TrackPointExtension xmlns:gpxtpx="http://www.garmin.com/xmlschemas/TrackPointExtension/v1">
            <gpxtpx:hr>62</gpxtpx:hr>
          </gpxtpx:TrackPointExtension>
        </extensions>
      </trkpt>
      <trkpt lat="43.71326" lon="3.46472">
        <ele>394.6</ele>
        <time>2022-08-07T07:21:03Z</time>
        <extensions>
          <gpxtpx:TrackPointExtension xmlns:gpxtpx="http://www.garmin.com/xmlschemas/TrackPointExtension/v1">
            <gpxtpx:hr>63</gpxtpx:hr>
          </gpxtpx:TrackPointExtension>
        </extensions>
      </trkpt>
      <trkpt lat="43.71309" lon="3.46471">
        <ele>390.8</ele>
        <time>2022-08-07T07:21:13Z</time>
        <extensions>
          <gpxtpx:TrackPointExtension xmlns:gpxtpx="http://www.garmin.com/xmlschemas/TrackPointExtension/v1">
            <gpxtpx:hr>65</gpxtpx:hr>
          </gpxtpx:TrackPointExtension>
        </extensions>
      </trkpt>
      <trkpt lat="43.71292" lon="3.46468">
        <ele>387.4</ele>
        <time>2022-08-07T07:21:23Z</time>
        <extensions>
          <gpxtpx:TrackPointExtension xmlns:gpxtpx="http://www.garmin.com/xmlschemas/TrackPointExtension/v1">
            <gpxtpx:hr>65</gpxtpx:hr>
          </gpxtpx:TrackPointExtension>
        </extensions>
      </trkpt>
      <trkpt lat="43.71277" lon="3.46461">
        <ele>385.2</ele>
        <time>2022-08-07T07:21:33Z</time>
        <extensions>
          <gpxtpx:TrackPointExtension xmlns:gpxtpx="http://www.garmin.com/xmlschemas/TrackPointExtension/v1">
            <gpxtpx:hr>64</gpxtpx:hr>
          </gpxtpx:TrackPointExtension>
        </extensions>
      </trkpt>
      <trkpt lat="43.71261" lon="3.46452">
        <ele>383</ele>
        <time>2022-08-07T07:21:43Z</time>
        <extensions>
          <gpxtpx:TrackPointExtension xmlns:gpxtpx="http://www.garmin.com/xmlschemas/TrackPointExtension/v1">
            <gpxtpx:hr>63</gpxtpx:hr>
          </gpxtpx:TrackPointExtension>
        </extensions>
      </trkpt>
      <trkpt lat="43.71249" lon="3.46437">
        <ele>383</ele>
        <time>2022-08-07T07:21:53Z</time>
        <extensions>
          <gpxtpx:TrackPointExtension xmlns:gpxtpx="http://www.garmin.com/xmlschemas/TrackPointExtension/v1">
            <gpxtpx:hr>61</gpxtpx:hr>
          </gpxtpx:TrackPointExtension>
        </extensions>
      </trkpt>
      <trkpt lat="43.71241" lon="3.46418">
        <ele>385.5</ele>
        <time>2022-08-07T07:22:03Z</time>
        <extensions>
          <gpxtpx:TrackPointExtension xmlns:gpxtpx="http://www.garmin.com/xmlschemas/TrackPointExtension/v1">
            <gpxtpx:hr>63</gpxtpx:hr>
          </gpxtpx:TrackPointExtension>
        </extensions>
      </trkpt>
      <trkpt lat="43.71236" lon="3.46398">
        <ele>389.2</ele>
        <time>2022-08-07T07:22:13Z</time>
        <extensions>
          <gpxtpx:TrackPointExtension xmlns:gpxtpx="http://www.garmin.com/xmlschemas/TrackPointExtension/v1">
            <gpxtpx:hr>69</gpxtpx:hr>
          </gpxtpx:TrackPointExtension>
        </extensions>
      </trkpt>
      <trkpt lat="43.71231" lon="3.46378">
        <ele>393</ele>
        <time>2022-08-07T07:22:23Z</time>
        <extensions>
          <gpxtpx:TrackPointExtension xmlns:gpxtpx="http://www.garmin.com/xmlschemas/TrackPointExtension/v1">
            <gpxtpx:hr>71</gpxtpx:hr>
          </gpxtpx:TrackPointExtension>
        </extensions>
      </trkpt>
      <trkpt lat="43.71225" lon="3.46357">
        <ele>396.8</ele>
        <time>2022-08-07T07:22:33Z</time>
        <extensions>
          <gpxtpx:TrackPointExtension xmlns:gpxtpx="http://www.garmin.com/xmlschemas/TrackPointExtension/v1">
            <gpxtpx:hr>79</gpxtpx:hr>
          </gpxtpx:TrackPointExtension>
        </extensions>
      </trkpt>
      <trkpt lat="43.71218" lon="3.46336">
        <ele>400.4</ele>
        <time>2022-08-07T07:22:43Z</time>
        <extensions>
          <gpxtpx:TrackPointExtension xmlns:gpxtpx="http://www.garmin.com/xmlschemas/TrackPointExtension/v1">
            <gpxtpx:hr>85</gpxtpx:hr>
          </gpxtpx:TrackPointExtension>
        </extensions>
      </trkpt>
      <trkpt lat="43.71215" lon="3.46313">
        <ele>408</ele>
        <time>2022-08-07T07:22:53Z</time>
        <extensions>
          <gpxtpx:TrackPointExtension xmlns:gpxtpx="http://www.garmin.com/xmlschemas/TrackPointExtension/v1">
            <gpxtpx:hr>86</gpxtpx:hr>
          </gpxtpx:TrackPointExtension>
        </extensions>
      </trkpt>
      <trkpt lat="43.7121" lon="3.46293">
        <ele>414.5</ele>
        <time>2022-08-07T07:23:03Z</time>
        <extensions>
          <gpxtpx:TrackPointExtension xmlns:gpxtpx="http://www.garmin.com/xmlschemas/TrackPointExtension/v1">
            <gpxtpx:hr>88</gpxtpx:hr>
          </gpxtpx:TrackPointExtension>
        </extensions>
      </trkpt>
      <trkpt lat="43.71193" lon="3.46287">
        <ele>414</ele>
        <time>2022-08-07T07:23:13Z</time>
        <extensions>
          <gpxtpx:TrackPointExtension xmlns:gpxtpx="http://www.garmin.com/xmlschemas/TrackPointExtension/v1">
            <gpxtpx:hr>78</gpxtpx:hr>
          </gpxtpx:TrackPointExtension>
        </extensions>
      </trkpt>
      <trkpt lat="43.71177" lon="3.46286">
        <ele>411.7</ele>
        <time>2022-08-07T07:23:23Z</time>
        <extensions>
          <gpxtpx:TrackPointExtension xmlns:gpxtpx="http://www.garmin.com/xmlschemas/TrackPointExtension/v1">
            <gpxtpx:hr>64</gpxtpx:hr>
          </gpxtpx:TrackPointExtension>
        </extensions>
      </trkpt>
      <trkpt lat="43.71161" lon="3.46286">
        <ele>408.5</ele>
        <time>2022-08-07T07:23:33Z</time>
        <extensions>
          <gpxtpx:TrackPointExtension xmlns:gpxtpx="http://www.garmin.com/xmlschemas/TrackPointExtension/v1">
            <gpxtpx:hr>60</gpxtpx:hr>
          </gpxtpx:TrackPointExtension>
        </extensions>
      </trkpt>
      <trkpt lat="43.71143" lon="3.46282">
        <ele>405</ele>
        <time>2022-08-07T07:23:43Z</time>
        <extensions>
          <gpxtpx:TrackPointExtension xmlns:gpxtpx="http://www.garmin.com/xmlschemas/TrackPointExtension/v1">
            <gpxtpx:hr>61</gpxtpx:hr>
          </gpxtpx:TrackPointExtension>
        </extensions>
      </trkpt>
      <trkpt lat="43.71126" lon="3.46276">
        <ele>402.1</ele>
        <time>2022-08-07T07:23:53Z</time>
        <extensions>
          <gpxtpx:TrackPointExtension xmlns:gpxtpx="http://www.garmin.com/xmlschemas/TrackPointExtension/v1">
            <gpxtpx:hr>58</gpxtpx:hr>
          </gpxtpx:TrackPointExtension>
        </extensions>
      </trkpt>
      <trkpt lat="43.71109" lon="3.46265">
        <ele>400.3</ele>
        <time>2022-08-07T07:24:03Z</time>
        <extensions>
          <gpxtpx:TrackPointExtension xmlns:gpxtpx="http://www.garmin.com/xmlschemas/TrackPointExtension/v1">
            <gpxtpx:hr>57</gpxtpx:hr>
          </gpxtpx:TrackPointExtension>
        </extensions>
      </trkpt>
      <trkpt lat="43.71097" lon="3.46249">
        <ele>400.6</ele>
        <time>2022-08-07T07:24:13Z</time>
        <extensions>
          <gpxtpx:TrackPointExtension xmlns:gpxtpx="http://www.garmin.com/xmlschemas/TrackPointExtension/v1">
            <gpxtpx:hr>62</gpxtpx:hr>
          </gpxtpx:TrackPointExtension>
        </extensions>
      </trkpt>
      <trkpt lat="43.71086" lon="3.46232">
        <ele>400.3</ele>
        <time>2022-08-07T07:24:23Z</time>
        <extensions>
          <gpxtpx:TrackPointExtension xmlns:gpxtpx="http://www.garmin.com/xmlschemas/TrackPointExtension/v1">
            <gpxtpx:hr>65</gpxtpx:hr>
          </gpxtpx:TrackPointExtension>
        </extensions>
      </trkpt>
      <trkpt lat="43.71076" lon="3.46212">
        <ele>401</ele>
        <time>2022-08-07T07:24:33Z</time>
        <extensions>
          <gpxtpx:TrackPointExtension xmlns:gpxtpx="http://www.garmin.com/xmlschemas/TrackPointExtension/v1">
            <gpxtpx:hr>65</gpxtpx:hr>
          </gpxtpx:TrackPointExtension>
        </extensions>
      </trkpt>
      <trkpt lat="43.71069" lon="3.46193">
        <ele>402.4</ele>
        <time>2022-08-07T07:24:43Z</time>
        <extensions>
          <gpxtpx:TrackPointExtension xmlns:gpxtpx="http://www.garmin.com/xmlschemas/TrackPointExtension/v1">
            <gpxtpx:hr>68</gpxtpx:hr>
          </gpxtpx:TrackPointExtension>
        </extensions>
      </trkpt>
      <trkpt lat="43.7106" lon="3.46172">
        <ele>403.5</ele>
        <time>2022-08-07T07:24:53Z</time>
        <extensions>
          <gpxtpx:TrackPointExtension xmlns:gpxtpx="http://www.garmin.com/xmlschemas/TrackPointExtension/v1">
            <gpxtpx:hr>76</gpxtpx:hr>
          </gpxtpx:TrackPointExtension>
        </extensions>
      </trkpt>
      <trkpt lat="43.71052" lon="3.46152">
        <ele>405.4</ele>
        <time>2022-08-07T07:25:03Z</time>
        <extensions>
          <gpxtpx:TrackPointExtension xmlns:gpxtpx="http://www.garmin.com/xmlschemas/TrackPointExtension/v1">
            <gpxtpx:hr>73</gpxtpx:hr>
          </gpxtpx:TrackPointExtension>
        </extensions>
      </trkpt>
      <trkpt lat="43.71043" lon="3.46133">
        <ele>407.4</ele>
        <time>2022-08-07T07:25:13Z</time>
        <extensions>
          <gpxtpx:TrackPointExtension xmlns:gpxtpx="http://www.garmin.com/xmlschemas/TrackPointExtension/v1">
            <gpxtpx:hr>69</gpxtpx:hr>
          </gpxtpx:TrackPointExtension>
        </extensions>
      </trkpt>
      <trkpt lat="43.71032" lon="3.46114">
        <ele>409.1</ele>
        <time>2022-08-07T07:25:23Z</time>
        <extensions>
          <gpxtpx:TrackPointExtension xmlns:gpxtpx="http://www.garmin.com/xmlschemas/TrackPointExtension/v1">
            <gpxtpx:hr>67</gpxtpx:hr>
          </gpxtpx:TrackPointExtension>
        </extensions>
      </trkpt>
      <trkpt lat="43.71022" lon="3.46093">
        <ele>411.9</ele>
        <time>2022-08-07T07:25:33Z</time>
        <extensions>
          <gpxtpx:TrackPointExtension xmlns:gpxtpx="http://www.garmin.com/xmlschemas/TrackPointExtension/v1">
            <gpxtpx:hr>67</gpxtpx:hr>
          </gpxtpx:TrackPointExtension>
        </extensions>
      </trkpt>
      <trkpt lat="43.71015" lon="3.46073">
        <ele>415</ele>
        <time>2022-08-07T07:25:43Z</time>
        <extensions>
          <gpxtpx:TrackPointExtension xmlns:gpxtpx="http://www.garmin.com/xmlschemas/TrackPointExtension/v1">
            <gpxtpx:hr>64</gpxtpx:hr>
          </gpxtpx:TrackPointExtension>
        </extensions>
      </trkpt>
      <trkpt lat="43.71007" lon="3.46052">
        <ele>418</ele>
        <time>2022-08-07T07:25:53Z</time>
        <extensions>
          <gpxtpx:TrackPointExtension xmlns:gpxtpx="http://www.garmin.com/xmlschemas/TrackPointExtension/v1">
            <gpxtpx:hr>61</gpxtpx:hr>
          </gpxtpx:TrackPointExtension>
        </extensions>
      </trkpt>
      <trkpt lat="43.70999" lon="3.46032">
        <ele>421.2</ele>
        <time>2022-08-07T07:26:03Z</time>
        <extensions>
          <gpxtpx:TrackPointExtension xmlns:gpxtpx="http://www.garmin.com/xmlschemas/TrackPointExtension/v1">
            <gpxtpx:hr>58</gpxtpx:hr>
          </gpxtpx:TrackPointExtension>
        </extensions>
      </trkpt>
      <trkpt lat="43.7099" lon="3.46012">
        <ele>425</ele>
        <time>2022-08-07T07:26:13Z</time>
        <extensions>
          <gpxtpx:TrackPointExtension xmlns:gpxtpx="http://www.garmin.com/xmlschemas/TrackPointExtension/v1">
            <gpxtpx:hr>59</gpxtpx:hr>
          </gpxtpx:TrackPointExtension>
        </extensions>
      </trkpt>
      <trkpt lat="43.70979" lon="3.45993">
        <ele>426.1</ele>
        <time>2022-08-07T07:26:23Z</time>
        <extensions>
          <gpxtpx:TrackPointExtension xmlns:gpxtpx="http://www.garmin.com/xmlschemas/TrackPointExtension/v1">
            <gpxtpx:hr>62</gpxtpx:hr>
          </gpxtpx:TrackPointExtension>
        </extensions>
      </trkpt>
      <trkpt lat="43.70971" lon="3.45979">
        <ele>424</ele>
        <time>2022-08-07T07:26:33Z</time>
        <extensions>
          <gpxtpx:TrackPointExtension xmlns:gpxtpx="http://www.garmin.com/xmlschemas/TrackPointExtension/v1">
            <gpxtpx:hr>65</gpxtpx:hr>
          </gpxtpx:TrackPointExtension>
        </extensions>
      </trkpt>
      <trkpt lat="43.70985" lon="3.45984">
        <ele>426</ele>
        <time>2022-08-07T07:26:43Z</time>
        <extensions>
          <gpxtpx:TrackPointExtension xmlns:gpxtpx="http://www.garmin.com/xmlschemas/TrackPointExtension/v1">
            <gpxtpx:hr>72</gpxtpx:hr>
          </gpxtpx:TrackPointExtension>
        </extensions>
      </trkpt>
      <trkpt lat="43.70998" lon="3.45997">
        <ele>428.5</ele>
        <time>2022-08-07T07:26:53Z</time>
        <extensions>
          <gpxtpx:TrackPointExtension xmlns:gpxtpx="http://www.garmin.com/xmlschemas/TrackPointExtension/v1">
            <gpxtpx:hr>71</gpxtpx:hr>
          </gpxtpx:TrackPointExtension>
        </extensions>
      </trkpt>
      <trkpt lat="43.71011" lon="3.4601">
        <ele>428.2</ele>
        <time>2022-08-07T07:27:03Z</time>
        <extensions>
          <gpxtpx:TrackPointExtension xmlns:gpxtpx="http://www.garmin.com/xmlschemas/TrackPointExtension/v1">
            <gpxtpx:hr>71</gpxtpx:hr>
          </gpxtpx:TrackPointExtension>
        </extensions>
      </trkpt>
      <trkpt lat="43.71021" lon="3.46029">
        <ele>425.7</ele>
        <time>2022-08-07T07:27:13Z</time>
        <extensions>
          <gpxtpx:TrackPointExtension xmlns:gpxtpx="http://www.garmin.com/xmlschemas/TrackPointExtension/v1">
            <gpxtpx:hr>66</gpxtpx:hr>
          </gpxtpx:TrackPointExtension>
        </extensions>
      </trkpt>
      <trkpt lat="43.71032" lon="3.46049">
        <ele>423.7</ele>
        <time>2022-08-07T07:27:23Z</time>
        <extensions>
          <gpxtpx:TrackPointExtension xmlns:gpxtpx="http://www.garmin.com/xmlschemas/TrackPointExtension/v1">
            <gpxtpx:hr>65</gpxtpx:hr>
          </gpxtpx:TrackPointExtension>
        </extensions>
      </trkpt>
      <trkpt lat="43.71044" lon="3.46067">
        <ele>423</ele>
        <time>2022-08-07T07:27:33Z</time>
        <extensions>
          <gpxtpx:TrackPointExtension xmlns:gpxtpx="http://www.garmin.com/xmlschemas/TrackPointExtension/v1">
            <gpxtpx:hr>68</gpxtpx:hr>
          </gpxtpx:TrackPointExtension>
        </extensions>
      </trkpt>
      <trkpt lat="43.71056" lon="3.46084">
        <ele>423</ele>
        <time>2022-08-07T07:27:43Z</time>
        <extensions>
          <gpxtpx:TrackPointExtension xmlns:gpxtpx="http://www.garmin.com/xmlschemas/TrackPointExtension/v1">
            <gpxtpx:hr>73</gpxtpx:hr>
          </gpxtpx:TrackPointExtension>
        </extensions>
      </trkpt>
      <trkpt lat="43.71069" lon="3.46101">
        <ele>422.4</ele>
        <time>2022-08-07T07:27:53Z</time>
        <extensions>
          <gpxtpx:TrackPointExtension xmlns:gpxtpx="http://www.garmin.com/xmlschemas/TrackPointExtension/v1">
            <gpxtpx:hr>73</gpxtpx:hr>
          </gpxtpx:TrackPointExtension>
        </extensions>
      </trkpt>
      <trkpt lat="43.71083" lon="3.46117">
        <ele>422.6</ele>
        <time>2022-08-07T07:28:03Z</time>
        <extensions>
          <gpxtpx:TrackPointExtension xmlns:gpxtpx="http://www.garmin.com/xmlschemas/TrackPointExtension/v1">
            <gpxtpx:hr>76</gpxtpx:hr>
          </gpxtpx:TrackPointExtension>
        </extensions>
      </trkpt>
      <trkpt lat="43.71099" lon="3.46137">
        <ele>423.6</ele>
        <time>2022-08-07T07:28:13Z</time>
        <extensions>
          <gpxtpx:TrackPointExtension xmlns:gpxtpx="http://www.garmin.com/xmlschemas/TrackPointExtension/v1">
            <gpxtpx:hr>81</gpxtpx:hr>
          </gpxtpx:TrackPointExtension>
        </extensions>
      </trkpt>
      <trkpt lat="43.71114" lon="3.46156">
        <ele>424.3</ele>
        <time>2022-08-07T07:28:23Z</time>
        <extensions>
          <gpxtpx:TrackPointExtension xmlns:gpxtpx="http://www.garmin.com/xmlschemas/TrackPointExtension/v1">
            <gpxtpx:hr>81</gpxtpx:hr>
          </gpxtpx:TrackPointExtension>
        </extensions>
      </trkpt>
      <trkpt lat="43.71128" lon="3.46174">
        <ele>425.1</ele>
        <time>2022-08-07T07:28:33Z</time>
        <extensions>
          <gpxtpx:TrackPointExtension xmlns:gpxtpx="http://www.garmin.com/xmlschemas/TrackPointExtension/v1">
            <gpxtpx:hr>77</gpxtpx:hr>
          </gpxtpx:TrackPointExtension>
        </extensions>
      </trkpt>
      <trkpt lat="43.71145" lon="3.46191">
        <ele>427.3</ele>
        <time>2022-08-07T07:28:43Z</time>
        <extensions>
          <gpxtpx:TrackPointExtension xmlns:gpxtpx="http://www.garmin.com/xmlschemas/TrackPointExtension/v1">
            <gpxtpx:hr>65</gpxtpx:hr>
          </gpxtpx:TrackPointExtension>
        </extensions>
      </trkpt>
      <trkpt lat="43.71166" lon="3.46194">
        <ele>433.5</ele>
        <time>2022-08-07T07:28:53Z</time>
        <extensions>
          <gpxtpx:TrackPointExtension xmlns:gpxtpx="http://www.garmin.com/xmlschemas/TrackPointExtension/v1">
            <gpxtpx:hr>63</gpxtpx:hr>
          </gpxtpx:TrackPointExtension>
        </extensions>
      </trkpt>
      <trkpt lat="43.71183" lon="3.46189">
        <ele>438.9</ele>
        <time>2022-08-07T07:29:03Z</time>
        <extensions>
          <gpxtpx:TrackPointExtension xmlns:gpxtpx="http://www.garmin.com/xmlschemas/TrackPointExtension/v1">
            <gpxtpx:hr>64</gpxtpx:hr>
          </gpxtpx:TrackPointExtension>
        </extensions>
      </trkpt>
      <trkpt lat="43.71204" lon="3.46184">
        <ele>445.5</ele>
        <time>2022-08-07T07:29:13Z</time>
        <extensions>
          <gpxtpx:TrackPointExtension xmlns:gpxtpx="http://www.garmin.com/xmlschemas/TrackPointExtension/v1">
            <gpxtpx:hr>60</gpxtpx:hr>
          </gpxtpx:TrackPointExtension>
        </extensions>
      </trkpt>
      <trkpt lat="43.71223" lon="3.46176">
        <ele>452.7</ele>
        <time>2022-08-07T07:29:23Z</time>
        <extensions>
          <gpxtpx:TrackPointExtension xmlns:gpxtpx="http://www.garmin.com/xmlschemas/TrackPointExtension/v1">
            <gpxtpx:hr>80</gpxtpx:hr>
          </gpxtpx:TrackPointExtension>
        </extensions>
      </trkpt>
      <trkpt lat="43.71232" lon="3.46164">
        <ele>458.4</ele>
        <time>2022-08-07T07:30:23Z</time>
        <extensions>
          <gpxtpx:TrackPointExtension xmlns:gpxtpx="http://www.garmin.com/xmlschemas/TrackPointExtension/v1">
            <gpxtpx:hr>80</gpxtpx:hr>
          </gpxtpx:TrackPointExtension>
        </extensions>
      </trkpt>
      <trkpt lat="43.71218" lon="3.4616">
        <ele>455.2</ele>
        <time>2022-08-07T07:30:43Z</time>
        <extensions>
          <gpxtpx:TrackPointExtension xmlns:gpxtpx="http://www.garmin.com/xmlschemas/TrackPointExtension/v1">
            <gpxtpx:hr>76</gpxtpx:hr>
          </gpxtpx:TrackPointExtension>
        </extensions>
      </trkpt>
      <trkpt lat="43.71207" lon="3.46156">
        <ele>452.9</ele>
        <time>2022-08-07T07:30:53Z</time>
        <extensions>
          <gpxtpx:TrackPointExtension xmlns:gpxtpx="http://www.garmin.com/xmlschemas/TrackPointExtension/v1">
            <gpxtpx:hr>63</gpxtpx:hr>
          </gpxtpx:TrackPointExtension>
        </extensions>
      </trkpt>
      <trkpt lat="43.71196" lon="3.46149">
        <ele>451.4</ele>
        <time>2022-08-07T07:31:03Z</time>
        <extensions>
          <gpxtpx:TrackPointExtension xmlns:gpxtpx="http://www.garmin.com/xmlschemas/TrackPointExtension/v1">
            <gpxtpx:hr>60</gpxtpx:hr>
          </gpxtpx:TrackPointExtension>
        </extensions>
      </trkpt>
      <trkpt lat="43.71185" lon="3.46145">
        <ele>449.3</ele>
        <time>2022-08-07T07:31:13Z</time>
        <extensions>
          <gpxtpx:TrackPointExtension xmlns:gpxtpx="http://www.garmin.com/xmlschemas/TrackPointExtension/v1">
            <gpxtpx:hr>60</gpxtpx:hr>
          </gpxtpx:TrackPointExtension>
        </extensions>
      </trkpt>
      <trkpt lat="43.71176" lon="3.46139">
        <ele>448.2</ele>
        <time>2022-08-07T07:31:23Z</time>
        <extensions>
          <gpxtpx:TrackPointExtension xmlns:gpxtpx="http://www.garmin.com/xmlschemas/TrackPointExtension/v1">
            <gpxtpx:hr>59</gpxtpx:hr>
          </gpxtpx:TrackPointExtension>
        </extensions>
      </trkpt>
      <trkpt lat="43.71164" lon="3.4613">
        <ele>446.9</ele>
        <time>2022-08-07T07:31:33Z</time>
        <extensions>
          <gpxtpx:TrackPointExtension xmlns:gpxtpx="http://www.garmin.com/xmlschemas/TrackPointExtension/v1">
            <gpxtpx:hr>59</gpxtpx:hr>
          </gpxtpx:TrackPointExtension>
        </extensions>
      </trkpt>
      <trkpt lat="43.71154" lon="3.46115">
        <ele>447.1</ele>
        <time>2022-08-07T07:31:43Z</time>
        <extensions>
          <gpxtpx:TrackPointExtension xmlns:gpxtpx="http://www.garmin.com/xmlschemas/TrackPointExtension/v1">
            <gpxtpx:hr>59</gpxtpx:hr>
          </gpxtpx:TrackPointExtension>
        </extensions>
      </trkpt>
      <trkpt lat="43.71141" lon="3.46098">
        <ele>446.7</ele>
        <time>2022-08-07T07:31:53Z</time>
        <extensions>
          <gpxtpx:TrackPointExtension xmlns:gpxtpx="http://www.garmin.com/xmlschemas/TrackPointExtension/v1">
            <gpxtpx:hr>60</gpxtpx:hr>
          </gpxtpx:TrackPointExtension>
        </extensions>
      </trkpt>
      <trkpt lat="43.71124" lon="3.46079">
        <ele>444.3</ele>
        <time>2022-08-07T07:32:03Z</time>
        <extensions>
          <gpxtpx:TrackPointExtension xmlns:gpxtpx="http://www.garmin.com/xmlschemas/TrackPointExtension/v1">
            <gpxtpx:hr>65</gpxtpx:hr>
          </gpxtpx:TrackPointExtension>
        </extensions>
      </trkpt>
      <trkpt lat="43.7113" lon="3.46072">
        <ele>446.5</ele>
        <time>2022-08-07T07:32:13Z</time>
        <extensions>
          <gpxtpx:TrackPointExtension xmlns:gpxtpx="http://www.garmin.com/xmlschemas/TrackPointExtension/v1">
            <gpxtpx:hr>67</gpxtpx:hr>
          </gpxtpx:TrackPointExtension>
        </extensions>
      </trkpt>
      <trkpt lat="43.71143" lon="3.46079">
        <ele>450.8</ele>
        <time>2022-08-07T07:32:23Z</time>
        <extensions>
          <gpxtpx:TrackPointExtension xmlns:gpxtpx="http://www.garmin.com/xmlschemas/TrackPointExtension/v1">
            <gpxtpx:hr>62</gpxtpx:hr>
          </gpxtpx:TrackPointExtension>
        </extensions>
      </trkpt>
      <trkpt lat="43.71157" lon="3.46087">
        <ele>454.8</ele>
        <time>2022-08-07T07:32:33Z</time>
        <extensions>
          <gpxtpx:TrackPointExtension xmlns:gpxtpx="http://www.garmin.com/xmlschemas/TrackPointExtension/v1">
            <gpxtpx:hr>60</gpxtpx:hr>
          </gpxtpx:TrackPointExtension>
        </extensions>
      </trkpt>
      <trkpt lat="43.71172" lon="3.46094">
        <ele>457.8</ele>
        <time>2022-08-07T07:32:43Z</time>
        <extensions>
          <gpxtpx:TrackPointExtension xmlns:gpxtpx="http://www.garmin.com/xmlschemas/TrackPointExtension/v1">
            <gpxtpx:hr>59</gpxtpx:hr>
          </gpxtpx:TrackPointExtension>
        </extensions>
      </trkpt>
      <trkpt lat="43.71188" lon="3.46096">
        <ele>461.2</ele>
        <time>2022-08-07T07:32:53Z</time>
        <extensions>
          <gpxtpx:TrackPointExtension xmlns:gpxtpx="http://www.garmin.com/xmlschemas/TrackPointExtension/v1">
            <gpxtpx:hr>55</gpxtpx:hr>
          </gpxtpx:TrackPointExtension>
        </extensions>
      </trkpt>
      <trkpt lat="43.71203" lon="3.46087">
        <ele>466.9</ele>
        <time>2022-08-07T07:33:03Z</time>
        <extensions>
          <gpxtpx:TrackPointExtension xmlns:gpxtpx="http://www.garmin.com/xmlschemas/TrackPointExtension/v1">
            <gpxtpx:hr>55</gpxtpx:hr>
          </gpxtpx:TrackPointExtension>
        </extensions>
      </trkpt>
      <trkpt lat="43.71218" lon="3.46075">
        <ele>470.4</ele>
        <time>2022-08-07T07:33:13Z</time>
        <extensions>
          <gpxtpx:TrackPointExtension xmlns:gpxtpx="http://www.garmin.com/xmlschemas/TrackPointExtension/v1">
            <gpxtpx:hr>60</gpxtpx:hr>
          </gpxtpx:TrackPointExtension>
        </extensions>
      </trkpt>
      <trkpt lat="43.71226" lon="3.46058">
        <ele>470.1</ele>
        <time>2022-08-07T07:33:23Z</time>
        <extensions>
          <gpxtpx:TrackPointExtension xmlns:gpxtpx="http://www.garmin.com/xmlschemas/TrackPointExtension/v1">
            <gpxtpx:hr>62</gpxtpx:hr>
          </gpxtpx:TrackPointExtension>
        </extensions>
      </trkpt>
      <trkpt lat="43.71238" lon="3.46054">
        <ele>472</ele>
        <time>2022-08-07T07:33:33Z</time>
        <extensions>
          <gpxtpx:TrackPointExtension xmlns:gpxtpx="http://www.garmin.com/xmlschemas/TrackPointExtension/v1">
            <gpxtpx:hr>64</gpxtpx:hr>
          </gpxtpx:TrackPointExtension>
        </extensions>
      </trkpt>
      <trkpt lat="43.71249" lon="3.46048">
        <ele>473.3</ele>
        <time>2022-08-07T07:33:43Z</time>
        <extensions>
          <gpxtpx:TrackPointExtension xmlns:gpxtpx="http://www.garmin.com/xmlschemas/TrackPointExtension/v1">
            <gpxtpx:hr>63</gpxtpx:hr>
          </gpxtpx:TrackPointExtension>
        </extensions>
      </trkpt>
      <trkpt lat="43.71348" lon="3.46094">
        <ele>491.8</ele>
        <time>2022-08-07T07:59:03Z</time>
        <extensions>
          <gpxtpx:TrackPointExtension xmlns:gpxtpx="http://www.garmin.com/xmlschemas/TrackPointExtension/v1">
            <gpxtpx:hr>79</gpxtpx:hr>
          </gpxtpx:TrackPointExtension>
        </extensions>
      </trkpt>
      <trkpt lat="43.71343" lon="3.46102">
        <ele>488.8</ele>
        <time>2022-08-07T07:59:23Z</time>
        <extensions>
          <gpxtpx:TrackPointExtension xmlns:gpxtpx="http://www.garmin.com/xmlschemas/TrackPointExtension/v1">
            <gpxtpx:hr>77</gpxtpx:hr>
          </gpxtpx:TrackPointExtension>
        </extensions>
      </trkpt>
      <trkpt lat="43.71331" lon="3.46106">
        <ele>485.3</ele>
        <time>2022-08-07T07:59:33Z</time>
      </trkpt>
      <trkpt lat="43.71327" lon="3.46111">
        <ele>483.5</ele>
        <time>2022-08-07T07:59:53Z</time>
        <extensions>
          <gpxtpx:TrackPointExtension xmlns:gpxtpx="http://www.garmin.com/xmlschemas/TrackPointExtension/v1">
            <gpxtpx:hr>82</gpxtpx:hr>
          </gpxtpx:TrackPointExtension>
        </extensions>
      </trkpt>
      <trkpt lat="43.71306" lon="3.46091">
        <ele>485.3</ele>
        <time>2022-08-07T08:00:03Z</time>
      </trkpt>
      <trkpt lat="43.71285" lon="3.46076">
        <ele>483.3</ele>
        <time>2022-08-07T08:00:13Z</time>
        <extensions>
          <gpxtpx:TrackPointExtension xmlns:gpxtpx="http://www.garmin.com/xmlschemas/TrackPointExtension/v1">
            <gpxtpx:hr>82</gpxtpx:hr>
          </gpxtpx:TrackPointExtension>
        </extensions>
      </trkpt>
      <trkpt lat="43.7127" lon="3.46057">
        <ele>478.5</ele>
        <time>2022-08-07T08:00:33Z</time>
        <extensions>
          <gpxtpx:TrackPointExtension xmlns:gpxtpx="http://www.garmin.com/xmlschemas/TrackPointExtension/v1">
            <gpxtpx:hr>82</gpxtpx:hr>
          </gpxtpx:TrackPointExtension>
        </extensions>
      </trkpt>
      <trkpt lat="43.71245" lon="3.46055">
        <ele>473.6</ele>
        <time>2022-08-07T08:00:43Z</time>
        <extensions>
          <gpxtpx:TrackPointExtension xmlns:gpxtpx="http://www.garmin.com/xmlschemas/TrackPointExtension/v1">
            <gpxtpx:hr>64</gpxtpx:hr>
          </gpxtpx:TrackPointExtension>
        </extensions>
      </trkpt>
      <trkpt lat="43.71223" lon="3.46068">
        <ele>470.7</ele>
        <time>2022-08-07T08:00:53Z</time>
        <extensions>
          <gpxtpx:TrackPointExtension xmlns:gpxtpx="http://www.garmin.com/xmlschemas/TrackPointExtension/v1">
            <gpxtpx:hr>62</gpxtpx:hr>
          </gpxtpx:TrackPointExtension>
        </extensions>
      </trkpt>
      <trkpt lat="43.71232" lon="3.46086">
        <ele>474.1</ele>
        <time>2022-08-07T08:01:03Z</time>
        <extensions>
          <gpxtpx:TrackPointExtension xmlns:gpxtpx="http://www.garmin.com/xmlschemas/TrackPointExtension/v1">
            <gpxtpx:hr>60</gpxtpx:hr>
          </gpxtpx:TrackPointExtension>
        </extensions>
      </trkpt>
      <trkpt lat="43.71241" lon="3.46104">
        <ele>472.8</ele>
        <time>2022-08-07T08:01:23Z</time>
        <extensions>
          <gpxtpx:TrackPointExtension xmlns:gpxtpx="http://www.garmin.com/xmlschemas/TrackPointExtension/v1">
            <gpxtpx:hr>61</gpxtpx:hr>
          </gpxtpx:TrackPointExtension>
        </extensions>
      </trkpt>
      <trkpt lat="43.71252" lon="3.46118">
        <ele>472.6</ele>
        <time>2022-08-07T08:01:33Z</time>
        <extensions>
          <gpxtpx:TrackPointExtension xmlns:gpxtpx="http://www.garmin.com/xmlschemas/TrackPointExtension/v1">
            <gpxtpx:hr>60</gpxtpx:hr>
          </gpxtpx:TrackPointExtension>
        </extensions>
      </trkpt>
      <trkpt lat="43.71263" lon="3.46142">
        <ele>469.2</ele>
        <time>2022-08-07T08:01:43Z</time>
        <extensions>
          <gpxtpx:TrackPointExtension xmlns:gpxtpx="http://www.garmin.com/xmlschemas/TrackPointExtension/v1">
            <gpxtpx:hr>63</gpxtpx:hr>
          </gpxtpx:TrackPointExtension>
        </extensions>
      </trkpt>
      <trkpt lat="43.71269" lon="3.46163">
        <ele>465.6</ele>
        <time>2022-08-07T08:02:03Z</time>
        <extensions>
          <gpxtpx:TrackPointExtension xmlns:gpxtpx="http://www.garmin.com/xmlschemas/TrackPointExtension/v1">
            <gpxtpx:hr>63</gpxtpx:hr>
          </gpxtpx:TrackPointExtension>
        </extensions>
      </trkpt>
      <trkpt lat="43.71294" lon="3.46215">
        <ele>451.8</ele>
        <time>2022-08-07T08:03:23Z</time>
        <extensions>
          <gpxtpx:TrackPointExtension xmlns:gpxtpx="http://www.garmin.com/xmlschemas/TrackPointExtension/v1">
            <gpxtpx:hr>116</gpxtpx:hr>
          </gpxtpx:TrackPointExtension>
        </extensions>
      </trkpt>
      <trkpt lat="43.71316" lon="3.46265">
        <ele>438.5</ele>
        <time>2022-08-07T08:03:53Z</time>
        <extensions>
          <gpxtpx:TrackPointExtension xmlns:gpxtpx="http://www.garmin.com/xmlschemas/TrackPointExtension/v1">
            <gpxtpx:hr>109</gpxtpx:hr>
          </gpxtpx:TrackPointExtension>
        </extensions>
      </trkpt>
      <trkpt lat="43.7131" lon="3.46291">
        <ele>430.7</ele>
        <time>2022-08-07T08:04:13Z</time>
        <extensions>
          <gpxtpx:TrackPointExtension xmlns:gpxtpx="http://www.garmin.com/xmlschemas/TrackPointExtension/v1">
            <gpxtpx:hr>66</gpxtpx:hr>
          </gpxtpx:TrackPointExtension>
        </extensions>
      </trkpt>
      <trkpt lat="43.7128" lon="3.4632">
        <ele>416.8</ele>
        <time>2022-08-07T08:04:23Z</time>
        <extensions>
          <gpxtpx:TrackPointExtension xmlns:gpxtpx="http://www.garmin.com/xmlschemas/TrackPointExtension/v1">
            <gpxtpx:hr>60</gpxtpx:hr>
          </gpxtpx:TrackPointExtension>
        </extensions>
      </trkpt>
      <trkpt lat="43.71311" lon="3.46365">
        <ele>413.6</ele>
        <time>2022-08-07T08:04:33Z</time>
        <extensions>
          <gpxtpx:TrackPointExtension xmlns:gpxtpx="http://www.garmin.com/xmlschemas/TrackPointExtension/v1">
            <gpxtpx:hr>61</gpxtpx:hr>
          </gpxtpx:TrackPointExtension>
        </extensions>
      </trkpt>
      <trkpt lat="43.71359" lon="3.46356">
        <ele>423.5</ele>
        <time>2022-08-07T08:04:43Z</time>
        <extensions>
          <gpxtpx:TrackPointExtension xmlns:gpxtpx="http://www.garmin.com/xmlschemas/TrackPointExtension/v1">
            <gpxtpx:hr>58</gpxtpx:hr>
          </gpxtpx:TrackPointExtension>
        </extensions>
      </trkpt>
      <trkpt lat="43.71409" lon="3.4635">
        <ele>430.8</ele>
        <time>2022-08-07T08:04:53Z</time>
        <extensions>
          <gpxtpx:TrackPointExtension xmlns:gpxtpx="http://www.garmin.com/xmlschemas/TrackPointExtension/v1">
            <gpxtpx:hr>59</gpxtpx:hr>
          </gpxtpx:TrackPointExtension>
        </extensions>
      </trkpt>
      <trkpt lat="43.71457" lon="3.46351">
        <ele>425.5</ele>
        <time>2022-08-07T08:05:03Z</time>
        <extensions>
          <gpxtpx:TrackPointExtension xmlns:gpxtpx="http://www.garmin.com/xmlschemas/TrackPointExtension/v1">
            <gpxtpx:hr>60</gpxtpx:hr>
          </gpxtpx:TrackPointExtension>
        </extensions>
      </trkpt>
      <trkpt lat="43.71482" lon="3.46369">
        <ele>416.9</ele>
        <time>2022-08-07T08:05:13Z</time>
        <extensions>
          <gpxtpx:TrackPointExtension xmlns:gpxtpx="http://www.garmin.com/xmlschemas/TrackPointExtension/v1">
            <gpxtpx:hr>61</gpxtpx:hr>
          </gpxtpx:TrackPointExtension>
        </extensions>
      </trkpt>
      <trkpt lat="43.71464" lon="3.46387">
        <ele>414.9</ele>
        <time>2022-08-07T08:05:23Z</time>
        <extensions>
          <gpxtpx:TrackPointExtension xmlns:gpxtpx="http://www.garmin.com/xmlschemas/TrackPointExtension/v1">
            <gpxtpx:hr>61</gpxtpx:hr>
          </gpxtpx:TrackPointExtension>
        </extensions>
      </trkpt>
      <trkpt lat="43.71437" lon="3.46432">
        <ele>407.4</ele>
        <time>2022-08-07T08:05:33Z</time>
        <extensions>
          <gpxtpx:TrackPointExtension xmlns:gpxtpx="http://www.garmin.com/xmlschemas/TrackPointExtension/v1">
            <gpxtpx:hr>77</gpxtpx:hr>
          </gpxtpx:TrackPointExtension>
        </extensions>
      </trkpt>
      <trkpt lat="43.71424" lon="3.4646">
        <ele>401.2</ele>
        <time>2022-08-07T08:05:43Z</time>
        <extensions>
          <gpxtpx:TrackPointExtension xmlns:gpxtpx="http://www.garmin.com/xmlschemas/TrackPointExtension/v1">
            <gpxtpx:hr>69</gpxtpx:hr>
          </gpxtpx:TrackPointExtension>
        </extensions>
      </trkpt>
      <trkpt lat="43.71408" lon="3.46492">
        <ele>392.3</ele>
        <time>2022-08-07T08:05:53Z</time>
        <extensions>
          <gpxtpx:TrackPointExtension xmlns:gpxtpx="http://www.garmin.com/xmlschemas/TrackPointExtension/v1">
            <gpxtpx:hr>63</gpxtpx:hr>
          </gpxtpx:TrackPointExtension>
        </extensions>
      </trkpt>
      <trkpt lat="43.71361" lon="3.46526">
        <ele>383.1</ele>
        <time>2022-08-07T08:06:03Z</time>
        <extensions>
          <gpxtpx:TrackPointExtension xmlns:gpxtpx="http://www.garmin.com/xmlschemas/TrackPointExtension/v1">
            <gpxtpx:hr>62</gpxtpx:hr>
          </gpxtpx:TrackPointExtension>
        </extensions>
      </trkpt>
      <trkpt lat="43.71299" lon="3.46541">
        <ele>374.6</ele>
        <time>2022-08-07T08:06:13Z</time>
        <extensions>
          <gpxtpx:TrackPointExtension xmlns:gpxtpx="http://www.garmin.com/xmlschemas/TrackPointExtension/v1">
            <gpxtpx:hr>60</gpxtpx:hr>
          </gpxtpx:TrackPointExtension>
        </extensions>
      </trkpt>
      <trkpt lat="43.71257" lon="3.46565">
        <ele>364.9</ele>
        <time>2022-08-07T08:06:23Z</time>
        <extensions>
          <gpxtpx:TrackPointExtension xmlns:gpxtpx="http://www.garmin.com/xmlschemas/TrackPointExtension/v1">
            <gpxtpx:hr>59</gpxtpx:hr>
          </gpxtpx:TrackPointExtension>
        </extensions>
      </trkpt>
      <trkpt lat="43.71256" lon="3.46586">
        <ele>362.7</ele>
        <time>2022-08-07T08:07:33Z</time>
        <extensions>
          <gpxtpx:TrackPointExtension xmlns:gpxtpx="http://www.garmin.com/xmlschemas/TrackPointExtension/v1">
            <gpxtpx:hr>94</gpxtpx:hr>
          </gpxtpx:TrackPointExtension>
        </extensions>
      </trkpt>
      <trkpt lat="43.71252" lon="3.46628">
        <ele>362.7</ele>
        <time>2022-08-07T08:07:53Z</time>
        <extensions>
          <gpxtpx:TrackPointExtension xmlns:gpxtpx="http://www.garmin.com/xmlschemas/TrackPointExtension/v1">
            <gpxtpx:hr>95</gpxtpx:hr>
          </gpxtpx:TrackPointExtension>
        </extensions>
      </trkpt>
      <trkpt lat="43.71265" lon="3.46648">
        <ele>364.1</ele>
        <time>2022-08-07T08:08:03Z</time>
        <extensions>
          <gpxtpx:TrackPointExtension xmlns:gpxtpx="http://www.garmin.com/xmlschemas/TrackPointExtension/v1">
            <gpxtpx:hr>86</gpxtpx:hr>
          </gpxtpx:TrackPointExtension>
        </extensions>
      </trkpt>
      <trkpt lat="43.71281" lon="3.4666">
        <ele>365.6</ele>
        <time>2022-08-07T08:08:13Z</time>
        <extensions>
          <gpxtpx:TrackPointExtension xmlns:gpxtpx="http://www.garmin.com/xmlschemas/TrackPointExtension/v1">
            <gpxtpx:hr>74</gpxtpx:hr>
          </gpxtpx:TrackPointExtension>
        </extensions>
      </trkpt>
      <trkpt lat="43.71291" lon="3.4671">
        <ele>368.8</ele>
        <time>2022-08-07T08:08:23Z</time>
        <extensions>
          <gpxtpx:TrackPointExtension xmlns:gpxtpx="http://www.garmin.com/xmlschemas/TrackPointExtension/v1">
            <gpxtpx:hr>68</gpxtpx:hr>
          </gpxtpx:TrackPointExtension>
        </extensions>
      </trkpt>
      <trkpt lat="43.71307" lon="3.46777">
        <ele>371.1</ele>
        <time>2022-08-07T08:08:33Z</time>
        <extensions>
          <gpxtpx:TrackPointExtension xmlns:gpxtpx="http://www.garmin.com/xmlschemas/TrackPointExtension/v1">
            <gpxtpx:hr>59</gpxtpx:hr>
          </gpxtpx:TrackPointExtension>
        </extensions>
      </trkpt>
      <trkpt lat="43.71314" lon="3.46831">
        <ele>368</ele>
        <time>2022-08-07T08:08:43Z</time>
        <extensions>
          <gpxtpx:TrackPointExtension xmlns:gpxtpx="http://www.garmin.com/xmlschemas/TrackPointExtension/v1">
            <gpxtpx:hr>59</gpxtpx:hr>
          </gpxtpx:TrackPointExtension>
        </extensions>
      </trkpt>
      <trkpt lat="43.71286" lon="3.46904">
        <ele>356.5</ele>
        <time>2022-08-07T08:08:53Z</time>
        <extensions>
          <gpxtpx:TrackPointExtension xmlns:gpxtpx="http://www.garmin.com/xmlschemas/TrackPointExtension/v1">
            <gpxtpx:hr>60</gpxtpx:hr>
          </gpxtpx:TrackPointExtension>
        </extensions>
      </trkpt>
      <trkpt lat="43.71259" lon="3.46985">
        <ele>341.5</ele>
        <time>2022-08-07T08:09:03Z</time>
        <extensions>
          <gpxtpx:TrackPointExtension xmlns:gpxtpx="http://www.garmin.com/xmlschemas/TrackPointExtension/v1">
            <gpxtpx:hr>60</gpxtpx:hr>
          </gpxtpx:TrackPointExtension>
        </extensions>
      </trkpt>
      <trkpt lat="43.71238" lon="3.47011">
        <ele>337</ele>
        <time>2022-08-07T08:09:13Z</time>
        <extensions>
          <gpxtpx:TrackPointExtension xmlns:gpxtpx="http://www.garmin.com/xmlschemas/TrackPointExtension/v1">
            <gpxtpx:hr>59</gpxtpx:hr>
          </gpxtpx:TrackPointExtension>
        </extensions>
      </trkpt>
      <trkpt lat="43.71191" lon="3.4705">
        <ele>331.5</ele>
        <time>2022-08-07T08:09:43Z</time>
        <extensions>
          <gpxtpx:TrackPointExtension xmlns:gpxtpx="http://www.garmin.com/xmlschemas/TrackPointExtension/v1">
            <gpxtpx:hr>60</gpxtpx:hr>
          </gpxtpx:TrackPointExtension>
        </extensions>
      </trkpt>
      <trkpt lat="43.71148" lon="3.47086">
        <ele>324.7</ele>
        <time>2022-08-07T08:10:03Z</time>
        <extensions>
          <gpxtpx:TrackPointExtension xmlns:gpxtpx="http://www.garmin.com/xmlschemas/TrackPointExtension/v1">
            <gpxtpx:hr>61</gpxtpx:hr>
          </gpxtpx:TrackPointExtension>
        </extensions>
      </trkpt>
      <trkpt lat="43.71099" lon="3.47124">
        <ele>316.8</ele>
        <time>2022-08-07T08:10:13Z</time>
        <extensions>
          <gpxtpx:TrackPointExtension xmlns:gpxtpx="http://www.garmin.com/xmlschemas/TrackPointExtension/v1">
            <gpxtpx:hr>61</gpxtpx:hr>
          </gpxtpx:TrackPointExtension>
        </extensions>
      </trkpt>
      <trkpt lat="43.71056" lon="3.47159">
        <ele>310.5</ele>
        <time>2022-08-07T08:10:23Z</time>
        <extensions>
          <gpxtpx:TrackPointExtension xmlns:gpxtpx="http://www.garmin.com/xmlschemas/TrackPointExtension/v1">
            <gpxtpx:hr>62</gpxtpx:hr>
          </gpxtpx:TrackPointExtension>
        </extensions>
      </trkpt>
      <trkpt lat="43.71025" lon="3.47181">
        <ele>306.4</ele>
        <time>2022-08-07T08:10:33Z</time>
        <extensions>
          <gpxtpx:TrackPointExtension xmlns:gpxtpx="http://www.garmin.com/xmlschemas/TrackPointExtension/v1">
            <gpxtpx:hr>63</gpxtpx:hr>
          </gpxtpx:TrackPointExtension>
        </extensions>
      </trkpt>
      <trkpt lat="43.70995" lon="3.47222">
        <ele>298.5</ele>
        <time>2022-08-07T08:10:43Z</time>
        <extensions>
          <gpxtpx:TrackPointExtension xmlns:gpxtpx="http://www.garmin.com/xmlschemas/TrackPointExtension/v1">
            <gpxtpx:hr>67</gpxtpx:hr>
          </gpxtpx:TrackPointExtension>
        </extensions>
      </trkpt>
      <trkpt lat="43.70975" lon="3.47271">
        <ele>292.3</ele>
        <time>2022-08-07T08:10:53Z</time>
        <extensions>
          <gpxtpx:TrackPointExtension xmlns:gpxtpx="http://www.garmin.com/xmlschemas/TrackPointExtension/v1">
            <gpxtpx:hr>68</gpxtpx:hr>
          </gpxtpx:TrackPointExtension>
        </extensions>
      </trkpt>
      <trkpt lat="43.70958" lon="3.47285">
        <ele>291.1</ele>
        <time>2022-08-07T08:11:03Z</time>
        <extensions>
          <gpxtpx:TrackPointExtension xmlns:gpxtpx="http://www.garmin.com/xmlschemas/TrackPointExtension/v1">
            <gpxtpx:hr>69</gpxtpx:hr>
          </gpxtpx:TrackPointExtension>
        </extensions>
      </trkpt>
      <trkpt lat="43.7096" lon="3.4725">
        <ele>291.6</ele>
        <time>2022-08-07T08:11:13Z</time>
        <extensions>
          <gpxtpx:TrackPointExtension xmlns:gpxtpx="http://www.garmin.com/xmlschemas/TrackPointExtension/v1">
            <gpxtpx:hr>64</gpxtpx:hr>
          </gpxtpx:TrackPointExtension>
        </extensions>
      </trkpt>
      <trkpt lat="43.70956" lon="3.47212">
        <ele>298.7</ele>
        <time>2022-08-07T08:11:23Z</time>
        <extensions>
          <gpxtpx:TrackPointExtension xmlns:gpxtpx="http://www.garmin.com/xmlschemas/TrackPointExtension/v1">
            <gpxtpx:hr>59</gpxtpx:hr>
          </gpxtpx:TrackPointExtension>
        </extensions>
      </trkpt>
      <trkpt lat="43.70906" lon="3.47228">
        <ele>292.4</ele>
        <time>2022-08-07T08:11:33Z</time>
        <extensions>
          <gpxtpx:TrackPointExtension xmlns:gpxtpx="http://www.garmin.com/xmlschemas/TrackPointExtension/v1">
            <gpxtpx:hr>59</gpxtpx:hr>
          </gpxtpx:TrackPointExtension>
        </extensions>
      </trkpt>
      <trkpt lat="43.70849" lon="3.47223">
        <ele>286.7</ele>
        <time>2022-08-07T08:11:43Z</time>
        <extensions>
          <gpxtpx:TrackPointExtension xmlns:gpxtpx="http://www.garmin.com/xmlschemas/TrackPointExtension/v1">
            <gpxtpx:hr>60</gpxtpx:hr>
          </gpxtpx:TrackPointExtension>
        </extensions>
      </trkpt>
      <trkpt lat="43.70798" lon="3.47215">
        <ele>282.5</ele>
        <time>2022-08-07T08:11:53Z</time>
        <extensions>
          <gpxtpx:TrackPointExtension xmlns:gpxtpx="http://www.garmin.com/xmlschemas/TrackPointExtension/v1">
            <gpxtpx:hr>59</gpxtpx:hr>
          </gpxtpx:TrackPointExtension>
        </extensions>
      </trkpt>
      <trkpt lat="43.7075" lon="3.47187">
        <ele>282.6</ele>
        <time>2022-08-07T08:12:03Z</time>
        <extensions>
          <gpxtpx:TrackPointExtension xmlns:gpxtpx="http://www.garmin.com/xmlschemas/TrackPointExtension/v1">
            <gpxtpx:hr>60</gpxtpx:hr>
          </gpxtpx:TrackPointExtension>
        </extensions>
      </trkpt>
      <trkpt lat="43.70709" lon="3.47165">
        <ele>278.7</ele>
        <time>2022-08-07T08:12:13Z</time>
        <extensions>
          <gpxtpx:TrackPointExtension xmlns:gpxtpx="http://www.garmin.com/xmlschemas/TrackPointExtension/v1">
            <gpxtpx:hr>60</gpxtpx:hr>
          </gpxtpx:TrackPointExtension>
        </extensions>
      </trkpt>
      <trkpt lat="43.7066" lon="3.47144">
        <ele>268.8</ele>
        <time>2022-08-07T08:12:23Z</time>
        <extensions>
          <gpxtpx:TrackPointExtension xmlns:gpxtpx="http://www.garmin.com/xmlschemas/TrackPointExtension/v1">
            <gpxtpx:hr>60</gpxtpx:hr>
          </gpxtpx:TrackPointExtension>
        </extensions>
      </trkpt>
      <trkpt lat="43.70646" lon="3.47097">
        <ele>267.2</ele>
        <time>2022-08-07T08:12:33Z</time>
        <extensions>
          <gpxtpx:TrackPointExtension xmlns:gpxtpx="http://www.garmin.com/xmlschemas/TrackPointExtension/v1">
            <gpxtpx:hr>60</gpxtpx:hr>
          </gpxtpx:TrackPointExtension>
        </extensions>
      </trkpt>
      <trkpt lat="43.70653" lon="3.47026">
        <ele>273.1</ele>
        <time>2022-08-07T08:12:43Z</time>
        <extensions>
          <gpxtpx:TrackPointExtension xmlns:gpxtpx="http://www.garmin.com/xmlschemas/TrackPointExtension/v1">
            <gpxtpx:hr>60</gpxtpx:hr>
          </gpxtpx:TrackPointExtension>
        </extensions>
      </trkpt>
      <trkpt lat="43.7066" lon="3.46957">
        <ele>280</ele>
        <time>2022-08-07T08:12:53Z</time>
        <extensions>
          <gpxtpx:TrackPointExtension xmlns:gpxtpx="http://www.garmin.com/xmlschemas/TrackPointExtension/v1">
            <gpxtpx:hr>60</gpxtpx:hr>
          </gpxtpx:TrackPointExtension>
        </extensions>
      </trkpt>
      <trkpt lat="43.70684" lon="3.46898">
        <ele>286</ele>
        <time>2022-08-07T08:13:03Z</time>
        <extensions>
          <gpxtpx:TrackPointExtension xmlns:gpxtpx="http://www.garmin.com/xmlschemas/TrackPointExtension/v1">
            <gpxtpx:hr>60</gpxtpx:hr>
          </gpxtpx:TrackPointExtension>
        </extensions>
      </trkpt>
      <trkpt lat="43.70715" lon="3.46846">
        <ele>286.6</ele>
        <time>2022-08-07T08:13:43Z</time>
        <extensions>
          <gpxtpx:TrackPointExtension xmlns:gpxtpx="http://www.garmin.com/xmlschemas/TrackPointExtension/v1">
            <gpxtpx:hr>59</gpxtpx:hr>
          </gpxtpx:TrackPointExtension>
        </extensions>
      </trkpt>
      <trkpt lat="43.70758" lon="3.46819">
        <ele>285.4</ele>
        <time>2022-08-07T08:14:03Z</time>
        <extensions>
          <gpxtpx:TrackPointExtension xmlns:gpxtpx="http://www.garmin.com/xmlschemas/TrackPointExtension/v1">
            <gpxtpx:hr>60</gpxtpx:hr>
          </gpxtpx:TrackPointExtension>
        </extensions>
      </trkpt>
      <trkpt lat="43.70734" lon="3.46788">
        <ele>284.5</ele>
        <time>2022-08-07T08:14:13Z</time>
        <extensions>
          <gpxtpx:TrackPointExtension xmlns:gpxtpx="http://www.garmin.com/xmlschemas/TrackPointExtension/v1">
            <gpxtpx:hr>60</gpxtpx:hr>
          </gpxtpx:TrackPointExtension>
        </extensions>
      </trkpt>
      <trkpt lat="43.7069" lon="3.46762">
        <ele>282.7</ele>
        <time>2022-08-07T08:14:23Z</time>
        <extensions>
          <gpxtpx:TrackPointExtension xmlns:gpxtpx="http://www.garmin.com/xmlschemas/TrackPointExtension/v1">
            <gpxtpx:hr>60</gpxtpx:hr>
          </gpxtpx:TrackPointExtension>
        </extensions>
      </trkpt>
      <trkpt lat="43.7067" lon="3.46703">
        <ele>280.5</ele>
        <time>2022-08-07T08:14:33Z</time>
        <extensions>
          <gpxtpx:TrackPointExtension xmlns:gpxtpx="http://www.garmin.com/xmlschemas/TrackPointExtension/v1">
            <gpxtpx:hr>60</gpxtpx:hr>
          </gpxtpx:TrackPointExtension>
        </extensions>
      </trkpt>
      <trkpt lat="43.70617" lon="3.46675">
        <ele>282.2</ele>
        <time>2022-08-07T08:14:43Z</time>
        <extensions>
          <gpxtpx:TrackPointExtension xmlns:gpxtpx="http://www.garmin.com/xmlschemas/TrackPointExtension/v1">
            <gpxtpx:hr>59</gpxtpx:hr>
          </gpxtpx:TrackPointExtension>
        </extensions>
      </trkpt>
      <trkpt lat="43.70556" lon="3.46661">
        <ele>287.5</ele>
        <time>2022-08-07T08:14:53Z</time>
        <extensions>
          <gpxtpx:TrackPointExtension xmlns:gpxtpx="http://www.garmin.com/xmlschemas/TrackPointExtension/v1">
            <gpxtpx:hr>59</gpxtpx:hr>
          </gpxtpx:TrackPointExtension>
        </extensions>
      </trkpt>
      <trkpt lat="43.70515" lon="3.4664">
        <ele>292.4</ele>
        <time>2022-08-07T08:15:03Z</time>
        <extensions>
          <gpxtpx:TrackPointExtension xmlns:gpxtpx="http://www.garmin.com/xmlschemas/TrackPointExtension/v1">
            <gpxtpx:hr>60</gpxtpx:hr>
          </gpxtpx:TrackPointExtension>
        </extensions>
      </trkpt>
      <trkpt lat="43.70491" lon="3.46619">
        <ele>293.9</ele>
        <time>2022-08-07T08:15:13Z</time>
        <extensions>
          <gpxtpx:TrackPointExtension xmlns:gpxtpx="http://www.garmin.com/xmlschemas/TrackPointExtension/v1">
            <gpxtpx:hr>60</gpxtpx:hr>
          </gpxtpx:TrackPointExtension>
        </extensions>
      </trkpt>
      <trkpt lat="43.70473" lon="3.46598">
        <ele>293.6</ele>
        <time>2022-08-07T08:15:23Z</time>
        <extensions>
          <gpxtpx:TrackPointExtension xmlns:gpxtpx="http://www.garmin.com/xmlschemas/TrackPointExtension/v1">
            <gpxtpx:hr>60</gpxtpx:hr>
          </gpxtpx:TrackPointExtension>
        </extensions>
      </trkpt>
      <trkpt lat="43.70458" lon="3.4657">
        <ele>291.7</ele>
        <time>2022-08-07T08:15:33Z</time>
        <extensions>
          <gpxtpx:TrackPointExtension xmlns:gpxtpx="http://www.garmin.com/xmlschemas/TrackPointExtension/v1">
            <gpxtpx:hr>60</gpxtpx:hr>
          </gpxtpx:TrackPointExtension>
        </extensions>
      </trkpt>
      <trkpt lat="43.70435" lon="3.46535">
        <ele>288.4</ele>
        <time>2022-08-07T08:15:43Z</time>
        <extensions>
          <gpxtpx:TrackPointExtension xmlns:gpxtpx="http://www.garmin.com/xmlschemas/TrackPointExtension/v1">
            <gpxtpx:hr>60</gpxtpx:hr>
          </gpxtpx:TrackPointExtension>
        </extensions>
      </trkpt>
      <trkpt lat="43.70399" lon="3.46516">
        <ele>286.7</ele>
        <time>2022-08-07T08:15:53Z</time>
        <extensions>
          <gpxtpx:TrackPointExtension xmlns:gpxtpx="http://www.garmin.com/xmlschemas/TrackPointExtension/v1">
            <gpxtpx:hr>59</gpxtpx:hr>
          </gpxtpx:TrackPointExtension>
        </extensions>
      </trkpt>
      <trkpt lat="43.70351" lon="3.46501">
        <ele>283.7</ele>
        <time>2022-08-07T08:16:03Z</time>
        <extensions>
          <gpxtpx:TrackPointExtension xmlns:gpxtpx="http://www.garmin.com/xmlschemas/TrackPointExtension/v1">
            <gpxtpx:hr>59</gpxtpx:hr>
          </gpxtpx:TrackPointExtension>
        </extensions>
      </trkpt>
      <trkpt lat="43.70305" lon="3.46493">
        <ele>283.9</ele>
        <time>2022-08-07T08:16:13Z</time>
        <extensions>
          <gpxtpx:TrackPointExtension xmlns:gpxtpx="http://www.garmin.com/xmlschemas/TrackPointExtension/v1">
            <gpxtpx:hr>60</gpxtpx:hr>
          </gpxtpx:TrackPointExtension>
        </extensions>
      </trkpt>
      <trkpt lat="43.70266" lon="3.46501">
        <ele>286.1</ele>
        <time>2022-08-07T08:16:23Z</time>
        <extensions>
          <gpxtpx:TrackPointExtension xmlns:gpxtpx="http://www.garmin.com/xmlschemas/TrackPointExtension/v1">
            <gpxtpx:hr>59</gpxtpx:hr>
          </gpxtpx:TrackPointExtension>
        </extensions>
      </trkpt>
      <trkpt lat="43.70224" lon="3.46498">
        <ele>286.2</ele>
        <time>2022-08-07T08:16:33Z</time>
        <extensions>
          <gpxtpx:TrackPointExtension xmlns:gpxtpx="http://www.garmin.com/xmlschemas/TrackPointExtension/v1">
            <gpxtpx:hr>59</gpxtpx:hr>
          </gpxtpx:TrackPointExtension>
        </extensions>
      </trkpt>
      <trkpt lat="43.70184" lon="3.46497">
        <ele>284.8</ele>
        <time>2022-08-07T08:16:43Z</time>
        <extensions>
          <gpxtpx:TrackPointExtension xmlns:gpxtpx="http://www.garmin.com/xmlschemas/TrackPointExtension/v1">
            <gpxtpx:hr>59</gpxtpx:hr>
          </gpxtpx:TrackPointExtension>
        </extensions>
      </trkpt>
      <trkpt lat="43.70146" lon="3.46494">
        <ele>281.6</ele>
        <time>2022-08-07T08:16:53Z</time>
        <extensions>
          <gpxtpx:TrackPointExtension xmlns:gpxtpx="http://www.garmin.com/xmlschemas/TrackPointExtension/v1">
            <gpxtpx:hr>59</gpxtpx:hr>
          </gpxtpx:TrackPointExtension>
        </extensions>
      </trkpt>
      <trkpt lat="43.70113" lon="3.46481">
        <ele>277.3</ele>
        <time>2022-08-07T08:17:03Z</time>
        <extensions>
          <gpxtpx:TrackPointExtension xmlns:gpxtpx="http://www.garmin.com/xmlschemas/TrackPointExtension/v1">
            <gpxtpx:hr>60</gpxtpx:hr>
          </gpxtpx:TrackPointExtension>
        </extensions>
      </trkpt>
      <trkpt lat="43.70082" lon="3.46458">
        <ele>272.2</ele>
        <time>2022-08-07T08:17:13Z</time>
        <extensions>
          <gpxtpx:TrackPointExtension xmlns:gpxtpx="http://www.garmin.com/xmlschemas/TrackPointExtension/v1">
            <gpxtpx:hr>60</gpxtpx:hr>
          </gpxtpx:TrackPointExtension>
        </extensions>
      </trkpt>
      <trkpt lat="43.70075" lon="3.46407">
        <ele>270.4</ele>
        <time>2022-08-07T08:17:23Z</time>
        <extensions>
          <gpxtpx:TrackPointExtension xmlns:gpxtpx="http://www.garmin.com/xmlschemas/TrackPointExtension/v1">
            <gpxtpx:hr>59</gpxtpx:hr>
          </gpxtpx:TrackPointExtension>
        </extensions>
      </trkpt>
      <trkpt lat="43.70075" lon="3.46391">
        <ele>271.1</ele>
        <time>2022-08-07T08:17:43Z</time>
        <extensions>
          <gpxtpx:TrackPointExtension xmlns:gpxtpx="http://www.garmin.com/xmlschemas/TrackPointExtension/v1">
            <gpxtpx:hr>61</gpxtpx:hr>
          </gpxtpx:TrackPointExtension>
        </extensions>
      </trkpt>
      <trkpt lat="43.70066" lon="3.4633">
        <ele>272.7</ele>
        <time>2022-08-07T08:18:03Z</time>
        <extensions>
          <gpxtpx:TrackPointExtension xmlns:gpxtpx="http://www.garmin.com/xmlschemas/TrackPointExtension/v1">
            <gpxtpx:hr>61</gpxtpx:hr>
          </gpxtpx:TrackPointExtension>
        </extensions>
      </trkpt>
      <trkpt lat="43.70021" lon="3.46266">
        <ele>276</ele>
        <time>2022-08-07T08:18:13Z</time>
        <extensions>
          <gpxtpx:TrackPointExtension xmlns:gpxtpx="http://www.garmin.com/xmlschemas/TrackPointExtension/v1">
            <gpxtpx:hr>61</gpxtpx:hr>
          </gpxtpx:TrackPointExtension>
        </extensions>
      </trkpt>
      <trkpt lat="43.69957" lon="3.46263">
        <ele>267.8</ele>
        <time>2022-08-07T08:18:23Z</time>
        <extensions>
          <gpxtpx:TrackPointExtension xmlns:gpxtpx="http://www.garmin.com/xmlschemas/TrackPointExtension/v1">
            <gpxtpx:hr>62</gpxtpx:hr>
          </gpxtpx:TrackPointExtension>
        </extensions>
      </trkpt>
      <trkpt lat="43.69911" lon="3.46238">
        <ele>262</ele>
        <time>2022-08-07T08:18:33Z</time>
        <extensions>
          <gpxtpx:TrackPointExtension xmlns:gpxtpx="http://www.garmin.com/xmlschemas/TrackPointExtension/v1">
            <gpxtpx:hr>60</gpxtpx:hr>
          </gpxtpx:TrackPointExtension>
        </extensions>
      </trkpt>
      <trkpt lat="43.69872" lon="3.46182">
        <ele>253.3</ele>
        <time>2022-08-07T08:18:43Z</time>
        <extensions>
          <gpxtpx:TrackPointExtension xmlns:gpxtpx="http://www.garmin.com/xmlschemas/TrackPointExtension/v1">
            <gpxtpx:hr>60</gpxtpx:hr>
          </gpxtpx:TrackPointExtension>
        </extensions>
      </trkpt>
      <trkpt lat="43.69841" lon="3.46093">
        <ele>251.6</ele>
        <time>2022-08-07T08:18:53Z</time>
        <extensions>
          <gpxtpx:TrackPointExtension xmlns:gpxtpx="http://www.garmin.com/xmlschemas/TrackPointExtension/v1">
            <gpxtpx:hr>59</gpxtpx:hr>
          </gpxtpx:TrackPointExtension>
        </extensions>
      </trkpt>
      <trkpt lat="43.69759" lon="3.46029">
        <ele>263.7</ele>
        <time>2022-08-07T08:19:03Z</time>
        <extensions>
          <gpxtpx:TrackPointExtension xmlns:gpxtpx="http://www.garmin.com/xmlschemas/TrackPointExtension/v1">
            <gpxtpx:hr>60</gpxtpx:hr>
          </gpxtpx:TrackPointExtension>
        </extensions>
      </trkpt>
      <trkpt lat="43.69691" lon="3.46023">
        <ele>264</ele>
        <time>2022-08-07T08:19:13Z</time>
        <extensions>
          <gpxtpx:TrackPointExtension xmlns:gpxtpx="http://www.garmin.com/xmlschemas/TrackPointExtension/v1">
            <gpxtpx:hr>60</gpxtpx:hr>
          </gpxtpx:TrackPointExtension>
        </extensions>
      </trkpt>
      <trkpt lat="43.69646" lon="3.46036">
        <ele>255.1</ele>
        <time>2022-08-07T08:19:23Z</time>
        <extensions>
          <gpxtpx:TrackPointExtension xmlns:gpxtpx="http://www.garmin.com/xmlschemas/TrackPointExtension/v1">
            <gpxtpx:hr>60</gpxtpx:hr>
          </gpxtpx:TrackPointExtension>
        </extensions>
      </trkpt>
      <trkpt lat="43.69603" lon="3.46052">
        <ele>240.4</ele>
        <time>2022-08-07T08:19:33Z</time>
        <extensions>
          <gpxtpx:TrackPointExtension xmlns:gpxtpx="http://www.garmin.com/xmlschemas/TrackPointExtension/v1">
            <gpxtpx:hr>59</gpxtpx:hr>
          </gpxtpx:TrackPointExtension>
        </extensions>
      </trkpt>
      <trkpt lat="43.6957" lon="3.46021">
        <ele>236.2</ele>
        <time>2022-08-07T08:20:23Z</time>
        <extensions>
          <gpxtpx:TrackPointExtension xmlns:gpxtpx="http://www.garmin.com/xmlschemas/TrackPointExtension/v1">
            <gpxtpx:hr>60</gpxtpx:hr>
          </gpxtpx:TrackPointExtension>
        </extensions>
      </trkpt>
      <trkpt lat="43.69514" lon="3.45941">
        <ele>233.4</ele>
        <time>2022-08-07T08:20:43Z</time>
        <extensions>
          <gpxtpx:TrackPointExtension xmlns:gpxtpx="http://www.garmin.com/xmlschemas/TrackPointExtension/v1">
            <gpxtpx:hr>60</gpxtpx:hr>
          </gpxtpx:TrackPointExtension>
        </extensions>
      </trkpt>
      <trkpt lat="43.6944" lon="3.45851">
        <ele>233.2</ele>
        <time>2022-08-07T08:20:53Z</time>
        <extensions>
          <gpxtpx:TrackPointExtension xmlns:gpxtpx="http://www.garmin.com/xmlschemas/TrackPointExtension/v1">
            <gpxtpx:hr>60</gpxtpx:hr>
          </gpxtpx:TrackPointExtension>
        </extensions>
      </trkpt>
      <trkpt lat="43.69355" lon="3.45805">
        <ele>227.7</ele>
        <time>2022-08-07T08:21:03Z</time>
        <extensions>
          <gpxtpx:TrackPointExtension xmlns:gpxtpx="http://www.garmin.com/xmlschemas/TrackPointExtension/v1">
            <gpxtpx:hr>60</gpxtpx:hr>
          </gpxtpx:TrackPointExtension>
        </extensions>
      </trkpt>
      <trkpt lat="43.69292" lon="3.45766">
        <ele>225.1</ele>
        <time>2022-08-07T08:21:13Z</time>
        <extensions>
          <gpxtpx:TrackPointExtension xmlns:gpxtpx="http://www.garmin.com/xmlschemas/TrackPointExtension/v1">
            <gpxtpx:hr>59</gpxtpx:hr>
          </gpxtpx:TrackPointExtension>
        </extensions>
      </trkpt>
      <trkpt lat="43.69255" lon="3.45727">
        <ele>225.2</ele>
        <time>2022-08-07T08:21:23Z</time>
        <extensions>
          <gpxtpx:TrackPointExtension xmlns:gpxtpx="http://www.garmin.com/xmlschemas/TrackPointExtension/v1">
            <gpxtpx:hr>60</gpxtpx:hr>
          </gpxtpx:TrackPointExtension>
        </extensions>
      </trkpt>
      <trkpt lat="43.6922" lon="3.45684">
        <ele>228.2</ele>
        <time>2022-08-07T08:21:33Z</time>
        <extensions>
          <gpxtpx:TrackPointExtension xmlns:gpxtpx="http://www.garmin.com/xmlschemas/TrackPointExtension/v1">
            <gpxtpx:hr>60</gpxtpx:hr>
          </gpxtpx:TrackPointExtension>
        </extensions>
      </trkpt>
      <trkpt lat="43.69161" lon="3.45643">
        <ele>233.2</ele>
        <time>2022-08-07T08:21:43Z</time>
        <extensions>
          <gpxtpx:TrackPointExtension xmlns:gpxtpx="http://www.garmin.com/xmlschemas/TrackPointExtension/v1">
            <gpxtpx:hr>60</gpxtpx:hr>
          </gpxtpx:TrackPointExtension>
        </extensions>
      </trkpt>
      <trkpt lat="43.69092" lon="3.45634">
        <ele>235.1</ele>
        <time>2022-08-07T08:21:53Z</time>
        <extensions>
          <gpxtpx:TrackPointExtension xmlns:gpxtpx="http://www.garmin.com/xmlschemas/TrackPointExtension/v1">
            <gpxtpx:hr>60</gpxtpx:hr>
          </gpxtpx:TrackPointExtension>
        </extensions>
      </trkpt>
      <trkpt lat="43.69037" lon="3.45626">
        <ele>232.8</ele>
        <time>2022-08-07T08:22:03Z</time>
        <extensions>
          <gpxtpx:TrackPointExtension xmlns:gpxtpx="http://www.garmin.com/xmlschemas/TrackPointExtension/v1">
            <gpxtpx:hr>65</gpxtpx:hr>
          </gpxtpx:TrackPointExtension>
        </extensions>
      </trkpt>
      <trkpt lat="43.69015" lon="3.45608">
        <ele>234</ele>
        <time>2022-08-07T08:22:13Z</time>
        <extensions>
          <gpxtpx:TrackPointExtension xmlns:gpxtpx="http://www.garmin.com/xmlschemas/TrackPointExtension/v1">
            <gpxtpx:hr>59</gpxtpx:hr>
          </gpxtpx:TrackPointExtension>
        </extensions>
      </trkpt>
      <trkpt lat="43.69003" lon="3.45585">
        <ele>236.9</ele>
        <time>2022-08-07T08:22:23Z</time>
        <extensions>
          <gpxtpx:TrackPointExtension xmlns:gpxtpx="http://www.garmin.com/xmlschemas/TrackPointExtension/v1">
            <gpxtpx:hr>59</gpxtpx:hr>
          </gpxtpx:TrackPointExtension>
        </extensions>
      </trkpt>
      <trkpt lat="43.68992" lon="3.45561">
        <ele>242.1</ele>
        <time>2022-08-07T08:22:33Z</time>
        <extensions>
          <gpxtpx:TrackPointExtension xmlns:gpxtpx="http://www.garmin.com/xmlschemas/TrackPointExtension/v1">
            <gpxtpx:hr>60</gpxtpx:hr>
          </gpxtpx:TrackPointExtension>
        </extensions>
      </trkpt>
      <trkpt lat="43.68983" lon="3.45543">
        <ele>246.3</ele>
        <time>2022-08-07T08:22:43Z</time>
        <extensions>
          <gpxtpx:TrackPointExtension xmlns:gpxtpx="http://www.garmin.com/xmlschemas/TrackPointExtension/v1">
            <gpxtpx:hr>58</gpxtpx:hr>
          </gpxtpx:TrackPointExtension>
        </extensions>
      </trkpt>
      <trkpt lat="43.68962" lon="3.45536">
        <ele>248.9</ele>
        <time>2022-08-07T08:22:53Z</time>
        <extensions>
          <gpxtpx:TrackPointExtension xmlns:gpxtpx="http://www.garmin.com/xmlschemas/TrackPointExtension/v1">
            <gpxtpx:hr>59</gpxtpx:hr>
          </gpxtpx:TrackPointExtension>
        </extensions>
      </trkpt>
      <trkpt lat="43.68943" lon="3.45534">
        <ele>250.4</ele>
        <time>2022-08-07T08:23:03Z</time>
        <extensions>
          <gpxtpx:TrackPointExtension xmlns:gpxtpx="http://www.garmin.com/xmlschemas/TrackPointExtension/v1">
            <gpxtpx:hr>59</gpxtpx:hr>
          </gpxtpx:TrackPointExtension>
        </extensions>
      </trkpt>
      <trkpt lat="43.68924" lon="3.45535">
        <ele>251.3</ele>
        <time>2022-08-07T08:23:13Z</time>
        <extensions>
          <gpxtpx:TrackPointExtension xmlns:gpxtpx="http://www.garmin.com/xmlschemas/TrackPointExtension/v1">
            <gpxtpx:hr>60</gpxtpx:hr>
          </gpxtpx:TrackPointExtension>
        </extensions>
      </trkpt>
      <trkpt lat="43.68905" lon="3.45536">
        <ele>250.5</ele>
        <time>2022-08-07T08:23:23Z</time>
        <extensions>
          <gpxtpx:TrackPointExtension xmlns:gpxtpx="http://www.garmin.com/xmlschemas/TrackPointExtension/v1">
            <gpxtpx:hr>60</gpxtpx:hr>
          </gpxtpx:TrackPointExtension>
        </extensions>
      </trkpt>
      <trkpt lat="43.68882" lon="3.45536">
        <ele>248.4</ele>
        <time>2022-08-07T08:23:33Z</time>
        <extensions>
          <gpxtpx:TrackPointExtension xmlns:gpxtpx="http://www.garmin.com/xmlschemas/TrackPointExtension/v1">
            <gpxtpx:hr>59</gpxtpx:hr>
          </gpxtpx:TrackPointExtension>
        </extensions>
      </trkpt>
      <trkpt lat="43.68859" lon="3.45533">
        <ele>246.8</ele>
        <time>2022-08-07T08:23:43Z</time>
        <extensions>
          <gpxtpx:TrackPointExtension xmlns:gpxtpx="http://www.garmin.com/xmlschemas/TrackPointExtension/v1">
            <gpxtpx:hr>59</gpxtpx:hr>
          </gpxtpx:TrackPointExtension>
        </extensions>
      </trkpt>
      <trkpt lat="43.68832" lon="3.45523">
        <ele>246</ele>
        <time>2022-08-07T08:23:53Z</time>
        <extensions>
          <gpxtpx:TrackPointExtension xmlns:gpxtpx="http://www.garmin.com/xmlschemas/TrackPointExtension/v1">
            <gpxtpx:hr>59</gpxtpx:hr>
          </gpxtpx:TrackPointExtension>
        </extensions>
      </trkpt>
      <trkpt lat="43.68807" lon="3.45508">
        <ele>245.3</ele>
        <time>2022-08-07T08:24:03Z</time>
        <extensions>
          <gpxtpx:TrackPointExtension xmlns:gpxtpx="http://www.garmin.com/xmlschemas/TrackPointExtension/v1">
            <gpxtpx:hr>60</gpxtpx:hr>
          </gpxtpx:TrackPointExtension>
        </extensions>
      </trkpt>
      <trkpt lat="43.68786" lon="3.45489">
        <ele>245.9</ele>
        <time>2022-08-07T08:24:13Z</time>
        <extensions>
          <gpxtpx:TrackPointExtension xmlns:gpxtpx="http://www.garmin.com/xmlschemas/TrackPointExtension/v1">
            <gpxtpx:hr>60</gpxtpx:hr>
          </gpxtpx:TrackPointExtension>
        </extensions>
      </trkpt>
      <trkpt lat="43.68765" lon="3.45466">
        <ele>246</ele>
        <time>2022-08-07T08:24:23Z</time>
        <extensions>
          <gpxtpx:TrackPointExtension xmlns:gpxtpx="http://www.garmin.com/xmlschemas/TrackPointExtension/v1">
            <gpxtpx:hr>59</gpxtpx:hr>
          </gpxtpx:TrackPointExtension>
        </extensions>
      </trkpt>
      <trkpt lat="43.68747" lon="3.45444">
        <ele>245.4</ele>
        <time>2022-08-07T08:24:33Z</time>
        <extensions>
          <gpxtpx:TrackPointExtension xmlns:gpxtpx="http://www.garmin.com/xmlschemas/TrackPointExtension/v1">
            <gpxtpx:hr>60</gpxtpx:hr>
          </gpxtpx:TrackPointExtension>
        </extensions>
      </trkpt>
      <trkpt lat="43.68729" lon="3.45421">
        <ele>243.8</ele>
        <time>2022-08-07T08:24:43Z</time>
        <extensions>
          <gpxtpx:TrackPointExtension xmlns:gpxtpx="http://www.garmin.com/xmlschemas/TrackPointExtension/v1">
            <gpxtpx:hr>60</gpxtpx:hr>
          </gpxtpx:TrackPointExtension>
        </extensions>
      </trkpt>
      <trkpt lat="43.68713" lon="3.45395">
        <ele>241.9</ele>
        <time>2022-08-07T08:24:53Z</time>
        <extensions>
          <gpxtpx:TrackPointExtension xmlns:gpxtpx="http://www.garmin.com/xmlschemas/TrackPointExtension/v1">
            <gpxtpx:hr>60</gpxtpx:hr>
          </gpxtpx:TrackPointExtension>
        </extensions>
      </trkpt>
      <trkpt lat="43.68702" lon="3.45365">
        <ele>241</ele>
        <time>2022-08-07T08:25:03Z</time>
        <extensions>
          <gpxtpx:TrackPointExtension xmlns:gpxtpx="http://www.garmin.com/xmlschemas/TrackPointExtension/v1">
            <gpxtpx:hr>59</gpxtpx:hr>
          </gpxtpx:TrackPointExtension>
        </extensions>
      </trkpt>
      <trkpt lat="43.68694" lon="3.45333">
        <ele>240.6</ele>
        <time>2022-08-07T08:25:13Z</time>
        <extensions>
          <gpxtpx:TrackPointExtension xmlns:gpxtpx="http://www.garmin.com/xmlschemas/TrackPointExtension/v1">
            <gpxtpx:hr>59</gpxtpx:hr>
          </gpxtpx:TrackPointExtension>
        </extensions>
      </trkpt>
      <trkpt lat="43.6869" lon="3.45296">
        <ele>243.8</ele>
        <time>2022-08-07T08:25:23Z</time>
        <extensions>
          <gpxtpx:TrackPointExtension xmlns:gpxtpx="http://www.garmin.com/xmlschemas/TrackPointExtension/v1">
            <gpxtpx:hr>60</gpxtpx:hr>
          </gpxtpx:TrackPointExtension>
        </extensions>
      </trkpt>
      <trkpt lat="43.68689" lon="3.45251">
        <ele>248.9</ele>
        <time>2022-08-07T08:25:33Z</time>
        <extensions>
          <gpxtpx:TrackPointExtension xmlns:gpxtpx="http://www.garmin.com/xmlschemas/TrackPointExtension/v1">
            <gpxtpx:hr>58</gpxtpx:hr>
          </gpxtpx:TrackPointExtension>
        </extensions>
      </trkpt>
      <trkpt lat="43.68688" lon="3.45203">
        <ele>255.1</ele>
        <time>2022-08-07T08:25:43Z</time>
        <extensions>
          <gpxtpx:TrackPointExtension xmlns:gpxtpx="http://www.garmin.com/xmlschemas/TrackPointExtension/v1">
            <gpxtpx:hr>58</gpxtpx:hr>
          </gpxtpx:TrackPointExtension>
        </extensions>
      </trkpt>
      <trkpt lat="43.6869" lon="3.45156">
        <ele>261.1</ele>
        <time>2022-08-07T08:25:53Z</time>
        <extensions>
          <gpxtpx:TrackPointExtension xmlns:gpxtpx="http://www.garmin.com/xmlschemas/TrackPointExtension/v1">
            <gpxtpx:hr>60</gpxtpx:hr>
          </gpxtpx:TrackPointExtension>
        </extensions>
      </trkpt>
      <trkpt lat="43.68676" lon="3.45099">
        <ele>266.7</ele>
        <time>2022-08-07T08:26:03Z</time>
        <extensions>
          <gpxtpx:TrackPointExtension xmlns:gpxtpx="http://www.garmin.com/xmlschemas/TrackPointExtension/v1">
            <gpxtpx:hr>60</gpxtpx:hr>
          </gpxtpx:TrackPointExtension>
        </extensions>
      </trkpt>
      <trkpt lat="43.68637" lon="3.45074">
        <ele>268.7</ele>
        <time>2022-08-07T08:26:13Z</time>
        <extensions>
          <gpxtpx:TrackPointExtension xmlns:gpxtpx="http://www.garmin.com/xmlschemas/TrackPointExtension/v1">
            <gpxtpx:hr>60</gpxtpx:hr>
          </gpxtpx:TrackPointExtension>
        </extensions>
      </trkpt>
      <trkpt lat="43.68599" lon="3.45056">
        <ele>268.8</ele>
        <time>2022-08-07T08:26:23Z</time>
        <extensions>
          <gpxtpx:TrackPointExtension xmlns:gpxtpx="http://www.garmin.com/xmlschemas/TrackPointExtension/v1">
            <gpxtpx:hr>59</gpxtpx:hr>
          </gpxtpx:TrackPointExtension>
        </extensions>
      </trkpt>
      <trkpt lat="43.68563" lon="3.4503">
        <ele>268.1</ele>
        <time>2022-08-07T08:26:33Z</time>
        <extensions>
          <gpxtpx:TrackPointExtension xmlns:gpxtpx="http://www.garmin.com/xmlschemas/TrackPointExtension/v1">
            <gpxtpx:hr>59</gpxtpx:hr>
          </gpxtpx:TrackPointExtension>
        </extensions>
      </trkpt>
      <trkpt lat="43.68527" lon="3.45002">
        <ele>266.9</ele>
        <time>2022-08-07T08:26:43Z</time>
      </trkpt>
      <trkpt lat="43.68481" lon="3.44978">
        <ele>264.7</ele>
        <time>2022-08-07T08:26:53Z</time>
        <extensions>
          <gpxtpx:TrackPointExtension xmlns:gpxtpx="http://www.garmin.com/xmlschemas/TrackPointExtension/v1">
            <gpxtpx:hr>60</gpxtpx:hr>
          </gpxtpx:TrackPointExtension>
        </extensions>
      </trkpt>
      <trkpt lat="43.6842" lon="3.44959">
        <ele>262.1</ele>
        <time>2022-08-07T08:27:03Z</time>
        <extensions>
          <gpxtpx:TrackPointExtension xmlns:gpxtpx="http://www.garmin.com/xmlschemas/TrackPointExtension/v1">
            <gpxtpx:hr>60</gpxtpx:hr>
          </gpxtpx:TrackPointExtension>
        </extensions>
      </trkpt>
      <trkpt lat="43.68362" lon="3.44906">
        <ele>259.2</ele>
        <time>2022-08-07T08:27:13Z</time>
        <extensions>
          <gpxtpx:TrackPointExtension xmlns:gpxtpx="http://www.garmin.com/xmlschemas/TrackPointExtension/v1">
            <gpxtpx:hr>59</gpxtpx:hr>
          </gpxtpx:TrackPointExtension>
        </extensions>
      </trkpt>
      <trkpt lat="43.68317" lon="3.44824">
        <ele>256.4</ele>
        <time>2022-08-07T08:27:23Z</time>
        <extensions>
          <gpxtpx:TrackPointExtension xmlns:gpxtpx="http://www.garmin.com/xmlschemas/TrackPointExtension/v1">
            <gpxtpx:hr>58</gpxtpx:hr>
          </gpxtpx:TrackPointExtension>
        </extensions>
      </trkpt>
      <trkpt lat="43.68294" lon="3.44755">
        <ele>250.5</ele>
        <time>2022-08-07T08:27:33Z</time>
        <extensions>
          <gpxtpx:TrackPointExtension xmlns:gpxtpx="http://www.garmin.com/xmlschemas/TrackPointExtension/v1">
            <gpxtpx:hr>58</gpxtpx:hr>
          </gpxtpx:TrackPointExtension>
        </extensions>
      </trkpt>
      <trkpt lat="43.68254" lon="3.44695">
        <ele>243.7</ele>
        <time>2022-08-07T08:27:43Z</time>
        <extensions>
          <gpxtpx:TrackPointExtension xmlns:gpxtpx="http://www.garmin.com/xmlschemas/TrackPointExtension/v1">
            <gpxtpx:hr>60</gpxtpx:hr>
          </gpxtpx:TrackPointExtension>
        </extensions>
      </trkpt>
      <trkpt lat="43.6824" lon="3.44661">
        <ele>239.9</ele>
        <time>2022-08-07T08:27:53Z</time>
        <extensions>
          <gpxtpx:TrackPointExtension xmlns:gpxtpx="http://www.garmin.com/xmlschemas/TrackPointExtension/v1">
            <gpxtpx:hr>61</gpxtpx:hr>
          </gpxtpx:TrackPointExtension>
        </extensions>
      </trkpt>
      <trkpt lat="43.68208" lon="3.44653">
        <ele>235.8</ele>
        <time>2022-08-07T08:30:03Z</time>
        <extensions>
          <gpxtpx:TrackPointExtension xmlns:gpxtpx="http://www.garmin.com/xmlschemas/TrackPointExtension/v1">
            <gpxtpx:hr>63</gpxtpx:hr>
          </gpxtpx:TrackPointExtension>
        </extensions>
      </trkpt>
      <trkpt lat="43.68164" lon="3.44653">
        <ele>231.9</ele>
        <time>2022-08-07T08:30:23Z</time>
        <extensions>
          <gpxtpx:TrackPointExtension xmlns:gpxtpx="http://www.garmin.com/xmlschemas/TrackPointExtension/v1">
            <gpxtpx:hr>65</gpxtpx:hr>
          </gpxtpx:TrackPointExtension>
        </extensions>
      </trkpt>
      <trkpt lat="43.68112" lon="3.44626">
        <ele>229.4</ele>
        <time>2022-08-07T08:30:33Z</time>
      </trkpt>
      <trkpt lat="43.68041" lon="3.44598">
        <ele>229.1</ele>
        <time>2022-08-07T08:30:43Z</time>
        <extensions>
          <gpxtpx:TrackPointExtension xmlns:gpxtpx="http://www.garmin.com/xmlschemas/TrackPointExtension/v1">
            <gpxtpx:hr>65</gpxtpx:hr>
          </gpxtpx:TrackPointExtension>
        </extensions>
      </trkpt>
      <trkpt lat="43.6798" lon="3.44574">
        <ele>226.6</ele>
        <time>2022-08-07T08:30:53Z</time>
        <extensions>
          <gpxtpx:TrackPointExtension xmlns:gpxtpx="http://www.garmin.com/xmlschemas/TrackPointExtension/v1">
            <gpxtpx:hr>65</gpxtpx:hr>
          </gpxtpx:TrackPointExtension>
        </extensions>
      </trkpt>
      <trkpt lat="43.67925" lon="3.44537">
        <ele>223.4</ele>
        <time>2022-08-07T08:31:03Z</time>
      </trkpt>
      <trkpt lat="43.67854" lon="3.4451">
        <ele>223.1</ele>
        <time>2022-08-07T08:31:13Z</time>
      </trkpt>
      <trkpt lat="43.67793" lon="3.44506">
        <ele>223.5</ele>
        <time>2022-08-07T08:31:23Z</time>
        <extensions>
          <gpxtpx:TrackPointExtension xmlns:gpxtpx="http://www.garmin.com/xmlschemas/TrackPointExtension/v1">
            <gpxtpx:hr>66</gpxtpx:hr>
          </gpxtpx:TrackPointExtension>
        </extensions>
      </trkpt>
      <trkpt lat="43.67733" lon="3.44491">
        <ele>222.5</ele>
        <time>2022-08-07T08:31:33Z</time>
        <extensions>
          <gpxtpx:TrackPointExtension xmlns:gpxtpx="http://www.garmin.com/xmlschemas/TrackPointExtension/v1">
            <gpxtpx:hr>62</gpxtpx:hr>
          </gpxtpx:TrackPointExtension>
        </extensions>
      </trkpt>
      <trkpt lat="43.67682" lon="3.44474">
        <ele>219</ele>
        <time>2022-08-07T08:31:43Z</time>
        <extensions>
          <gpxtpx:TrackPointExtension xmlns:gpxtpx="http://www.garmin.com/xmlschemas/TrackPointExtension/v1">
            <gpxtpx:hr>59</gpxtpx:hr>
          </gpxtpx:TrackPointExtension>
        </extensions>
      </trkpt>
      <trkpt lat="43.67632" lon="3.4445">
        <ele>216.1</ele>
        <time>2022-08-07T08:31:53Z</time>
        <extensions>
          <gpxtpx:TrackPointExtension xmlns:gpxtpx="http://www.garmin.com/xmlschemas/TrackPointExtension/v1">
            <gpxtpx:hr>60</gpxtpx:hr>
          </gpxtpx:TrackPointExtension>
        </extensions>
      </trkpt>
      <trkpt lat="43.67566" lon="3.44451">
        <ele>208.9</ele>
        <time>2022-08-07T08:32:03Z</time>
        <extensions>
          <gpxtpx:TrackPointExtension xmlns:gpxtpx="http://www.garmin.com/xmlschemas/TrackPointExtension/v1">
            <gpxtpx:hr>60</gpxtpx:hr>
          </gpxtpx:TrackPointExtension>
        </extensions>
      </trkpt>
      <trkpt lat="43.6749" lon="3.4444">
        <ele>199.5</ele>
        <time>2022-08-07T08:32:13Z</time>
        <extensions>
          <gpxtpx:TrackPointExtension xmlns:gpxtpx="http://www.garmin.com/xmlschemas/TrackPointExtension/v1">
            <gpxtpx:hr>62</gpxtpx:hr>
          </gpxtpx:TrackPointExtension>
        </extensions>
      </trkpt>
      <trkpt lat="43.67405" lon="3.44415">
        <ele>189.1</ele>
        <time>2022-08-07T08:32:23Z</time>
        <extensions>
          <gpxtpx:TrackPointExtension xmlns:gpxtpx="http://www.garmin.com/xmlschemas/TrackPointExtension/v1">
            <gpxtpx:hr>62</gpxtpx:hr>
          </gpxtpx:TrackPointExtension>
        </extensions>
      </trkpt>
      <trkpt lat="43.67368" lon="3.44428">
        <ele>183.6</ele>
        <time>2022-08-07T08:32:33Z</time>
        <extensions>
          <gpxtpx:TrackPointExtension xmlns:gpxtpx="http://www.garmin.com/xmlschemas/TrackPointExtension/v1">
            <gpxtpx:hr>63</gpxtpx:hr>
          </gpxtpx:TrackPointExtension>
        </extensions>
      </trkpt>
      <trkpt lat="43.6736" lon="3.44446">
        <ele>181.9</ele>
        <time>2022-08-07T08:32:43Z</time>
        <extensions>
          <gpxtpx:TrackPointExtension xmlns:gpxtpx="http://www.garmin.com/xmlschemas/TrackPointExtension/v1">
            <gpxtpx:hr>66</gpxtpx:hr>
          </gpxtpx:TrackPointExtension>
        </extensions>
      </trkpt>
      <trkpt lat="43.67319" lon="3.44443">
        <ele>177.7</ele>
        <time>2022-08-07T08:32:53Z</time>
        <extensions>
          <gpxtpx:TrackPointExtension xmlns:gpxtpx="http://www.garmin.com/xmlschemas/TrackPointExtension/v1">
            <gpxtpx:hr>69</gpxtpx:hr>
          </gpxtpx:TrackPointExtension>
        </extensions>
      </trkpt>
      <trkpt lat="43.67259" lon="3.44431">
        <ele>173.6</ele>
        <time>2022-08-07T08:33:03Z</time>
        <extensions>
          <gpxtpx:TrackPointExtension xmlns:gpxtpx="http://www.garmin.com/xmlschemas/TrackPointExtension/v1">
            <gpxtpx:hr>70</gpxtpx:hr>
          </gpxtpx:TrackPointExtension>
        </extensions>
      </trkpt>
      <trkpt lat="43.67189" lon="3.44412">
        <ele>166.1</ele>
        <time>2022-08-07T08:33:13Z</time>
        <extensions>
          <gpxtpx:TrackPointExtension xmlns:gpxtpx="http://www.garmin.com/xmlschemas/TrackPointExtension/v1">
            <gpxtpx:hr>70</gpxtpx:hr>
          </gpxtpx:TrackPointExtension>
        </extensions>
      </trkpt>
      <trkpt lat="43.67123" lon="3.44386">
        <ele>161.3</ele>
        <time>2022-08-07T08:33:23Z</time>
      </trkpt>
      <trkpt lat="43.67044" lon="3.44351">
        <ele>156.7</ele>
        <time>2022-08-07T08:33:33Z</time>
        <extensions>
          <gpxtpx:TrackPointExtension xmlns:gpxtpx="http://www.garmin.com/xmlschemas/TrackPointExtension/v1">
            <gpxtpx:hr>60</gpxtpx:hr>
          </gpxtpx:TrackPointExtension>
        </extensions>
      </trkpt>
      <trkpt lat="43.66979" lon="3.44299">
        <ele>149</ele>
        <time>2022-08-07T08:33:43Z</time>
        <extensions>
          <gpxtpx:TrackPointExtension xmlns:gpxtpx="http://www.garmin.com/xmlschemas/TrackPointExtension/v1">
            <gpxtpx:hr>60</gpxtpx:hr>
          </gpxtpx:TrackPointExtension>
        </extensions>
      </trkpt>
      <trkpt lat="43.66941" lon="3.4426">
        <ele>145.2</ele>
        <time>2022-08-07T08:33:53Z</time>
        <extensions>
          <gpxtpx:TrackPointExtension xmlns:gpxtpx="http://www.garmin.com/xmlschemas/TrackPointExtension/v1">
            <gpxtpx:hr>60</gpxtpx:hr>
          </gpxtpx:TrackPointExtension>
        </extensions>
      </trkpt>
      <trkpt lat="43.6689" lon="3.44217">
        <ele>139.3</ele>
        <time>2022-08-07T08:34:03Z</time>
        <extensions>
          <gpxtpx:TrackPointExtension xmlns:gpxtpx="http://www.garmin.com/xmlschemas/TrackPointExtension/v1">
            <gpxtpx:hr>60</gpxtpx:hr>
          </gpxtpx:TrackPointExtension>
        </extensions>
      </trkpt>
      <trkpt lat="43.66947" lon="3.442">
        <ele>147.5</ele>
        <time>2022-08-07T08:34:13Z</time>
        <extensions>
          <gpxtpx:TrackPointExtension xmlns:gpxtpx="http://www.garmin.com/xmlschemas/TrackPointExtension/v1">
            <gpxtpx:hr>60</gpxtpx:hr>
          </gpxtpx:TrackPointExtension>
        </extensions>
      </trkpt>
      <trkpt lat="43.67025" lon="3.44235">
        <ele>151.1</ele>
        <time>2022-08-07T08:34:23Z</time>
        <extensions>
          <gpxtpx:TrackPointExtension xmlns:gpxtpx="http://www.garmin.com/xmlschemas/TrackPointExtension/v1">
            <gpxtpx:hr>60</gpxtpx:hr>
          </gpxtpx:TrackPointExtension>
        </extensions>
      </trkpt>
      <trkpt lat="43.67107" lon="3.44254">
        <ele>150</ele>
        <time>2022-08-07T08:34:33Z</time>
        <extensions>
          <gpxtpx:TrackPointExtension xmlns:gpxtpx="http://www.garmin.com/xmlschemas/TrackPointExtension/v1">
            <gpxtpx:hr>61</gpxtpx:hr>
          </gpxtpx:TrackPointExtension>
        </extensions>
      </trkpt>
      <trkpt lat="43.67094" lon="3.44222">
        <ele>144</ele>
        <time>2022-08-07T08:34:43Z</time>
        <extensions>
          <gpxtpx:TrackPointExtension xmlns:gpxtpx="http://www.garmin.com/xmlschemas/TrackPointExtension/v1">
            <gpxtpx:hr>61</gpxtpx:hr>
          </gpxtpx:TrackPointExtension>
        </extensions>
      </trkpt>
      <trkpt lat="43.6702" lon="3.44154">
        <ele>140.4</ele>
        <time>2022-08-07T08:34:53Z</time>
        <extensions>
          <gpxtpx:TrackPointExtension xmlns:gpxtpx="http://www.garmin.com/xmlschemas/TrackPointExtension/v1">
            <gpxtpx:hr>63</gpxtpx:hr>
          </gpxtpx:TrackPointExtension>
        </extensions>
      </trkpt>
      <trkpt lat="43.66957" lon="3.4407">
        <ele>134</ele>
        <time>2022-08-07T08:35:03Z</time>
        <extensions>
          <gpxtpx:TrackPointExtension xmlns:gpxtpx="http://www.garmin.com/xmlschemas/TrackPointExtension/v1">
            <gpxtpx:hr>82</gpxtpx:hr>
          </gpxtpx:TrackPointExtension>
        </extensions>
      </trkpt>
      <trkpt lat="43.66922" lon="3.43983">
        <ele>119.4</ele>
        <time>2022-08-07T08:35:13Z</time>
        <extensions>
          <gpxtpx:TrackPointExtension xmlns:gpxtpx="http://www.garmin.com/xmlschemas/TrackPointExtension/v1">
            <gpxtpx:hr>84</gpxtpx:hr>
          </gpxtpx:TrackPointExtension>
        </extensions>
      </trkpt>
      <trkpt lat="43.66874" lon="3.43917">
        <ele>104.6</ele>
        <time>2022-08-07T08:35:23Z</time>
        <extensions>
          <gpxtpx:TrackPointExtension xmlns:gpxtpx="http://www.garmin.com/xmlschemas/TrackPointExtension/v1">
            <gpxtpx:hr>65</gpxtpx:hr>
          </gpxtpx:TrackPointExtension>
        </extensions>
      </trkpt>
      <trkpt lat="43.66813" lon="3.43896">
        <ele>99.9</ele>
        <time>2022-08-07T08:35:33Z</time>
        <extensions>
          <gpxtpx:TrackPointExtension xmlns:gpxtpx="http://www.garmin.com/xmlschemas/TrackPointExtension/v1">
            <gpxtpx:hr>82</gpxtpx:hr>
          </gpxtpx:TrackPointExtension>
        </extensions>
      </trkpt>
      <trkpt lat="43.66779" lon="3.43881">
        <ele>95.6</ele>
        <time>2022-08-07T08:35:43Z</time>
        <extensions>
          <gpxtpx:TrackPointExtension xmlns:gpxtpx="http://www.garmin.com/xmlschemas/TrackPointExtension/v1">
            <gpxtpx:hr>82</gpxtpx:hr>
          </gpxtpx:TrackPointExtension>
        </extensions>
      </trkpt>
      <trkpt lat="43.66743" lon="3.43872">
        <ele>93.3</ele>
        <time>2022-08-07T08:35:53Z</time>
        <extensions>
          <gpxtpx:TrackPointExtension xmlns:gpxtpx="http://www.garmin.com/xmlschemas/TrackPointExtension/v1">
            <gpxtpx:hr>65</gpxtpx:hr>
          </gpxtpx:TrackPointExtension>
        </extensions>
      </trkpt>
      <trkpt lat="43.66756" lon="3.43855">
        <ele>88.1</ele>
        <time>2022-08-07T08:36:03Z</time>
        <extensions>
          <gpxtpx:TrackPointExtension xmlns:gpxtpx="http://www.garmin.com/xmlschemas/TrackPointExtension/v1">
            <gpxtpx:hr>65</gpxtpx:hr>
          </gpxtpx:TrackPointExtension>
        </extensions>
      </trkpt>
      <trkpt lat="43.66781" lon="3.43843">
        <ele>85.7</ele>
        <time>2022-08-07T08:36:13Z</time>
        <extensions>
          <gpxtpx:TrackPointExtension xmlns:gpxtpx="http://www.garmin.com/xmlschemas/TrackPointExtension/v1">
            <gpxtpx:hr>69</gpxtpx:hr>
          </gpxtpx:TrackPointExtension>
        </extensions>
      </trkpt>
      <trkpt lat="43.66747" lon="3.4384">
        <ele>84.1</ele>
        <time>2022-08-07T08:36:23Z</time>
        <extensions>
          <gpxtpx:TrackPointExtension xmlns:gpxtpx="http://www.garmin.com/xmlschemas/TrackPointExtension/v1">
            <gpxtpx:hr>73</gpxtpx:hr>
          </gpxtpx:TrackPointExtension>
        </extensions>
      </trkpt>
      <trkpt lat="43.66694" lon="3.43841">
        <ele>88.3</ele>
        <time>2022-08-07T08:36:33Z</time>
        <extensions>
          <gpxtpx:TrackPointExtension xmlns:gpxtpx="http://www.garmin.com/xmlschemas/TrackPointExtension/v1">
            <gpxtpx:hr>66</gpxtpx:hr>
          </gpxtpx:TrackPointExtension>
        </extensions>
      </trkpt>
      <trkpt lat="43.66639" lon="3.4384">
        <ele>93</ele>
        <time>2022-08-07T08:36:43Z</time>
        <extensions>
          <gpxtpx:TrackPointExtension xmlns:gpxtpx="http://www.garmin.com/xmlschemas/TrackPointExtension/v1">
            <gpxtpx:hr>60</gpxtpx:hr>
          </gpxtpx:TrackPointExtension>
        </extensions>
      </trkpt>
      <trkpt lat="43.66613" lon="3.43825">
        <ele>92.1</ele>
        <time>2022-08-07T08:36:53Z</time>
        <extensions>
          <gpxtpx:TrackPointExtension xmlns:gpxtpx="http://www.garmin.com/xmlschemas/TrackPointExtension/v1">
            <gpxtpx:hr>60</gpxtpx:hr>
          </gpxtpx:TrackPointExtension>
        </extensions>
      </trkpt>
      <trkpt lat="43.66565" lon="3.43816">
        <ele>94.9</ele>
        <time>2022-08-07T08:37:03Z</time>
        <extensions>
          <gpxtpx:TrackPointExtension xmlns:gpxtpx="http://www.garmin.com/xmlschemas/TrackPointExtension/v1">
            <gpxtpx:hr>60</gpxtpx:hr>
          </gpxtpx:TrackPointExtension>
        </extensions>
      </trkpt>
      <trkpt lat="43.66517" lon="3.43799">
        <ele>95.7</ele>
        <time>2022-08-07T08:37:13Z</time>
        <extensions>
          <gpxtpx:TrackPointExtension xmlns:gpxtpx="http://www.garmin.com/xmlschemas/TrackPointExtension/v1">
            <gpxtpx:hr>60</gpxtpx:hr>
          </gpxtpx:TrackPointExtension>
        </extensions>
      </trkpt>
      <trkpt lat="43.66475" lon="3.43784">
        <ele>93.5</ele>
        <time>2022-08-07T08:37:23Z</time>
      </trkpt>
      <trkpt lat="43.66436" lon="3.43769">
        <ele>91.2</ele>
        <time>2022-08-07T08:37:33Z</time>
        <extensions>
          <gpxtpx:TrackPointExtension xmlns:gpxtpx="http://www.garmin.com/xmlschemas/TrackPointExtension/v1">
            <gpxtpx:hr>91</gpxtpx:hr>
          </gpxtpx:TrackPointExtension>
        </extensions>
      </trkpt>
      <trkpt lat="43.66397" lon="3.43756">
        <ele>89</ele>
        <time>2022-08-07T08:37:43Z</time>
        <extensions>
          <gpxtpx:TrackPointExtension xmlns:gpxtpx="http://www.garmin.com/xmlschemas/TrackPointExtension/v1">
            <gpxtpx:hr>92</gpxtpx:hr>
          </gpxtpx:TrackPointExtension>
        </extensions>
      </trkpt>
      <trkpt lat="43.6636" lon="3.43747">
        <ele>86.7</ele>
        <time>2022-08-07T08:37:53Z</time>
        <extensions>
          <gpxtpx:TrackPointExtension xmlns:gpxtpx="http://www.garmin.com/xmlschemas/TrackPointExtension/v1">
            <gpxtpx:hr>92</gpxtpx:hr>
          </gpxtpx:TrackPointExtension>
        </extensions>
      </trkpt>
      <trkpt lat="43.66323" lon="3.4376">
        <ele>86</ele>
        <time>2022-08-07T08:38:03Z</time>
        <extensions>
          <gpxtpx:TrackPointExtension xmlns:gpxtpx="http://www.garmin.com/xmlschemas/TrackPointExtension/v1">
            <gpxtpx:hr>95</gpxtpx:hr>
          </gpxtpx:TrackPointExtension>
        </extensions>
      </trkpt>
      <trkpt lat="43.66295" lon="3.438">
        <ele>86</ele>
        <time>2022-08-07T08:38:13Z</time>
        <extensions>
          <gpxtpx:TrackPointExtension xmlns:gpxtpx="http://www.garmin.com/xmlschemas/TrackPointExtension/v1">
            <gpxtpx:hr>108</gpxtpx:hr>
          </gpxtpx:TrackPointExtension>
        </extensions>
      </trkpt>
      <trkpt lat="43.66271" lon="3.43848">
        <ele>85.9</ele>
        <time>2022-08-07T08:38:23Z</time>
        <extensions>
          <gpxtpx:TrackPointExtension xmlns:gpxtpx="http://www.garmin.com/xmlschemas/TrackPointExtension/v1">
            <gpxtpx:hr>114</gpxtpx:hr>
          </gpxtpx:TrackPointExtension>
        </extensions>
      </trkpt>
      <trkpt lat="43.66266" lon="3.43899">
        <ele>86.4</ele>
        <time>2022-08-07T08:38:33Z</time>
        <extensions>
          <gpxtpx:TrackPointExtension xmlns:gpxtpx="http://www.garmin.com/xmlschemas/TrackPointExtension/v1">
            <gpxtpx:hr>116</gpxtpx:hr>
          </gpxtpx:TrackPointExtension>
        </extensions>
      </trkpt>
      <trkpt lat="43.66267" lon="3.43942">
        <ele>86.8</ele>
        <time>2022-08-07T08:38:43Z</time>
        <extensions>
          <gpxtpx:TrackPointExtension xmlns:gpxtpx="http://www.garmin.com/xmlschemas/TrackPointExtension/v1">
            <gpxtpx:hr>124</gpxtpx:hr>
          </gpxtpx:TrackPointExtension>
        </extensions>
      </trkpt>
      <trkpt lat="43.66269" lon="3.44007">
        <ele>87.2</ele>
        <time>2022-08-07T08:38:53Z</time>
        <extensions>
          <gpxtpx:TrackPointExtension xmlns:gpxtpx="http://www.garmin.com/xmlschemas/TrackPointExtension/v1">
            <gpxtpx:hr>126</gpxtpx:hr>
          </gpxtpx:TrackPointExtension>
        </extensions>
      </trkpt>
      <trkpt lat="43.66269" lon="3.44082">
        <ele>85.9</ele>
        <time>2022-08-07T08:39:03Z</time>
        <extensions>
          <gpxtpx:TrackPointExtension xmlns:gpxtpx="http://www.garmin.com/xmlschemas/TrackPointExtension/v1">
            <gpxtpx:hr>126</gpxtpx:hr>
          </gpxtpx:TrackPointExtension>
        </extensions>
      </trkpt>
      <trkpt lat="43.66269" lon="3.4416">
        <ele>84.3</ele>
        <time>2022-08-07T08:39:13Z</time>
        <extensions>
          <gpxtpx:TrackPointExtension xmlns:gpxtpx="http://www.garmin.com/xmlschemas/TrackPointExtension/v1">
            <gpxtpx:hr>122</gpxtpx:hr>
          </gpxtpx:TrackPointExtension>
        </extensions>
      </trkpt>
      <trkpt lat="43.66269" lon="3.44237">
        <ele>84.6</ele>
        <time>2022-08-07T08:39:23Z</time>
        <extensions>
          <gpxtpx:TrackPointExtension xmlns:gpxtpx="http://www.garmin.com/xmlschemas/TrackPointExtension/v1">
            <gpxtpx:hr>112</gpxtpx:hr>
          </gpxtpx:TrackPointExtension>
        </extensions>
      </trkpt>
      <trkpt lat="43.66269" lon="3.44296">
        <ele>84.7</ele>
        <time>2022-08-07T08:39:33Z</time>
        <extensions>
          <gpxtpx:TrackPointExtension xmlns:gpxtpx="http://www.garmin.com/xmlschemas/TrackPointExtension/v1">
            <gpxtpx:hr>109</gpxtpx:hr>
          </gpxtpx:TrackPointExtension>
        </extensions>
      </trkpt>
      <trkpt lat="43.66269" lon="3.44313">
        <ele>84.7</ele>
        <time>2022-08-07T08:40:03Z</time>
        <extensions>
          <gpxtpx:TrackPointExtension xmlns:gpxtpx="http://www.garmin.com/xmlschemas/TrackPointExtension/v1">
            <gpxtpx:hr>86</gpxtpx:hr>
          </gpxtpx:TrackPointExtension>
        </extensions>
      </trkpt>
      <trkpt lat="43.66269" lon="3.44357">
        <ele>85.1</ele>
        <time>2022-08-07T08:40:23Z</time>
      </trkpt>
      <trkpt lat="43.66274" lon="3.44342">
        <ele>85</ele>
        <time>2022-08-07T08:40:33Z</time>
        <extensions>
          <gpxtpx:TrackPointExtension xmlns:gpxtpx="http://www.garmin.com/xmlschemas/TrackPointExtension/v1">
            <gpxtpx:hr>86</gpxtpx:hr>
          </gpxtpx:TrackPointExtension>
        </extensions>
      </trkpt>
      <trkpt lat="43.6627" lon="3.44279">
        <ele>84.7</ele>
        <time>2022-08-07T08:40:43Z</time>
        <extensions>
          <gpxtpx:TrackPointExtension xmlns:gpxtpx="http://www.garmin.com/xmlschemas/TrackPointExtension/v1">
            <gpxtpx:hr>85</gpxtpx:hr>
          </gpxtpx:TrackPointExtension>
        </extensions>
      </trkpt>
      <trkpt lat="43.66232" lon="3.44307">
        <ele>84.2</ele>
        <time>2022-08-07T08:40:53Z</time>
        <extensions>
          <gpxtpx:TrackPointExtension xmlns:gpxtpx="http://www.garmin.com/xmlschemas/TrackPointExtension/v1">
            <gpxtpx:hr>82</gpxtpx:hr>
          </gpxtpx:TrackPointExtension>
        </extensions>
      </trkpt>
      <trkpt lat="43.66208" lon="3.44373">
        <ele>84.5</ele>
        <time>2022-08-07T08:41:03Z</time>
        <extensions>
          <gpxtpx:TrackPointExtension xmlns:gpxtpx="http://www.garmin.com/xmlschemas/TrackPointExtension/v1">
            <gpxtpx:hr>78</gpxtpx:hr>
          </gpxtpx:TrackPointExtension>
        </extensions>
      </trkpt>
      <trkpt lat="43.66187" lon="3.44443">
        <ele>84.6</ele>
        <time>2022-08-07T08:41:13Z</time>
        <extensions>
          <gpxtpx:TrackPointExtension xmlns:gpxtpx="http://www.garmin.com/xmlschemas/TrackPointExtension/v1">
            <gpxtpx:hr>78</gpxtpx:hr>
          </gpxtpx:TrackPointExtension>
        </extensions>
      </trkpt>
      <trkpt lat="43.66172" lon="3.44518">
        <ele>84.9</ele>
        <time>2022-08-07T08:41:23Z</time>
        <extensions>
          <gpxtpx:TrackPointExtension xmlns:gpxtpx="http://www.garmin.com/xmlschemas/TrackPointExtension/v1">
            <gpxtpx:hr>84</gpxtpx:hr>
          </gpxtpx:TrackPointExtension>
        </extensions>
      </trkpt>
      <trkpt lat="43.66158" lon="3.44594">
        <ele>84.2</ele>
        <time>2022-08-07T08:41:33Z</time>
        <extensions>
          <gpxtpx:TrackPointExtension xmlns:gpxtpx="http://www.garmin.com/xmlschemas/TrackPointExtension/v1">
            <gpxtpx:hr>92</gpxtpx:hr>
          </gpxtpx:TrackPointExtension>
        </extensions>
      </trkpt>
      <trkpt lat="43.66142" lon="3.44671">
        <ele>85</ele>
        <time>2022-08-07T08:41:43Z</time>
        <extensions>
          <gpxtpx:TrackPointExtension xmlns:gpxtpx="http://www.garmin.com/xmlschemas/TrackPointExtension/v1">
            <gpxtpx:hr>93</gpxtpx:hr>
          </gpxtpx:TrackPointExtension>
        </extensions>
      </trkpt>
      <trkpt lat="43.66119" lon="3.44744">
        <ele>85.5</ele>
        <time>2022-08-07T08:41:53Z</time>
        <extensions>
          <gpxtpx:TrackPointExtension xmlns:gpxtpx="http://www.garmin.com/xmlschemas/TrackPointExtension/v1">
            <gpxtpx:hr>94</gpxtpx:hr>
          </gpxtpx:TrackPointExtension>
        </extensions>
      </trkpt>
      <trkpt lat="43.66097" lon="3.44814">
        <ele>85.7</ele>
        <time>2022-08-07T08:42:03Z</time>
        <extensions>
          <gpxtpx:TrackPointExtension xmlns:gpxtpx="http://www.garmin.com/xmlschemas/TrackPointExtension/v1">
            <gpxtpx:hr>97</gpxtpx:hr>
          </gpxtpx:TrackPointExtension>
        </extensions>
      </trkpt>
      <trkpt lat="43.66076" lon="3.44885">
        <ele>84.5</ele>
        <time>2022-08-07T08:42:13Z</time>
        <extensions>
          <gpxtpx:TrackPointExtension xmlns:gpxtpx="http://www.garmin.com/xmlschemas/TrackPointExtension/v1">
            <gpxtpx:hr>106</gpxtpx:hr>
          </gpxtpx:TrackPointExtension>
        </extensions>
      </trkpt>
      <trkpt lat="43.66052" lon="3.44956">
        <ele>83.7</ele>
        <time>2022-08-07T08:42:23Z</time>
        <extensions>
          <gpxtpx:TrackPointExtension xmlns:gpxtpx="http://www.garmin.com/xmlschemas/TrackPointExtension/v1">
            <gpxtpx:hr>106</gpxtpx:hr>
          </gpxtpx:TrackPointExtension>
        </extensions>
      </trkpt>
      <trkpt lat="43.66012" lon="3.45018">
        <ele>83.4</ele>
        <time>2022-08-07T08:42:33Z</time>
        <extensions>
          <gpxtpx:TrackPointExtension xmlns:gpxtpx="http://www.garmin.com/xmlschemas/TrackPointExtension/v1">
            <gpxtpx:hr>109</gpxtpx:hr>
          </gpxtpx:TrackPointExtension>
        </extensions>
      </trkpt>
      <trkpt lat="43.65963" lon="3.45071">
        <ele>83.9</ele>
        <time>2022-08-07T08:42:43Z</time>
        <extensions>
          <gpxtpx:TrackPointExtension xmlns:gpxtpx="http://www.garmin.com/xmlschemas/TrackPointExtension/v1">
            <gpxtpx:hr>109</gpxtpx:hr>
          </gpxtpx:TrackPointExtension>
        </extensions>
      </trkpt>
      <trkpt lat="43.65914" lon="3.45124">
        <ele>83.4</ele>
        <time>2022-08-07T08:42:53Z</time>
        <extensions>
          <gpxtpx:TrackPointExtension xmlns:gpxtpx="http://www.garmin.com/xmlschemas/TrackPointExtension/v1">
            <gpxtpx:hr>101</gpxtpx:hr>
          </gpxtpx:TrackPointExtension>
        </extensions>
      </trkpt>
      <trkpt lat="43.65865" lon="3.45176">
        <ele>81.8</ele>
        <time>2022-08-07T08:43:03Z</time>
        <extensions>
          <gpxtpx:TrackPointExtension xmlns:gpxtpx="http://www.garmin.com/xmlschemas/TrackPointExtension/v1">
            <gpxtpx:hr>102</gpxtpx:hr>
          </gpxtpx:TrackPointExtension>
        </extensions>
      </trkpt>
      <trkpt lat="43.65818" lon="3.45228">
        <ele>82</ele>
        <time>2022-08-07T08:43:13Z</time>
        <extensions>
          <gpxtpx:TrackPointExtension xmlns:gpxtpx="http://www.garmin.com/xmlschemas/TrackPointExtension/v1">
            <gpxtpx:hr>106</gpxtpx:hr>
          </gpxtpx:TrackPointExtension>
        </extensions>
      </trkpt>
      <trkpt lat="43.65769" lon="3.45281">
        <ele>82</ele>
        <time>2022-08-07T08:43:23Z</time>
        <extensions>
          <gpxtpx:TrackPointExtension xmlns:gpxtpx="http://www.garmin.com/xmlschemas/TrackPointExtension/v1">
            <gpxtpx:hr>111</gpxtpx:hr>
          </gpxtpx:TrackPointExtension>
        </extensions>
      </trkpt>
      <trkpt lat="43.65718" lon="3.45336">
        <ele>81.1</ele>
        <time>2022-08-07T08:43:33Z</time>
        <extensions>
          <gpxtpx:TrackPointExtension xmlns:gpxtpx="http://www.garmin.com/xmlschemas/TrackPointExtension/v1">
            <gpxtpx:hr>113</gpxtpx:hr>
          </gpxtpx:TrackPointExtension>
        </extensions>
      </trkpt>
      <trkpt lat="43.65669" lon="3.4539">
        <ele>81.1</ele>
        <time>2022-08-07T08:43:43Z</time>
        <extensions>
          <gpxtpx:TrackPointExtension xmlns:gpxtpx="http://www.garmin.com/xmlschemas/TrackPointExtension/v1">
            <gpxtpx:hr>114</gpxtpx:hr>
          </gpxtpx:TrackPointExtension>
        </extensions>
      </trkpt>
      <trkpt lat="43.65692" lon="3.45455">
        <ele>82</ele>
        <time>2022-08-07T08:43:53Z</time>
        <extensions>
          <gpxtpx:TrackPointExtension xmlns:gpxtpx="http://www.garmin.com/xmlschemas/TrackPointExtension/v1">
            <gpxtpx:hr>115</gpxtpx:hr>
          </gpxtpx:TrackPointExtension>
        </extensions>
      </trkpt>
      <trkpt lat="43.65728" lon="3.45517">
        <ele>81.8</ele>
        <time>2022-08-07T08:44:03Z</time>
        <extensions>
          <gpxtpx:TrackPointExtension xmlns:gpxtpx="http://www.garmin.com/xmlschemas/TrackPointExtension/v1">
            <gpxtpx:hr>115</gpxtpx:hr>
          </gpxtpx:TrackPointExtension>
        </extensions>
      </trkpt>
      <trkpt lat="43.6577" lon="3.45572">
        <ele>81.2</ele>
        <time>2022-08-07T08:44:13Z</time>
        <extensions>
          <gpxtpx:TrackPointExtension xmlns:gpxtpx="http://www.garmin.com/xmlschemas/TrackPointExtension/v1">
            <gpxtpx:hr>115</gpxtpx:hr>
          </gpxtpx:TrackPointExtension>
        </extensions>
      </trkpt>
      <trkpt lat="43.65815" lon="3.45624">
        <ele>80.8</ele>
        <time>2022-08-07T08:44:23Z</time>
        <extensions>
          <gpxtpx:TrackPointExtension xmlns:gpxtpx="http://www.garmin.com/xmlschemas/TrackPointExtension/v1">
            <gpxtpx:hr>106</gpxtpx:hr>
          </gpxtpx:TrackPointExtension>
        </extensions>
      </trkpt>
      <trkpt lat="43.65863" lon="3.45667">
        <ele>81.7</ele>
        <time>2022-08-07T08:44:33Z</time>
        <extensions>
          <gpxtpx:TrackPointExtension xmlns:gpxtpx="http://www.garmin.com/xmlschemas/TrackPointExtension/v1">
            <gpxtpx:hr>103</gpxtpx:hr>
          </gpxtpx:TrackPointExtension>
        </extensions>
      </trkpt>
      <trkpt lat="43.65913" lon="3.45703">
        <ele>82</ele>
        <time>2022-08-07T08:44:43Z</time>
        <extensions>
          <gpxtpx:TrackPointExtension xmlns:gpxtpx="http://www.garmin.com/xmlschemas/TrackPointExtension/v1">
            <gpxtpx:hr>99</gpxtpx:hr>
          </gpxtpx:TrackPointExtension>
        </extensions>
      </trkpt>
      <trkpt lat="43.65907" lon="3.45775">
        <ele>80.5</ele>
        <time>2022-08-07T08:44:53Z</time>
        <extensions>
          <gpxtpx:TrackPointExtension xmlns:gpxtpx="http://www.garmin.com/xmlschemas/TrackPointExtension/v1">
            <gpxtpx:hr>65</gpxtpx:hr>
          </gpxtpx:TrackPointExtension>
        </extensions>
      </trkpt>
      <trkpt lat="43.65863" lon="3.45789">
        <ele>79.2</ele>
        <time>2022-08-07T08:45:03Z</time>
        <extensions>
          <gpxtpx:TrackPointExtension xmlns:gpxtpx="http://www.garmin.com/xmlschemas/TrackPointExtension/v1">
            <gpxtpx:hr>65</gpxtpx:hr>
          </gpxtpx:TrackPointExtension>
        </extensions>
      </trkpt>
      <trkpt lat="43.65805" lon="3.45785">
        <ele>79.1</ele>
        <time>2022-08-07T08:45:13Z</time>
        <extensions>
          <gpxtpx:TrackPointExtension xmlns:gpxtpx="http://www.garmin.com/xmlschemas/TrackPointExtension/v1">
            <gpxtpx:hr>66</gpxtpx:hr>
          </gpxtpx:TrackPointExtension>
        </extensions>
      </trkpt>
      <trkpt lat="43.65746" lon="3.45778">
        <ele>80</ele>
        <time>2022-08-07T08:45:23Z</time>
        <extensions>
          <gpxtpx:TrackPointExtension xmlns:gpxtpx="http://www.garmin.com/xmlschemas/TrackPointExtension/v1">
            <gpxtpx:hr>80</gpxtpx:hr>
          </gpxtpx:TrackPointExtension>
        </extensions>
      </trkpt>
      <trkpt lat="43.65693" lon="3.45775">
        <ele>80.5</ele>
        <time>2022-08-07T08:45:33Z</time>
        <extensions>
          <gpxtpx:TrackPointExtension xmlns:gpxtpx="http://www.garmin.com/xmlschemas/TrackPointExtension/v1">
            <gpxtpx:hr>88</gpxtpx:hr>
          </gpxtpx:TrackPointExtension>
        </extensions>
      </trkpt>
      <trkpt lat="43.65649" lon="3.45779">
        <ele>80.4</ele>
        <time>2022-08-07T08:45:43Z</time>
        <extensions>
          <gpxtpx:TrackPointExtension xmlns:gpxtpx="http://www.garmin.com/xmlschemas/TrackPointExtension/v1">
            <gpxtpx:hr>92</gpxtpx:hr>
          </gpxtpx:TrackPointExtension>
        </extensions>
      </trkpt>
      <trkpt lat="43.65602" lon="3.45785">
        <ele>79.8</ele>
        <time>2022-08-07T08:45:53Z</time>
        <extensions>
          <gpxtpx:TrackPointExtension xmlns:gpxtpx="http://www.garmin.com/xmlschemas/TrackPointExtension/v1">
            <gpxtpx:hr>95</gpxtpx:hr>
          </gpxtpx:TrackPointExtension>
        </extensions>
      </trkpt>
      <trkpt lat="43.65545" lon="3.45787">
        <ele>79.5</ele>
        <time>2022-08-07T08:46:03Z</time>
        <extensions>
          <gpxtpx:TrackPointExtension xmlns:gpxtpx="http://www.garmin.com/xmlschemas/TrackPointExtension/v1">
            <gpxtpx:hr>98</gpxtpx:hr>
          </gpxtpx:TrackPointExtension>
        </extensions>
      </trkpt>
      <trkpt lat="43.65472" lon="3.45785">
        <ele>79.5</ele>
        <time>2022-08-07T08:46:13Z</time>
        <extensions>
          <gpxtpx:TrackPointExtension xmlns:gpxtpx="http://www.garmin.com/xmlschemas/TrackPointExtension/v1">
            <gpxtpx:hr>97</gpxtpx:hr>
          </gpxtpx:TrackPointExtension>
        </extensions>
      </trkpt>
      <trkpt lat="43.65409" lon="3.45783">
        <ele>79.6</ele>
        <time>2022-08-07T08:46:23Z</time>
        <extensions>
          <gpxtpx:TrackPointExtension xmlns:gpxtpx="http://www.garmin.com/xmlschemas/TrackPointExtension/v1">
            <gpxtpx:hr>96</gpxtpx:hr>
          </gpxtpx:TrackPointExtension>
        </extensions>
      </trkpt>
      <trkpt lat="43.65392" lon="3.45786">
        <ele>79.7</ele>
      </trkpt>
      <trkpt lat="43.65388" lon="3.45805">
        <ele>79.6</ele>
      </trkpt>
      <trkpt lat="43.65387" lon="3.45813">
        <ele>79.5</ele>
      </trkpt>
      <trkpt lat="43.65384" lon="3.45842">
        <ele>79.4</ele>
        <time>2022-08-07T08:46:33Z</time>
      </trkpt>
      <trkpt lat="43.65371" lon="3.45935">
        <ele>79.5</ele>
        <time>2022-08-07T08:46:43Z</time>
      </trkpt>
      <trkpt lat="43.65364" lon="3.45975">
        <ele>79.6</ele>
        <time>2022-08-07T08:46:53Z</time>
      </trkpt>
      <trkpt lat="43.65355" lon="3.46042">
        <ele>80.1</ele>
        <time>2022-08-07T08:47:03Z</time>
      </trkpt>
      <trkpt lat="43.65346" lon="3.46102">
        <ele>80.4</ele>
        <time>2022-08-07T08:47:13Z</time>
      </trkpt>
      <trkpt lat="43.65338" lon="3.46167">
        <ele>79.9</ele>
        <time>2022-08-07T08:47:23Z</time>
      </trkpt>
      <trkpt lat="43.65211" lon="3.47074">
        <ele>75.1</ele>
        <time>2022-08-07T08:51:13Z</time>
        <extensions>
          <gpxtpx:TrackPointExtension xmlns:gpxtpx="http://www.garmin.com/xmlschemas/TrackPointExtension/v1">
            <gpxtpx:hr>91</gpxtpx:hr>
          </gpxtpx:TrackPointExtension>
        </extensions>
      </trkpt>
      <trkpt lat="43.65203" lon="3.47133">
        <ele>73.8</ele>
        <time>2022-08-07T08:51:23Z</time>
        <extensions>
          <gpxtpx:TrackPointExtension xmlns:gpxtpx="http://www.garmin.com/xmlschemas/TrackPointExtension/v1">
            <gpxtpx:hr>92</gpxtpx:hr>
          </gpxtpx:TrackPointExtension>
        </extensions>
      </trkpt>
      <trkpt lat="43.65193" lon="3.47202">
        <ele>73</ele>
        <time>2022-08-07T08:51:33Z</time>
        <extensions>
          <gpxtpx:TrackPointExtension xmlns:gpxtpx="http://www.garmin.com/xmlschemas/TrackPointExtension/v1">
            <gpxtpx:hr>94</gpxtpx:hr>
          </gpxtpx:TrackPointExtension>
        </extensions>
      </trkpt>
      <trkpt lat="43.65182" lon="3.47277">
        <ele>73.1</ele>
        <time>2022-08-07T08:51:43Z</time>
        <extensions>
          <gpxtpx:TrackPointExtension xmlns:gpxtpx="http://www.garmin.com/xmlschemas/TrackPointExtension/v1">
            <gpxtpx:hr>103</gpxtpx:hr>
          </gpxtpx:TrackPointExtension>
        </extensions>
      </trkpt>
      <trkpt lat="43.65172" lon="3.47352">
        <ele>74</ele>
        <time>2022-08-07T08:51:53Z</time>
        <extensions>
          <gpxtpx:TrackPointExtension xmlns:gpxtpx="http://www.garmin.com/xmlschemas/TrackPointExtension/v1">
            <gpxtpx:hr>103</gpxtpx:hr>
          </gpxtpx:TrackPointExtension>
        </extensions>
      </trkpt>
      <trkpt lat="43.65161" lon="3.47427">
        <ele>74</ele>
        <time>2022-08-07T08:52:03Z</time>
        <extensions>
          <gpxtpx:TrackPointExtension xmlns:gpxtpx="http://www.garmin.com/xmlschemas/TrackPointExtension/v1">
            <gpxtpx:hr>100</gpxtpx:hr>
          </gpxtpx:TrackPointExtension>
        </extensions>
      </trkpt>
      <trkpt lat="43.65151" lon="3.47502">
        <ele>75.4</ele>
        <time>2022-08-07T08:52:13Z</time>
        <extensions>
          <gpxtpx:TrackPointExtension xmlns:gpxtpx="http://www.garmin.com/xmlschemas/TrackPointExtension/v1">
            <gpxtpx:hr>99</gpxtpx:hr>
          </gpxtpx:TrackPointExtension>
        </extensions>
      </trkpt>
      <trkpt lat="43.6514" lon="3.47581">
        <ele>72.4</ele>
        <time>2022-08-07T08:52:23Z</time>
        <extensions>
          <gpxtpx:TrackPointExtension xmlns:gpxtpx="http://www.garmin.com/xmlschemas/TrackPointExtension/v1">
            <gpxtpx:hr>104</gpxtpx:hr>
          </gpxtpx:TrackPointExtension>
        </extensions>
      </trkpt>
      <trkpt lat="43.65129" lon="3.47661">
        <ele>71.1</ele>
        <time>2022-08-07T08:52:33Z</time>
        <extensions>
          <gpxtpx:TrackPointExtension xmlns:gpxtpx="http://www.garmin.com/xmlschemas/TrackPointExtension/v1">
            <gpxtpx:hr>95</gpxtpx:hr>
          </gpxtpx:TrackPointExtension>
        </extensions>
      </trkpt>
      <trkpt lat="43.65119" lon="3.47739">
        <ele>71.9</ele>
        <time>2022-08-07T08:52:43Z</time>
        <extensions>
          <gpxtpx:TrackPointExtension xmlns:gpxtpx="http://www.garmin.com/xmlschemas/TrackPointExtension/v1">
            <gpxtpx:hr>82</gpxtpx:hr>
          </gpxtpx:TrackPointExtension>
        </extensions>
      </trkpt>
      <trkpt lat="43.65099" lon="3.47883">
        <ele>71.7</ele>
        <time>2022-08-07T08:56:43Z</time>
        <extensions>
          <gpxtpx:TrackPointExtension xmlns:gpxtpx="http://www.garmin.com/xmlschemas/TrackPointExtension/v1">
            <gpxtpx:hr>86</gpxtpx:hr>
          </gpxtpx:TrackPointExtension>
        </extensions>
      </trkpt>
      <trkpt lat="43.65088" lon="3.47958">
        <ele>71</ele>
        <time>2022-08-07T08:56:53Z</time>
        <extensions>
          <gpxtpx:TrackPointExtension xmlns:gpxtpx="http://www.garmin.com/xmlschemas/TrackPointExtension/v1">
            <gpxtpx:hr>88</gpxtpx:hr>
          </gpxtpx:TrackPointExtension>
        </extensions>
      </trkpt>
      <trkpt lat="43.65077" lon="3.48033">
        <ele>70.6</ele>
        <time>2022-08-07T08:57:03Z</time>
        <extensions>
          <gpxtpx:TrackPointExtension xmlns:gpxtpx="http://www.garmin.com/xmlschemas/TrackPointExtension/v1">
            <gpxtpx:hr>91</gpxtpx:hr>
          </gpxtpx:TrackPointExtension>
        </extensions>
      </trkpt>
      <trkpt lat="43.65067" lon="3.4811">
        <ele>69.7</ele>
        <time>2022-08-07T08:57:13Z</time>
        <extensions>
          <gpxtpx:TrackPointExtension xmlns:gpxtpx="http://www.garmin.com/xmlschemas/TrackPointExtension/v1">
            <gpxtpx:hr>100</gpxtpx:hr>
          </gpxtpx:TrackPointExtension>
        </extensions>
      </trkpt>
      <trkpt lat="43.65056" lon="3.48186">
        <ele>68.8</ele>
        <time>2022-08-07T08:57:23Z</time>
        <extensions>
          <gpxtpx:TrackPointExtension xmlns:gpxtpx="http://www.garmin.com/xmlschemas/TrackPointExtension/v1">
            <gpxtpx:hr>104</gpxtpx:hr>
          </gpxtpx:TrackPointExtension>
        </extensions>
      </trkpt>
      <trkpt lat="43.65046" lon="3.48262">
        <ele>68.4</ele>
        <time>2022-08-07T08:57:33Z</time>
        <extensions>
          <gpxtpx:TrackPointExtension xmlns:gpxtpx="http://www.garmin.com/xmlschemas/TrackPointExtension/v1">
            <gpxtpx:hr>105</gpxtpx:hr>
          </gpxtpx:TrackPointExtension>
        </extensions>
      </trkpt>
      <trkpt lat="43.65035" lon="3.4834">
        <ele>68.6</ele>
        <time>2022-08-07T08:57:43Z</time>
        <extensions>
          <gpxtpx:TrackPointExtension xmlns:gpxtpx="http://www.garmin.com/xmlschemas/TrackPointExtension/v1">
            <gpxtpx:hr>102</gpxtpx:hr>
          </gpxtpx:TrackPointExtension>
        </extensions>
      </trkpt>
      <trkpt lat="43.65024" lon="3.48417">
        <ele>68.6</ele>
        <time>2022-08-07T08:57:53Z</time>
        <extensions>
          <gpxtpx:TrackPointExtension xmlns:gpxtpx="http://www.garmin.com/xmlschemas/TrackPointExtension/v1">
            <gpxtpx:hr>102</gpxtpx:hr>
          </gpxtpx:TrackPointExtension>
        </extensions>
      </trkpt>
      <trkpt lat="43.65013" lon="3.48493">
        <ele>69.6</ele>
        <time>2022-08-07T08:58:03Z</time>
        <extensions>
          <gpxtpx:TrackPointExtension xmlns:gpxtpx="http://www.garmin.com/xmlschemas/TrackPointExtension/v1">
            <gpxtpx:hr>102</gpxtpx:hr>
          </gpxtpx:TrackPointExtension>
        </extensions>
      </trkpt>
      <trkpt lat="43.65002" lon="3.48568">
        <ele>70</ele>
        <time>2022-08-07T08:58:13Z</time>
        <extensions>
          <gpxtpx:TrackPointExtension xmlns:gpxtpx="http://www.garmin.com/xmlschemas/TrackPointExtension/v1">
            <gpxtpx:hr>103</gpxtpx:hr>
          </gpxtpx:TrackPointExtension>
        </extensions>
      </trkpt>
      <trkpt lat="43.64991" lon="3.48645">
        <ele>69.1</ele>
        <time>2022-08-07T08:58:23Z</time>
        <extensions>
          <gpxtpx:TrackPointExtension xmlns:gpxtpx="http://www.garmin.com/xmlschemas/TrackPointExtension/v1">
            <gpxtpx:hr>106</gpxtpx:hr>
          </gpxtpx:TrackPointExtension>
        </extensions>
      </trkpt>
      <trkpt lat="43.64981" lon="3.48724">
        <ele>68.5</ele>
        <time>2022-08-07T08:58:33Z</time>
        <extensions>
          <gpxtpx:TrackPointExtension xmlns:gpxtpx="http://www.garmin.com/xmlschemas/TrackPointExtension/v1">
            <gpxtpx:hr>106</gpxtpx:hr>
          </gpxtpx:TrackPointExtension>
        </extensions>
      </trkpt>
      <trkpt lat="43.6497" lon="3.48803">
        <ele>68.5</ele>
        <time>2022-08-07T08:58:43Z</time>
        <extensions>
          <gpxtpx:TrackPointExtension xmlns:gpxtpx="http://www.garmin.com/xmlschemas/TrackPointExtension/v1">
            <gpxtpx:hr>80</gpxtpx:hr>
          </gpxtpx:TrackPointExtension>
        </extensions>
      </trkpt>
      <trkpt lat="43.64959" lon="3.4888">
        <ele>69.9</ele>
        <time>2022-08-07T08:58:53Z</time>
        <extensions>
          <gpxtpx:TrackPointExtension xmlns:gpxtpx="http://www.garmin.com/xmlschemas/TrackPointExtension/v1">
            <gpxtpx:hr>67</gpxtpx:hr>
          </gpxtpx:TrackPointExtension>
        </extensions>
      </trkpt>
      <trkpt lat="43.64948" lon="3.48958">
        <ele>70.9</ele>
        <time>2022-08-07T08:59:03Z</time>
        <extensions>
          <gpxtpx:TrackPointExtension xmlns:gpxtpx="http://www.garmin.com/xmlschemas/TrackPointExtension/v1">
            <gpxtpx:hr>62</gpxtpx:hr>
          </gpxtpx:TrackPointExtension>
        </extensions>
      </trkpt>
      <trkpt lat="43.64938" lon="3.49033">
        <ele>71.7</ele>
        <time>2022-08-07T08:59:13Z</time>
        <extensions>
          <gpxtpx:TrackPointExtension xmlns:gpxtpx="http://www.garmin.com/xmlschemas/TrackPointExtension/v1">
            <gpxtpx:hr>61</gpxtpx:hr>
          </gpxtpx:TrackPointExtension>
        </extensions>
      </trkpt>
      <trkpt lat="43.64926" lon="3.49109">
        <ele>72.2</ele>
        <time>2022-08-07T08:59:23Z</time>
        <extensions>
          <gpxtpx:TrackPointExtension xmlns:gpxtpx="http://www.garmin.com/xmlschemas/TrackPointExtension/v1">
            <gpxtpx:hr>65</gpxtpx:hr>
          </gpxtpx:TrackPointExtension>
        </extensions>
      </trkpt>
      <trkpt lat="43.64916" lon="3.49184">
        <ele>70.4</ele>
        <time>2022-08-07T08:59:33Z</time>
        <extensions>
          <gpxtpx:TrackPointExtension xmlns:gpxtpx="http://www.garmin.com/xmlschemas/TrackPointExtension/v1">
            <gpxtpx:hr>65</gpxtpx:hr>
          </gpxtpx:TrackPointExtension>
        </extensions>
      </trkpt>
      <trkpt lat="43.64906" lon="3.49255">
        <ele>68.3</ele>
        <time>2022-08-07T08:59:43Z</time>
        <extensions>
          <gpxtpx:TrackPointExtension xmlns:gpxtpx="http://www.garmin.com/xmlschemas/TrackPointExtension/v1">
            <gpxtpx:hr>65</gpxtpx:hr>
          </gpxtpx:TrackPointExtension>
        </extensions>
      </trkpt>
      <trkpt lat="43.64901" lon="3.49325">
        <ele>69.5</ele>
        <time>2022-08-07T08:59:53Z</time>
        <extensions>
          <gpxtpx:TrackPointExtension xmlns:gpxtpx="http://www.garmin.com/xmlschemas/TrackPointExtension/v1">
            <gpxtpx:hr>69</gpxtpx:hr>
          </gpxtpx:TrackPointExtension>
        </extensions>
      </trkpt>
      <trkpt lat="43.64901" lon="3.49393">
        <ele>70.1</ele>
        <time>2022-08-07T09:00:03Z</time>
        <extensions>
          <gpxtpx:TrackPointExtension xmlns:gpxtpx="http://www.garmin.com/xmlschemas/TrackPointExtension/v1">
            <gpxtpx:hr>69</gpxtpx:hr>
          </gpxtpx:TrackPointExtension>
        </extensions>
      </trkpt>
      <trkpt lat="43.64906" lon="3.49461">
        <ele>70</ele>
        <time>2022-08-07T09:00:13Z</time>
        <extensions>
          <gpxtpx:TrackPointExtension xmlns:gpxtpx="http://www.garmin.com/xmlschemas/TrackPointExtension/v1">
            <gpxtpx:hr>66</gpxtpx:hr>
          </gpxtpx:TrackPointExtension>
        </extensions>
      </trkpt>
      <trkpt lat="43.64917" lon="3.49526">
        <ele>70</ele>
        <time>2022-08-07T09:00:23Z</time>
        <extensions>
          <gpxtpx:TrackPointExtension xmlns:gpxtpx="http://www.garmin.com/xmlschemas/TrackPointExtension/v1">
            <gpxtpx:hr>51</gpxtpx:hr>
          </gpxtpx:TrackPointExtension>
        </extensions>
      </trkpt>
      <trkpt lat="43.64935" lon="3.49595">
        <ele>71</ele>
        <time>2022-08-07T09:00:33Z</time>
        <extensions>
          <gpxtpx:TrackPointExtension xmlns:gpxtpx="http://www.garmin.com/xmlschemas/TrackPointExtension/v1">
            <gpxtpx:hr>40</gpxtpx:hr>
          </gpxtpx:TrackPointExtension>
        </extensions>
      </trkpt>
      <trkpt lat="43.64958" lon="3.49662">
        <ele>71.5</ele>
        <time>2022-08-07T09:00:43Z</time>
        <extensions>
          <gpxtpx:TrackPointExtension xmlns:gpxtpx="http://www.garmin.com/xmlschemas/TrackPointExtension/v1">
            <gpxtpx:hr>44</gpxtpx:hr>
          </gpxtpx:TrackPointExtension>
        </extensions>
      </trkpt>
      <trkpt lat="43.64988" lon="3.49724">
        <ele>73.8</ele>
        <time>2022-08-07T09:00:53Z</time>
        <extensions>
          <gpxtpx:TrackPointExtension xmlns:gpxtpx="http://www.garmin.com/xmlschemas/TrackPointExtension/v1">
            <gpxtpx:hr>48</gpxtpx:hr>
          </gpxtpx:TrackPointExtension>
        </extensions>
      </trkpt>
      <trkpt lat="43.65021" lon="3.4978">
        <ele>74.5</ele>
        <time>2022-08-07T09:01:03Z</time>
        <extensions>
          <gpxtpx:TrackPointExtension xmlns:gpxtpx="http://www.garmin.com/xmlschemas/TrackPointExtension/v1">
            <gpxtpx:hr>48</gpxtpx:hr>
          </gpxtpx:TrackPointExtension>
        </extensions>
      </trkpt>
      <trkpt lat="43.65058" lon="3.49831">
        <ele>74.4</ele>
        <time>2022-08-07T09:01:13Z</time>
        <extensions>
          <gpxtpx:TrackPointExtension xmlns:gpxtpx="http://www.garmin.com/xmlschemas/TrackPointExtension/v1">
            <gpxtpx:hr>49</gpxtpx:hr>
          </gpxtpx:TrackPointExtension>
        </extensions>
      </trkpt>
      <trkpt lat="43.65095" lon="3.49878">
        <ele>72.9</ele>
        <time>2022-08-07T09:01:23Z</time>
        <extensions>
          <gpxtpx:TrackPointExtension xmlns:gpxtpx="http://www.garmin.com/xmlschemas/TrackPointExtension/v1">
            <gpxtpx:hr>82</gpxtpx:hr>
          </gpxtpx:TrackPointExtension>
        </extensions>
      </trkpt>
      <trkpt lat="43.65102" lon="3.49899">
        <ele>72</ele>
        <time>2022-08-07T09:01:43Z</time>
        <extensions>
          <gpxtpx:TrackPointExtension xmlns:gpxtpx="http://www.garmin.com/xmlschemas/TrackPointExtension/v1">
            <gpxtpx:hr>94</gpxtpx:hr>
          </gpxtpx:TrackPointExtension>
        </extensions>
      </trkpt>
      <trkpt lat="43.65092" lon="3.49965">
        <ele>71</ele>
        <time>2022-08-07T09:02:03Z</time>
        <extensions>
          <gpxtpx:TrackPointExtension xmlns:gpxtpx="http://www.garmin.com/xmlschemas/TrackPointExtension/v1">
            <gpxtpx:hr>91</gpxtpx:hr>
          </gpxtpx:TrackPointExtension>
        </extensions>
      </trkpt>
      <trkpt lat="43.65079" lon="3.5004">
        <ele>70.9</ele>
        <time>2022-08-07T09:02:13Z</time>
        <extensions>
          <gpxtpx:TrackPointExtension xmlns:gpxtpx="http://www.garmin.com/xmlschemas/TrackPointExtension/v1">
            <gpxtpx:hr>89</gpxtpx:hr>
          </gpxtpx:TrackPointExtension>
        </extensions>
      </trkpt>
      <trkpt lat="43.65066" lon="3.50115">
        <ele>71</ele>
        <time>2022-08-07T09:02:23Z</time>
        <extensions>
          <gpxtpx:TrackPointExtension xmlns:gpxtpx="http://www.garmin.com/xmlschemas/TrackPointExtension/v1">
            <gpxtpx:hr>81</gpxtpx:hr>
          </gpxtpx:TrackPointExtension>
        </extensions>
      </trkpt>
      <trkpt lat="43.6505" lon="3.50189">
        <ele>72.1</ele>
        <time>2022-08-07T09:02:33Z</time>
        <extensions>
          <gpxtpx:TrackPointExtension xmlns:gpxtpx="http://www.garmin.com/xmlschemas/TrackPointExtension/v1">
            <gpxtpx:hr>76</gpxtpx:hr>
          </gpxtpx:TrackPointExtension>
        </extensions>
      </trkpt>
      <trkpt lat="43.65038" lon="3.50268">
        <ele>72.7</ele>
        <time>2022-08-07T09:02:43Z</time>
        <extensions>
          <gpxtpx:TrackPointExtension xmlns:gpxtpx="http://www.garmin.com/xmlschemas/TrackPointExtension/v1">
            <gpxtpx:hr>71</gpxtpx:hr>
          </gpxtpx:TrackPointExtension>
        </extensions>
      </trkpt>
      <trkpt lat="43.65028" lon="3.50332">
        <ele>70.1</ele>
        <time>2022-08-07T09:02:53Z</time>
        <extensions>
          <gpxtpx:TrackPointExtension xmlns:gpxtpx="http://www.garmin.com/xmlschemas/TrackPointExtension/v1">
            <gpxtpx:hr>69</gpxtpx:hr>
          </gpxtpx:TrackPointExtension>
        </extensions>
      </trkpt>
      <trkpt lat="43.65041" lon="3.50355">
        <ele>69.9</ele>
        <time>2022-08-07T09:03:03Z</time>
        <extensions>
          <gpxtpx:TrackPointExtension xmlns:gpxtpx="http://www.garmin.com/xmlschemas/TrackPointExtension/v1">
            <gpxtpx:hr>76</gpxtpx:hr>
          </gpxtpx:TrackPointExtension>
        </extensions>
      </trkpt>
      <trkpt lat="43.65063" lon="3.50364">
        <ele>69.9</ele>
        <time>2022-08-07T09:03:13Z</time>
        <extensions>
          <gpxtpx:TrackPointExtension xmlns:gpxtpx="http://www.garmin.com/xmlschemas/TrackPointExtension/v1">
            <gpxtpx:hr>76</gpxtpx:hr>
          </gpxtpx:TrackPointExtension>
        </extensions>
      </trkpt>
    </trkseg>
  </trk>
</gpx>